Selectionnez le mois :


31/05/2017:Tournoi n°15636 madal222(1740)-1bri(1789):0-1
31/05/2017:Tournoi n°15636 patau(1810)-madal222(1730):1-0
31/05/2017:Eq:Les Corsaires de Lechiquier-La Crim Team : scroff(2710)-vladtepes(2370):1-0
31/05/2017:Eq:Les Corsaires de Lechiquier-les modestes : izemassalas(2710)-ychiduodlatour(2740):1-0
31/05/2017:Défi domisol(1520)-geld108(1470):1-0
31/05/2017:Défi brams83(1659)-zozo(1610):0-1
31/05/2017:Tournoi n°16402 ffred(1620)-kiki51(1640):0-1
31/05/2017:Tournoi n°16673 verson(1850)-arno(1700):1-0
31/05/2017:Tournoi n°16595 mojo(1830)-qasar(1760):1-0
31/05/2017:Tournoi n°16530 papillon22(1740)-verson(1870):0-1
31/05/2017:Tournoi n°16489 jlr(1430)-qasar(1590):0-1
31/05/2017:Eq:tin tin tin-Les Quebecois : janolapin(1820)-bb7553(1710):1-0
31/05/2017:Eq:Les pousseur de bois-les grenades : herakles(2040)-qasar(1790):1-0
31/05/2017:Eq:O fou d hello-tin tin tin : flo71(1890)-warriorette(1960):1-0
31/05/2017:Coupe Niveau 1 patau(1840)-jlr(1460):1-0
31/05/2017:Coupe Niveau 2 jlr(1440)-patau(1810):0-1
31/05/2017:Défi babie(1380)-ratzi(1960):0-1
31/05/2017:Memorial Lara XXI tiounet(1660)-bertelsen(1700):0-1
31/05/2017:Tournoi n°16531 thewolf(1500)-benson(1510):1-0
31/05/2017:Tournoi n°16609 patau(1860)-pgo(1810):1/2-1/2
31/05/2017:Tournoi n°16643 patau(1840)-pgo(1800):1-0
31/05/2017:Eq:Les Corsaires de Lechiquier-les grenades : scroff(2710)-cibox(2580):1/2-1/2
31/05/2017:Eq:Mission Impossible-Pirates du Mat : nathan(2790)-eltche(2400):1-0
31/05/2017:Eq:Mission Impossible-Pirates du Mat : eltche(2400)-nathan(2790):0-1
31/05/2017:Défi youliyouli(1800)-hargas(1659):0-1
31/05/2017:Défi asvel69(1730)-papillon22(1740):1-0
31/05/2017:Défi hberlioz(1640)-azur50(1620):1-0
31/05/2017:Défi danton68(1970)-patau(1800):1-0
31/05/2017:Défi marieclaire(1360)-anumisme(1340):0-1
31/05/2017:Défi roquefort(1900)-plaisance(1930):0-1
31/05/2017:Défi hachevitch(1950)-regor(2080):1-0
31/05/2017:JeanMichoule crca(1940)-tartu(1690):1-0
31/05/2017:Alekhine pour les Nuls tiounet(1660)-intrigue(1720):0-1
31/05/2017:Memorial Lara XXI tiounet(1660)-tartu(1750):1-0
31/05/2017:Tournoi n°16540 joel(1390)-bidou(1500):1-0
31/05/2017:Tournoi n°16470 mathildedn(1360)-joel(1380):0-1
31/05/2017:Tournoi n°16598 panchoa(1610)-mokanne(1530):0-1
31/05/2017:Tournoi n°16602 ffred(1540)-vb83(1490):1-0
31/05/2017:Eq:les modestes-Les Corsaires de Lechiquier : avefenix17(2640)-scroff(2710):1-0
31/05/2017:Eq:les chics capons-Danielsen City : viceamiralsmoker(2110)-azerty1(2230):0-1
31/05/2017:Eq:CHESS MASTER-LES CHATTERBOX : c69(1430)-uji40(1680):1/2-1/2
31/05/2017:Eq:Atomic Chess-les chics capons : champignac(1820)-chessgaston(2010):0-1
31/05/2017:Coupe Niveau 5 senegaulois(2020)-slaughter(2220):0-1
31/05/2017:Coupe Niveau 5 guig47(2190)-pherce(2100):1/2-1/2
31/05/2017:Coupe Niveau 4 bigbobo(2290)-elghribi(1910):1-0
31/05/2017:Coupe Niveau 4 titeuf(2330)-elghribi(1910):1-0
31/05/2017:Défi patau(1800)-jajaf1959(1880):1/2-1/2
31/05/2017:Défi turbo(1520)-perepeinard34(1430):1-0
31/05/2017:Défi ycar(1640)-chobi(1730):1-0
31/05/2017:Défi hachevitch(1950)-jimi50(1910):1-0
31/05/2017:Pour des joueurs cool janolapin(1760)-tiounet(1650):0-1
31/05/2017:Tournoi n°16681 simer(1780)-verson(1890):0-1
31/05/2017:Eq:Vikings-Pirates du Mat : johan1977(2230)-tombelaine(2130):0-1
31/05/2017:Eq:Les Corsaires de Lechiquier-Les Quebecois : scroff(2670)-bezug66(1610):1-0
31/05/2017:Défi maximeg(1340)-kerenor(1590):0-1
31/05/2017:Défi qasar(1790)-stephen(1580):1-0
31/05/2017:Défi jipepe(1640)-kawa750(1620):0-1
31/05/2017:Défi temistocles(1490)-gambitor(1480):0-1
31/05/2017:Pour le plaisir 35 dragonchess(1690)-petitlulu64(1630):1-0
31/05/2017:Le vieux Roi 5 tiounet(1640)-qasar(1780):1-0
31/05/2017:Tournoi échelle champions gonzok67(1780)-domenico(1830):0-1
31/05/2017:Tournoi échelle division 3 loursdu07(1940)-tipix(2079):1-0
31/05/2017:Tournoi n°16682 verson(1880)-oranmore(1990):0-1
31/05/2017:Tournoi n°16652 panchoa(1580)-laurent69001(1460):1-0
31/05/2017:Tournoi n°16489 jlr(1430)-dragonchess(1690):0-1
31/05/2017:Tournoi n°16629 jlr(1510)-kiki37(1420):1-0
31/05/2017:Tournoi n°16647 amo69(1470)-magyar(1520):0-1
31/05/2017:Tournoi n°16642 simer(1750)-arno(1670):0-1
31/05/2017:Tournoi n°16633 homer31(1690)-tipix(2079):0-1
31/05/2017:Eq:Les Corsaires de Lechiquier-Mission Impossible : lechiquiere(2410)-blitzman(2670):1/2-1/2
31/05/2017:Défi pascalou50(1670)-antoinenono(1400):0-1
31/05/2017:Défi marieclaire(1320)-upsalin(1710):0-1
31/05/2017:Défi mokanne(1520)-maluel(1580):1-0
31/05/2017:Défi den(1890)-arno(1690):1-0
31/05/2017:Printemps 2017 n°1 bubblegum(1720)-gasperzero(1950):0-1
31/05/2017:Memorial Lara XXI emmanuel(1970)-tartu(1750):1-0
31/05/2017:Tournoi échelle division 1 bertelsen(1700)-barake(1630):1-0
31/05/2017:Tournoi n°16647 albescab(1630)-panchoa(1570):0-1
31/05/2017:Tournoi n°16457 coyotov(1590)-vulcain14(1510):1/2-1/2
31/05/2017:Coupe Niveau 2 elghribi(1900)-verson(1860):1/2-1/2
31/05/2017:Défi moutarde18(1890)-babie(1420):0-1
31/05/2017:Défi luz(1700)-cortaz(1800):1-0
31/05/2017:Défi wenoketo(1600)-gilberthellemans(1630):1-0
31/05/2017:Défi hebro(1840)-pgo(1740):1-0
31/05/2017:La French flmnh(1800)-moutarde18(1890):1/2-1/2
31/05/2017:Tournoi n°16290 siger72(999)-nurbs(1300):1-0
31/05/2017:Tournoi n°16538 burgman(2130)-kichmat(2000):1-0
31/05/2017:Tournoi n°16658 moloch(1930)-karim(1820):0-1
31/05/2017:Tournoi n°16587 coyotov(1590)-wenoketo(1570):1-0
31/05/2017:Eq:Les Corsaires de Lechiquier-les modestes : phgrill(2780)-izemassalas(2710):1-0
31/05/2017:Eq:Pirates du Mat-Du sucre et des vices : daiwen(2350)-laetitia67(1410):1-0
31/05/2017:Eq:LA CITE ARDENTE-Atomic Chess : quasar999(1990)-ginneh(1810):1-0
31/05/2017:Défi epervier14(1570)-upsalin(1730):0-1
31/05/2017:Défi luz(1690)-superman(1710):1-0
31/05/2017:Défi cyrano(2399)-quasar999(1990):1-0
31/05/2017:Défi pascalou50(1680)-hberlioz(1640):1-0
31/05/2017:Défi arno(1710)-superman(1820):1-0
31/05/2017:Défi echecs76(1920)-alexei31(1920):0-1
31/05/2017:Défi tonton77(1870)-regor(2080):0-1
31/05/2017:Défi morloch(1970)-hachevitch(1950):1/2-1/2
31/05/2017:Défi antoinenono(1410)-pierrejean(1390):1-0
31/05/2017:Connaissez vous la Caro ascensseur(1610)-thewolf(1540):1-0
31/05/2017:albatros 9 qasar(1760)-thewolf(1500):1-0
31/05/2017:Alekhine pour les Nuls dragon(1920)-ptitefrez(2070):0-1
31/05/2017:Tournoi n°16541 leredoutable(1750)-clemm(1670):1-0
31/05/2017:Tournoi n°16632 silveur(1930)-echecs76(1930):1/2-1/2
31/05/2017:Eq:Les Corsaires de Lechiquier-Mission Impossible : anakin(2220)-blitzman(2640):0-1
31/05/2017:Défi deric(1660)-temistocles(1490):1-0
31/05/2017:Défi cortaz(1800)-epervier(1840):0-1
31/05/2017:Défi pourquoipas(1490)-flo19(1320):1-0
31/05/2017:Défi castor(1390)-mokanne(1540):0-1
31/05/2017:Défi dan84(1490)-perepeinard34(1440):1-0
31/05/2017:Défi anglais(1610)-fisher(1600):1/2-1/2
31/05/2017:Défi cortaz(1890)-arno(1680):1-0
31/05/2017:Défi flo71(1870)-hberlioz(1640):1-0
31/05/2017:Tournoi échelle division 1 yab414(1610)-ephixe(1780):0-1
01/06/2017:Tournoi n°15867 murgu64(1949)-chomi64(2000):0-1
01/06/2017:Tournoi n°16413 sampiero2a(1430)-fasb(1199):0-1
01/06/2017:Tournoi n°16499 joel(1420)-jlr(1420):0-1
01/06/2017:Eq:les fous de bassans-LechiquierDesHurlus : leredoutable(1730)-linselleschti(1630):0-1
01/06/2017:Eq:Les Quebecois-Les diplomates : slipslapmonster(1809)-chloridrix(1550):1-0
01/06/2017:Coupe Niveau 1 choucki11(1660)-mick13(1660):1-0
01/06/2017:Défi regor(2050)-berjay(1830):1-0
01/06/2017:Rapide ryba(1600)-degun(1540):0-1
01/06/2017:Rapide zodiac(1340)-foxie519(1280):1-0
01/06/2017:Eq:les modestes-Mission Impossible : mohamedramdane(2680)-eldiablo90(2760):1/2-1/2
01/06/2017:Défi patau(1830)-daniel1(1720):1-0
01/06/2017:Tournoi n°16434 donjon(1630)-jlr(1500):1-0
01/06/2017:Tournoi n°16593 jlr(1430)-stef78800(1499):0-1
01/06/2017:Tournoi n°16448 jlr(1500)-vulcain14(1510):0-1
01/06/2017:Tournoi échelle champions dragon(1940)-patau(1820):1-0
01/06/2017:Tournoi n°16576 upsalin(1690)-ffred(1570):0-1
01/06/2017:Tournoi n°16576 upsalin(1690)-clisson44(1510):1-0
01/06/2017:Tournoi n°16534 manu32(1930)-patau(1850):1-0
01/06/2017:Tournoi n°16664 raymar(1520)-panchoa(1570):1-0
01/06/2017:Coupe Niveau 4 slaughter(2230)-senegaulois(2020):1-0
01/06/2017:Défi regis08(1920)-kleoj(2070):1-0
01/06/2017:Défi patau(1820)-elghribi(1910):0-1
01/06/2017:Défi 3biac(2520)-osteo(2420):0-1
01/06/2017:Défi lancov(1970)-hebro(1810):1-0
01/06/2017:Défi vulcain14(1510)-stephen(1560):1-0
01/06/2017:Défi chocotov(2060)-kleoj(2080):1-0
01/06/2017:Défi stephen(1570)-gonzok67(1770):0-1
01/06/2017:Défi fr7d(1550)-upsalin(1730):0-1
01/06/2017:Défi patau(1820)-poussiere(1760):1-0
01/06/2017:Défi gambitor(1500)-luciens(1330):1-0
01/06/2017:Défi luc20(1740)-patau(1820):1-0
01/06/2017:Tournoi n°16478 jlr(1430)-magyar(1480):0-1
01/06/2017:Tournoi n°16623 jlr(1500)-tiounet(1650):0-1
01/06/2017:Tournoi n°16644 ragg(1490)-wenoketo(1580):1-0
01/06/2017:Eq:les chics capons-les grenades : caspalov(2150)-upsalin(1750):1-0
01/06/2017:Eq:La Crim Team-les grenades : jvv(2800)-cibox(2580):1/2-1/2
01/06/2017:Eq:Les Seigneurs de l Atlantide-Les Corsaires de Lechiquier : tjspret(1770)-april(1980):0-1
01/06/2017:Eq:Atomic Chess-les chics capons : chessgaston(2010)-champignac(1820):1-0
01/06/2017:Coupe Niveau 1 elghribi(1900)-jlr(1490):1-0
01/06/2017:Défi antoinenono(1380)-xav(1490):1-0
01/06/2017:Défi patau(1810)-flosuper(2020):0-1
01/06/2017:Défi jenaipeurderien(1630)-tiounet(1630):1-0
01/06/2017:Défi patau(1810)-chobi(1710):1-0
01/06/2017:Défi patau(1830)-tiounet(1630):1-0
01/06/2017:un petit tour en espagne bertelsen(1720)-fly(1950):0-1
01/06/2017:allez y doucement tiounet(1650)-uliczny(2050):0-1
01/06/2017:albatros 9 lecevenol(1340)-lamagouille(1490):0-1
01/06/2017:Pour le plaisir 37 qsdmlk(1620)-turbo(1530):0-1
01/06/2017:Tournoi n°16457 dragonchess(1690)-jlr(1490):1-0
01/06/2017:Tournoi n°16518 zozo(1680)-lamagouille(1490):1-0
01/06/2017:Tournoi n°16580 coyotov(1600)-ffred(1560):1-0
01/06/2017:Eq:Les Corsaires de Lechiquier-les modestes : buats007(2670)-alekine92(2390):1-0
01/06/2017:Coupe Niveau 1 jlr(1490)-tiounet(1630):0-1
01/06/2017:Défi apocalypce(1810)-felicio(2140):0-1
01/06/2017:Défi azur50(1620)-jimi29(2030):1-0
01/06/2017:Défi malvina(1270)-zachilan(1380):0-1
01/06/2017:Défi jokotov(1860)-jpjay(1810):0-1
01/06/2017:Tournoi n°16475 albescab(1590)-jlr(1430):1-0
01/06/2017:Tournoi n°16595 mistralgagnant(1860)-qasar(1760):1-0
01/06/2017:Tournoi n°16547 hexahedron(2270)-hilts(2170):1-0
01/06/2017:Tournoi n°16520 mistralgagnant(1840)-verson(1900):0-1
01/06/2017:Tournoi n°16526 marco(1560)-mokanne(1540):1-0
01/06/2017:Tournoi n°16614 wendydydy(1640)-legionnaire(1620):1-0
01/06/2017:Tournoi n°16669 qasar(1770)-tiounet(1610):1-0
01/06/2017:Eq:tin tin tin-les chics capons : mistralgagnant(1820)-chessgaston(2030):0-1
01/06/2017:Eq:tin tin tin-Les vaillants : mistralgagnant(1840)-carottc(2169):0-1
01/06/2017:Eq:tin tin tin-Les vaillants : carottc(2169)-mistralgagnant(1840):1-0
01/06/2017:Eq:tin tin tin-Les vaillants : mistralgagnant(1860)-carottc(2380):0-1
01/06/2017:Coupe Niveau 1 gaspard83(1580)-jlr(1430):1-0
01/06/2017:Défi regor(2050)-loloth77(1830):1-0
01/06/2017:Défi lugdunum(2240)-loursdu07(1979):0-1
01/06/2017:Défi lilith(1240)-fanch2pic(1290):0-1
01/06/2017:Défi tiounet(1620)-cortaz(1900):0-1
01/06/2017:Défi jpjay(1810)-champignac(1820):1-0
01/06/2017:Défi pierrejean(1390)-antoinenono(1410):0-1
01/06/2017:Défi kawa750(1630)-fr7d(1500):1-0
01/06/2017:Connaissez vous la Caro thewolf(1540)-legrillon(1800):1-0
01/06/2017:Le vieux Roi 5 qasar(1780)-tiounet(1640):1/2-1/2
01/06/2017:Tournoi n°16658 moloch(1930)-u27940(1930):1-0
01/06/2017:Tournoi n°16498 buzz84(1510)-jlr(1440):0-1
01/06/2017:Tournoi n°16622 yann56(1580)-tiounet(1630):0-1
01/06/2017:Tournoi n°16583 1thibou(1760)-qasar(1750):1-0
01/06/2017:Défi retinolls(1850)-matsonic(1740):0-1
01/06/2017:Défi roschecx(1660)-matsonic(1710):1-0
01/06/2017:Défi gilberthellemans(1630)-deric(1640):0-1
01/06/2017:Défi coyotov(1590)-vb83(1490):1-0
01/06/2017:Défi superman(1810)-zozo(1610):1-0
01/06/2017:Défi gambitor(1510)-perepeinard34(1420):0-1
01/06/2017:thewolf 2 tiounet(1620)-titit1(1300):1-0
01/06/2017:Tournoi n°16625 juantonio(1840)-simer(1780):1-0
01/06/2017:Tournoi n°16576 coyotov(1600)-janul13(1690):1-0
01/06/2017:Tournoi n°16596 magyar(1490)-jlr(1430):1-0
01/06/2017:Tournoi n°16382 clisson44(1510)-thewolf(1520):1-0
01/06/2017:Tournoi n°16622 janul13(1700)-mayaapof(1630):1-0
01/06/2017:Tournoi n°16630 hilts(2180)-tolt(2010):1-0
01/06/2017:Tournoi n°16490 zed34(1460)-trebillig(1580):0-1
01/06/2017:Tournoi n°16561 coyotov(1590)-upsalin(1680):0-1
01/06/2017:Tournoi n°16657 kiki(1870)-verson(1840):0-1
01/06/2017:Tournoi n°16672 verson(1850)-baranowsky(1760):0-1
01/06/2017:Eq:les modestes-tin tin tin : gulliver(2220)-mohamedramdane(2710):0-1
01/06/2017:Eq:Danielsen City-Royal Kids : petitboy(2250)-azerty1(2230):1-0
01/06/2017:Coupe Niveau 1 verson(1900)-thewolf(1460):0-1
01/06/2017:Défi nono1950(1280)-kerenor(1610):0-1
01/06/2017:Défi wenoketo(1590)-azur50(1630):0-1
01/06/2017:Défi moi50(1750)-volatile(2390):0-1
01/06/2017:Défi bilitis(1850)-jpjay(1800):1-0
01/06/2017:que le meilleur gagne lamagouille(1500)-thewolf(1470):0-1
01/06/2017:ça part à l ouest ptitefrez(2090)-tartu(1740):1-0
01/06/2017:Pour le plaisir 37 thewolf(1500)-petitlulu64(1690):0-1
01/06/2017:Pour le plaisir 37 qsdmlk(1620)-petitlulu64(1690):1/2-1/2
01/06/2017:Tournoi échelle division 3 gaspard83(1610)-thewolf(1510):1-0
01/06/2017:Tournoi n°16499 bidou(1400)-katastrofic(1390):0-1
01/06/2017:Tournoi n°16630 gasperzero(2050)-hilts(2170):0-1
01/06/2017:Tournoi n°16605 angelcrab(1350)-magyar(1490):1-0
01/06/2017:Tournoi n°16660 loursdu07(2010)-hilts(2160):0-1
01/06/2017:Tournoi n°16672 leet(1710)-verson(1850):0-1
01/06/2017:Coupe Niveau 4 philkov(2190)-abc47(2060):1-0
01/06/2017:Défi woozie(2150)-chesseric(2220):1-0
01/06/2017:Défi zozo(1620)-wenoketo(1620):1-0
01/06/2017:Défi hberlioz(1620)-moutarde18(1890):1-0
01/06/2017:Défi fabio985(1910)-trueman(1780):1-0
01/06/2017:Défi titia13(1330)-pascalou50(1680):0-1
01/06/2017:Défi alexei31(1920)-roquefort(1900):0-1
01/06/2017:Tournoi n°16630 tolt(2010)-gasperzero(2050):0-1
01/06/2017:Tournoi n°16623 wenoketo(1560)-kawa750(1620):1/2-1/2
01/06/2017:Tournoi n°16569 vulcain14(1500)-janul13(1690):1-0
01/06/2017:Tournoi n°16627 legrillon(1790)-janolapin(1760):1-0
01/06/2017:Tournoi n°16318 fasb(1199)-c69(1470):1-0
01/06/2017:Tournoi n°16445 gasperzero(1880)-cuda71(1980):1-0
01/06/2017:Tournoi n°16579 ohnopleyel(1420)-magyar(1490):1-0
01/06/2017:Tournoi n°16587 coyotov(1590)-jmjustice(1580):1-0
01/06/2017:Tournoi n°16639 pgo(1800)-manulatus(1910):0-1
01/06/2017:Tournoi n°16667 kala(1780)-pionfou(1750):1-0
01/06/2017:Tournoi n°16667 kala(1780)-kawa750(1640):0-1
01/06/2017:Eq:Royal Kids-Les Rebelles : grishuk2789(2440)-tambour(1940):0-1
01/06/2017:Eq:Pirates du Mat-Les Corsaires de Lechiquier : scroff(2700)-daiwen(2310):1-0
01/06/2017:Eq:les fous de bassans-O fou d hello : albescab(1590)-yab414(1660):0-1
01/06/2017:Eq:Les Gens du Sud-Pirates du Mat : ryba(1970)-volatile(2390):0-1
01/06/2017:Défi fasb(1350)-antoinenono(1400):1-0
01/06/2017:Défi linda8a(1610)-zozo(1690):1-0
01/06/2017:Défi schnibble(2369)-carlsen10(1770):1-0
01/06/2017:Défi minon(2030)-hberlioz(1650):1-0
01/06/2017:Défi morloch(1930)-rons(2410):0-1
01/06/2017:Défi baloo(1460)-roschecx(1660):0-1
01/06/2017:Défi kaby771(2140)-volatile(2390):0-1
01/06/2017:Défi wenoketo(1610)-gobois(1730):1-0
01/06/2017:Le clan des Siciliennes fly(1960)-skalfa(1740):1-0
01/06/2017:albatros 9 ascensseur(1620)-thewolf(1500):0-1
01/06/2017:ça part à l ouest ascensseur(1600)-tartu(1740):0-1
01/06/2017:Le vieux Roi 5 tiounet(1640)-legrillon(1810):0-1
02/06/2017:Eq:Les diplomates-O fou d hello : yab414(1640)-bibisept(1890):0-1
02/06/2017:Défi caraca2(1830)-berjay(1790):0-1
02/06/2017:Défi jipepe(1640)-ecjc(1960):0-1
02/06/2017:Défi xercott(1710)-patau(1880):0-1
02/06/2017:Défi gobois(1740)-anglais(1620):1-0
02/06/2017:Rapide foxie519(1270)-pherce(1640):1/2-1/2
02/06/2017:Rapide crca(1540)-zodiac(1390):1-0
02/06/2017:Rapide moloch(1480)-foxie519(1280):1-0
02/06/2017:TournoiRebelles1A valentinov(2660)-grishuk2789(2280):1-0
02/06/2017:Tournoi n°16573 loal(1600)-chloridrix(1550):1-0
02/06/2017:Eq:O fou d hello-Les Quebecois : bmwm3(1199)-junior1966(1460):1-0
02/06/2017:Eq:Les diplomates-O fou d hello : roxane(1500)-junior1966(1430):0-1
02/06/2017:Défi morloch(1950)-breitenbach(2380):1/2-1/2
02/06/2017:Défi jimi50(1920)-hberlioz(1660):1-0
02/06/2017:Tournoi n°16590 alain64(2180)-rvsinovitch(2000):1-0
02/06/2017:Tournoi n°16572 rvsinovitch(2000)-thierry7ardeche(2030):0-1
02/06/2017:Eq:CHESS MASTER-LES CHATTERBOX : chocotov(2070)-onetwoyve(1760):1-0
02/06/2017:Coupe Niveau 1 verson(1920)-fly(2010):0-1
02/06/2017:Coupe Niveau 2 echecs76(1920)-senegaulois(2020):1-0
02/06/2017:Défi sergio69(1600)-chevalice(1590):1-0
02/06/2017:Défi calcedoine(1970)-echecs76(1910):0-1
02/06/2017:Défi wenoketo(1590)-fr7d(1530):1-0
02/06/2017:Défi castor(1360)-fr7d(1510):1-0
02/06/2017:Défi joel(1360)-pierrejean(1420):1-0
02/06/2017:Défi otrigo3(1840)-patau(1820):1-0
02/06/2017:Bg1 bububfo(1940)-zorglub42(1960):1-0
02/06/2017:Pour le plaisir 35 lecevenol(1390)-fasb(1199):0-1
02/06/2017:Pour le plaisir 35 fasb(1199)-lecevenol(1390):1-0
02/06/2017:thewolf 2 lecevenol(1360)-tiounet(1620):0-1
02/06/2017:Tournoi n°16601 pgo(1810)-lepiton(2060):0-1
02/06/2017:Tournoi n°16655 kawa750(1620)-arno(1680):0-1
02/06/2017:Tournoi n°16508 gasperzero(1920)-patau(1860):1/2-1/2
02/06/2017:Tournoi n°16667 ghostdog(1740)-kala(1780):0-1
02/06/2017:Eq:Les Corsaires de Lechiquier-Pirates du Mat : volatile(2390)-scroff(2690):1/2-1/2
02/06/2017:Eq:Les Seigneurs de l Atlantide-Danielsen City : azerty1(2230)-capitaine(2200):1-0
02/06/2017:Eq:les grenades-Pirates du Mat : ecjc(1940)-rackam(1980):0-1
02/06/2017:Défi jlgu(1630)-cortaz(1840):0-1
02/06/2017:Défi ryba(1980)-zayka(1960):1-0
02/06/2017:Défi thewolf(1440)-laurent69001(1460):1-0
02/06/2017:Défi ys07(1170)-gervaise(1060):1-0
02/06/2017:Défi temistocles(1500)-azur(1630):0-1
02/06/2017:Défi vincentcoste(1750)-cineyxp(1410):0-1
02/06/2017:Défi zozo(1610)-azur(1590):1-0
02/06/2017:Tournoi n°16504 jlr(1420)-joel(1380):1-0
02/06/2017:Tournoi n°16648 blackrider(1499)-jlr(1480):1-0
02/06/2017:Tournoi n°16669 tiounet(1610)-arno(1700):0-1
02/06/2017:Eq:Pirates du Mat-Du sucre et des vices : laetitia67(1410)-daiwen(2350):0-1
02/06/2017:Eq:tin tin tin-les chics capons : warriorette(1940)-lepich(1790):1-0
02/06/2017:Eq:tin tin tin-les chics capons : lepich(1790)-warriorette(1940):0-1
02/06/2017:Eq:Pirates du Mat-Les Seigneurs de l Atlantide : burgman(2110)-volatile(2390):0-1
02/06/2017:Eq:CHESS MASTER-LES CHATTERBOX : fafamanga(2040)-bassdark(2060):1/2-1/2
02/06/2017:Coupe Niveau 3 jmarcboury(1830)-mick13(1660):1-0
02/06/2017:Défi maluel(1550)-deric(1650):1-0
02/06/2017:Défi patau(1830)-domenico(1800):1-0
02/06/2017:Défi alain34(2150)-ryba(1950):1-0
02/06/2017:Défi antoinenono(1360)-wendydydy(1640):0-1
02/06/2017:Défi malvina(1260)-kerenor(1590):0-1
02/06/2017:Défi pgo(1770)-patau(1880):0-1
02/06/2017:Printemps 2017 n°1 bubblegum(1720)-epervier14(1550):0-1
02/06/2017:salut9 fly(2010)-tiounet(1660):1-0
02/06/2017:Tournoi échelle division 3 loal(1600)-gl1(1920):0-1
02/06/2017:Tournoi n°16690 verson(1880)-alexei31(1920):0-1
02/06/2017:Tournoi n°16657 verson(1840)-ghostdog(1750):1-0
02/06/2017:Tournoi n°16571 hinnol(1890)-mick13(1660):1-0
02/06/2017:Tournoi n°16678 tiounet(1630)-legrillon(1850):0-1
02/06/2017:Tournoi n°16657 kiki(1870)-simer(1740):0-1
02/06/2017:Eq:La Crim Team-les grenades : cibox(2580)-jvv(2800):1-0
02/06/2017:Eq:O fou d hello-les champions : ragg(1530)-pilouface(1470):0-1
02/06/2017:Eq:Les pousseur de bois-O fou d hello : kichmat(1980)-gasperzero(2030):0-1
02/06/2017:Coupe Niveau 1 loal(1600)-jlr(1430):1-0
02/06/2017:Défi rambonov(1580)-mokanne(1570):1-0
02/06/2017:Défi c69(1420)-patau(1820):0-1
02/06/2017:Défi bertelsen(1730)-hberlioz(1650):1-0
02/06/2017:Défi chobi(1710)-pierre1(1780):0-1
02/06/2017:Le vieux roi 4 pgo(1760)-legrillon(1770):1/2-1/2
02/06/2017:Tournoi échelle division 3 luxia(1929)-mayaapof(1630):1-0
02/06/2017:Tournoi n°16587 jlr(1430)-coyotov(1590):0-1
02/06/2017:Tournoi n°16587 kawa750(1610)-coyotov(1590):0-1
02/06/2017:Tournoi n°16621 angerpat(1490)-jlr(1490):1-0
02/06/2017:Tournoi n°16671 tiounet(1630)-ffred(1500):1-0
02/06/2017:Eq:LES CHATTERBOX-Les Quebecois : pionfou(1670)-fafamanga(2040):0-1
02/06/2017:Eq:Mission Impossible-O fou d hello : apage(2120)-sanvic76(1980):1-0
02/06/2017:Coupe Niveau 2 patau(1820)-jlr(1480):1-0
02/06/2017:Défi sergiodevienne(1810)-alain84(1770):0-1
02/06/2017:Défi missmich(1490)-missjo(999):1-0
02/06/2017:Défi chedru2000(2210)-flosuper(2000):1/2-1/2
02/06/2017:Défi onetwoyve(1780)-patau(1870):1-0
02/06/2017:Défi redqueen(1230)-fanch2pic(1340):0-1
02/06/2017:allez y doucement leet(1690)-dragon(1930):0-1
02/06/2017:thewolf 2 turbo(1510)-titit1(1300):1-0
02/06/2017:Tournoi échelle champions salut(1970)-domenico(1810):0-1
02/06/2017:Tournoi échelle division 2 tifointer(1920)-qasar(1770):0-1
02/06/2017:Tournoi n°16657 verson(1840)-brettsinclair(1750):1-0
02/06/2017:Tournoi n°16622 mayaapof(1630)-pilouface(1500):0-1
02/06/2017:Tournoi n°16633 mimie(1640)-homer31(1690):0-1
02/06/2017:Eq:les fous de bassans-O fou d hello : hargas(1930)-damotte(1980):1-0
02/06/2017:Eq:Les vaillants -les fous de bassans : hargas(1930)-carottc(2169):0-1
02/06/2017:Eq:LES CHATTERBOX-Les Quebecois : fafamanga(2040)-pionfou(1670):1/2-1/2
02/06/2017:Coupe Niveau 1 echecs76(1920)-jlr(1490):1-0
02/06/2017:Défi chrispga(1370)-jlcrepin(1360):0-1
02/06/2017:Défi camilg(1160)-anumisme(1340):0-1
02/06/2017:Défi jetjet91330(2210)-lens37(2230):0-1
02/06/2017:Défi hargas(1880)-ravanh(2170):0-1
02/06/2017:Défi antoinenono(1400)-julia(1350):0-1
02/06/2017:Défi ratp(1299)-jacqcrom(1430):0-1
02/06/2017:Défi superman(1710)-mayaapof(1630):1-0
02/06/2017:Défi patrick3(1720)-cortaz(1890):0-1
02/06/2017:Défi renec(1740)-pgo(1810):1/2-1/2
02/06/2017:Défi elghribi(1910)-zayka(1950):1-0
02/06/2017:Défi tranquille(2200)-morloch(1970):1-0
02/06/2017:Tournoi n°16318 bobbietje(1490)-fasb(1199):0-1
02/06/2017:Tournoi n°16660 loursdu07(2020)-thierry7ardeche(2040):0-1
02/06/2017:Tournoi n°16530 fasb(1719)-papillon22(1740):0-1
02/06/2017:Tournoi n°16561 afeyte(1700)-thierry22(1600):0-1
02/06/2017:Tournoi n°16518 bobbietje(1460)-vvvv(1680):0-1
02/06/2017:Tournoi n°16572 tolt(2000)-willkommen54(2100):1-0
02/06/2017:Coupe Niveau 3 jmarcboury(1770)-senegaulois(2020):1-0
02/06/2017:Coupe Niveau 3 senegaulois(2030)-elghribi(1940):1-0
02/06/2017:Défi joelcouturier(1200)-minon(2010):0-1
02/06/2017:Défi patau(1890)-legros(1730):1/2-1/2
02/06/2017:Défi katastrofic(1500)-baloo(1500):1-0
02/06/2017:Défi tatar(2760)-maitreabord(2790):0-1
02/06/2017:Défi missmich(1540)-anumisme(1370):1-0
02/06/2017:Défi ryba(1950)-david969(1970):0-1
02/06/2017:Défi dilou(1160)-mayreen(1009):1-0
02/06/2017:Défi swallow2(2140)-swallow(2000):0-1
02/06/2017:Défi hberlioz(1650)-wenoketo(1610):1-0
02/06/2017:Pour le plaisir 35 petitlulu64(1630)-fasb(1199):0-1
02/06/2017:Tournoi n°16505 wenoketo(1610)-jlr(1420):1-0
02/06/2017:Tournoi n°16623 tiounet(1630)-jmjustice(1590):1-0
02/06/2017:Tournoi n°16653 pgo(1800)-connecticcut(1850):0-1
02/06/2017:Eq:les modestes-Les Corsaires de Lechiquier : buats007(2610)-avefenix17(2610):1/2-1/2
02/06/2017:Eq:Les pousseur de bois-Les Gens du Sud : buggle(2020)-ryba(2000):1-0
02/06/2017:Coupe Niveau 1 loursdu07(1979)-jlr(1490):1-0
02/06/2017:Défi letsplay(1640)-hberlioz(1640):0-1
02/06/2017:Défi maluel(1580)-pierrejean(1420):1-0
02/06/2017:Défi vb83(1490)-castor(1380):0-1
02/06/2017:Défi tichaton(1470)-minon(2030):0-1
02/06/2017:Saint-Valentin 2017 n°1 buats007(2710)-jmolla(2890):1/2-1/2
02/06/2017:Bg1 crca(1930)-zorglub42(1960):0-1
02/06/2017:Le vieux roi 4 legrillon(1770)-roschecx(1690):1-0
02/06/2017:Le vieux roi 4 roschecx(1690)-ascensseur(1620):1-0
02/06/2017:Pour le plaisir 37 qsdmlk(1620)-ascensseur(1590):0-1
03/06/2017:Tournoi n°16621 bibi07(1390)-jlr(1500):1-0
03/06/2017:Tournoi n°16665 tifointer(1960)-verson(1840):0-1
03/06/2017:Eq:Les vaillants -CHESS MASTER : loulou14(1959)-galaxys7(1169):1-0
03/06/2017:Défi berjay(1830)-degun(1870):0-1
03/06/2017:Défi tichaton(1470)-homer31(1690):1-0
03/06/2017:Défi titia13(1330)-pascalou50(1680):0-1
03/06/2017:Défi fr7d(1520)-gilberthellemans(1590):0-1
03/06/2017:Défi pascalou50(1680)-missmich(1480):1-0
03/06/2017:Défi gina(1379)-anumisme(1350):0-1
03/06/2017:Défi alexei31(1920)-morloch(1970):0-1
03/06/2017:Rapide kaspouille(1760)-gl1(1820):0-1
03/06/2017:Gisèle 30 pgo(1780)-fly(2000):1-0
03/06/2017:Tournoi échelle champions chronik(2070)-patau(1820):1/2-1/2
03/06/2017:Tournoi échelle champions salut(1970)-chronik(2080):1-0
03/06/2017:Tournoi échelle division 1 yab414(1640)-legrillon(1820):0-1
03/06/2017:Tournoi n°16469 thierry7ardeche(2020)-ravanh(2200):0-1
03/06/2017:Tournoi n°16587 wenoketo(1570)-jlr(1430):1-0
03/06/2017:Tournoi n°16656 manulatus(1900)-verson(1830):1-0
03/06/2017:Tournoi n°16651 dragon(1940)-loursdu07(1849):0-1
03/06/2017:Tournoi n°16588 tiounet(1650)-legrillon(1810):0-1
03/06/2017:Tournoi n°16672 verson(1850)-pier13(1760):1-0
03/06/2017:Défi roidechecs(1220)-diagonel(1149):1-0
03/06/2017:Défi wenoketo(1610)-choucki11(1680):1-0
03/06/2017:Défi vvvv(1700)-jconetti(1740):1-0
03/06/2017:Le vieux Roi 5 ascensseur(1610)-tiounet(1640):1-0
03/06/2017:Tournoi n°16490 jlr(1430)-zed34(1460):0-1
03/06/2017:Tournoi n°16657 ghostdog(1740)-kiki(1870):1-0
03/06/2017:Coupe Niveau 3 sonfamen(1600)-echecs76(1920):0-1
03/06/2017:Défi roschecx(1660)-azur(1630):1-0
03/06/2017:Défi roidechecs(1220)-pierrejean(1420):1-0
03/06/2017:Défi tryphon(1530)-xav(1490):1-0
03/06/2017:Tournoi échelle division 1 jlr(1420)-olivyeah(1880):0-1
03/06/2017:Tournoi n°16298 mojo(1810)-deric(1680):1-0
03/06/2017:Tournoi n°16402 kiki51(1640)-mimie(1590):1/2-1/2
03/06/2017:Tournoi n°16624 francis94(1950)-feenschach(2010):0-1
03/06/2017:Tournoi n°16396 rons(2410)-jacks(2730):1/2-1/2
03/06/2017:Tournoi n°16669 arno(1690)-qasar(1770):0-1
03/06/2017:Eq:les grenades-Les Rebelles : thebigchief(2100)-valentinov(2660):0-1
03/06/2017:Eq:Les Seigneurs de l Atlantide-Les Gens du Sud : gwen(1890)-verson(1840):1-0
03/06/2017:Défi pgo(1780)-hberlioz(1650):0-1
03/06/2017:Défi wenoketo(1610)-pgo(1780):0-1
03/06/2017:Défi hberlioz(1650)-youliyouli(1780):0-1
03/06/2017:Défi pgo(1800)-campa(1690):0-1
03/06/2017:Défi moutarde18(1890)-hberlioz(1640):1-0
03/06/2017:Le clan des Siciliennes legrillon(1770)-skalfa(1740):1-0
03/06/2017:Tournoi n°16184 thewolf(1300)-supernono(1369):1-0
03/06/2017:Tournoi n°16653 karim(1810)-bira47(1810):1-0
03/06/2017:Tournoi n°16464 verson(1900)-danielski(1620):1-0
03/06/2017:Tournoi n°16661 pgo(1800)-desaintfegor(1910):0-1
03/06/2017:Eq:les modestes-Mission Impossible : izemassalas(2700)-lechiquiere(2410):1-0
03/06/2017:Eq:les modestes-Mission Impossible : lechiquiere(2410)-izemassalas(2700):0-1
03/06/2017:Défi christie(1220)-antoinenono(1390):0-1
03/06/2017:Défi wenoketo(1560)-maluel(1580):1-0
03/06/2017:Défi azur50(1630)-hberlioz(1640):1-0
03/06/2017:Memorial Lara XX kaspouille(2300)-fly(2000):1-0
03/06/2017:Gisèle 30 coxynelle(1810)-kaspouille(2300):0-1
03/06/2017:Tournoi échelle division 3 mayaapof(1630)-pionfou(1620):0-1
03/06/2017:Tournoi n°16599 mathildedn(1340)-magyar(1500):0-1
03/06/2017:Tournoi n°16620 intrigue(1740)-vvvv(1710):0-1
03/06/2017:Tournoi n°16651 lad(1900)-dragon(1940):0-1
03/06/2017:Tournoi n°16671 tartu(1690)-tiounet(1630):0-1
03/06/2017:Eq:Royal Kids-LES CHATTERBOX : pgo(1760)-hberlioz(1640):1-0
03/06/2017:Défi adeleblancsec(1250)-christie(1230):1-0
03/06/2017:Défi maluel(1580)-kawa750(1620):1-0
03/06/2017:Défi titit1(1300)-thewolf(1440):0-1
03/06/2017:Pâques laetitia67(1520)-thewolf(1520):0-1
03/06/2017:Tous avec Goering fly(2010)-titit1(1330):1-0
03/06/2017:Tous avec Goering titit1(1330)-fly(2010):0-1
03/06/2017:Pour des joueurs cool intrigue(1730)-janolapin(1760):0-1
03/06/2017:Memorial Lara XXI tartu(1750)-tiounet(1660):1/2-1/2
03/06/2017:Tournoi échelle division 3 blackrider(1709)-thewolf(1460):1-0
03/06/2017:Tournoi n°16505 jlr(1420)-janul13(1690):0-1
03/06/2017:Tournoi n°16505 jlr(1420)-loal(1600):0-1
03/06/2017:Tournoi n°16509 tartu(1730)-bnj(1740):0-1
03/06/2017:Tournoi n°16635 loal(1610)-tiounet(1660):1-0
03/06/2017:Tournoi n°16593 mayaapof(1640)-jlr(1430):1-0
03/06/2017:Tournoi n°16658 pgo(1820)-moloch(1930):0-1
03/06/2017:Tournoi n°16648 blackrider(1499)-angelcrab(1430):1-0
03/06/2017:Eq:les modestes-Les Corsaires de Lechiquier : mohamedramdane(2670)-ludovique(2640):1/2-1/2
03/06/2017:Eq:les modestes-Les Corsaires de Lechiquier : ludovique(2640)-mohamedramdane(2670):1/2-1/2
03/06/2017:Eq:Royal Kids-LES CHATTERBOX : hberlioz(1640)-pgo(1760):1-0
03/06/2017:Coupe Niveau 2 elghribi(1920)-verson(1900):1-0
03/06/2017:Coupe Niveau 1 choucki11(1680)-verson(1890):0-1
03/06/2017:Défi alain34(2160)-tiounet(1630):1-0
03/06/2017:Défi jpjay(1820)-stseb(1850):0-1
03/06/2017:Défi hberlioz(1650)-upsalin(1700):0-1
03/06/2017:Défi asvel69(1720)-roschecx(1700):0-1
03/06/2017:Défi bournivergne(2360)-deeplose(2360):1-0
03/06/2017:Défi hulk76(1270)-joel(1360):1/2-1/2
03/06/2017:Pour le plaisir 38 intrigue(1690)-tiounet(1630):1-0
03/06/2017:Pour le plaisir 38 tiounet(1630)-intrigue(1690):0-1
03/06/2017:Le vieux Roi 5 intrigue(1720)-tiounet(1640):0-1
03/06/2017:Le vieux Roi 5 tiounet(1640)-intrigue(1720):1-0
03/06/2017:thewolf 2 titit1(1300)-tiounet(1620):0-1
03/06/2017:Memorial Lara XXI tiounet(1660)-coxynelle(1900):0-1
03/06/2017:Tournoi n°16651 hackidoc(1860)-pgo(1810):1/2-1/2
03/06/2017:Tournoi n°16622 mayaapof(1630)-tiounet(1630):0-1
03/06/2017:Tournoi n°16646 verson(1860)-baranowsky(1780):0-1
03/06/2017:Tournoi n°16605 magyar(1490)-sampiero2a(1440):1-0
03/06/2017:Eq:Les Quebecois-Les diplomates : chloridrix(1550)-slipslapmonster(1809):0-1
03/06/2017:Défi stseb(1850)-bibisept(1890):1-0
03/06/2017:Défi fr7d(1450)-petitpion(1260):0-1
03/06/2017:Défi cortaz(1850)-hackidoc(1880):1/2-1/2
03/06/2017:Défi zozo(1610)-malvina(1290):1-0
03/06/2017:Memorial Lara XVIII jyf(1810)-karkaskat(2130):1/2-1/2
03/06/2017:albatros 9 intrigue(1690)-lamagouille(1490):1-0
03/06/2017:thewolf 2 tiounet(1620)-lecevenol(1360):1-0
03/06/2017:ça part à l ouest leet(1700)-ascensseur(1600):1-0
03/06/2017:Tournoi échelle division 3 emmanuel(1960)-vincent(2210):0-1
03/06/2017:Tournoi n°16657 brettsinclair(1750)-ghostdog(1750):1-0
03/06/2017:Tournoi n°16514 coyotov(1590)-patrick(1550):1-0
03/06/2017:Tournoi n°16672 simer(1750)-leet(1710):0-1
03/06/2017:Tournoi n°16689 zodiac(1750)-stef78800(1829):0-1
03/06/2017:Défi bilitis(1760)-vincentcoste(1780):1-0
03/06/2017:Défi campa(1710)-vincentcoste(1770):1-0
03/06/2017:Défi regor(2010)-david969(1970):1-0
03/06/2017:Défi tonio14(1290)-max2007(1239):0-1
03/06/2017:Défi vincentcoste(1750)-stephane300(1360):0-1
03/06/2017:Défi fisher(1590)-sergio69(1600):1-0
03/06/2017:Tournoi n°16635 katastrofic(1500)-loal(1610):0-1
03/06/2017:Tournoi n°16578 leredoutable(1750)-verson(1870):0-1
03/06/2017:Tournoi n°16592 panchoa(1600)-bobbietje(1450):1-0
03/06/2017:Tournoi n°16648 mousse22(1480)-blackrider(1499):0-1
03/06/2017:Eq:les modestes-Pirates du Mat : jetjet91330(2220)-gonca90(2430):0-1
03/06/2017:Eq:les fous de bassans-Vikings : leredoutable(1760)-moutarde18(1940):0-1
03/06/2017:Eq:O fou d hello-Les fourbes de Boitsfort : sylvainwb(1540)-yab414(1680):1-0
03/06/2017:Coupe Niveau 2 abc47(2040)-elghribi(1900):0-1
03/06/2017:Défi bassdark(2040)-calcedoine(1990):0-1
03/06/2017:Défi marieclaire(1350)-calcedoine(1970):0-1
03/06/2017:Défi seb13(1520)-laurent69001(1460):1-0
04/06/2017:Tournoi n°16204 paul2012(1550)-mimie(1570):0-1
04/06/2017:Eq:Les vaillants -Pirates du Mat : volatile(2400)-carottc(2330):0-1
04/06/2017:Défi gina(1299)-castor(1390):1-0
04/06/2017:Défi joel(1380)-hulk76(1230):0-1
04/06/2017:Défi jonclau(1160)-roger72(1410):0-1
04/06/2017:Rapide francisco63(1780)-moutarde18(1610):1-0
04/06/2017:Rapide salut(1500)-loursdu07(1599):0-1
04/06/2017:Rapide blackrider(1599)-emmanuel(1370):0-1
04/06/2017:Tournoi n°16573 magyar(1510)-loal(1600):1-0
04/06/2017:Coupe Niveau 2 choucki11(1680)-elghribi(1930):0-1
04/06/2017:Défi qsdmlk(1640)-hberlioz(1650):1-0
04/06/2017:Coupe Niveau 2 senegaulois(2020)-salut(1980):0-1
04/06/2017:Défi hargas(1890)-lancov(1980):0-1
04/06/2017:Défi bechtoune(2270)-rocketman(2040):1-0
04/06/2017:Défi bibisept(1880)-rocketman(2020):1-0
04/06/2017:Défi kawa750(1620)-cloclo(1760):1-0
04/06/2017:Défi chocotov(2030)-rocketman(2030):1-0
04/06/2017:Tournoi n°16402 mimie(1590)-petitlulu64(1630):1-0
04/06/2017:Tournoi n°16428 bilou75(1380)-lamagouille(1490):0-1
04/06/2017:Tournoi n°16693 verson(1900)-kala(1780):1-0
04/06/2017:Eq:les modestes-Les Corsaires de Lechiquier : berniz(2260)-ludovique(2670):0-1
04/06/2017:Eq:Pirates du Mat-les modestes : rackam(1980)-berniz(2230):1/2-1/2
04/06/2017:Défi mokanne(1510)-katastrofic(1450):0-1
04/06/2017:Défi gilberthellemans(1630)-fisher(1590):1-0
04/06/2017:Défi kleoj(2080)-cocodou(1940):0-1
04/06/2017:Défi fisher(1580)-pourquoipas(1500):0-1
04/06/2017:Défi zozo(1640)-anglais(1600):0-1
04/06/2017:Défi homer31(1670)-doudou(1640):1-0
04/06/2017:Défi jajaf1959(1860)-nimzoindien(1890):1-0
04/06/2017:Tournoi n°16597 pgo(1800)-bonamur(1920):0-1
04/06/2017:Tournoi n°16530 papillon22(1740)-tartu(1720):0-1
04/06/2017:Tournoi n°16637 zodiac(1730)-papillon22(1730):0-1
04/06/2017:Tournoi n°16678 verson(1870)-zodiac(1750):1-0
04/06/2017:Tournoi n°16645 plaisance(1930)-pgo(1810):1-0
04/06/2017:Tournoi n°16616 zodiac(1760)-tartu(1710):1-0
04/06/2017:Tournoi n°16669 tartu(1710)-tiounet(1610):0-1
04/06/2017:Tournoi n°16673 deric(1650)-verson(1850):0-1
04/06/2017:Tournoi n°16693 arno(1710)-kala(1780):0-1
04/06/2017:Coupe Niveau 1 jlr(1440)-mayaapof(1620):0-1
04/06/2017:Défi chevalice(1580)-thomas(1280):1-0
04/06/2017:Défi fr7d(1560)-superman(1690):0-1
04/06/2017:Défi cortaz(1890)-mauro(1760):1-0
04/06/2017:Défi hargas(1930)-bonamur(1900):1-0
04/06/2017:Défi kleoj(2070)-bibisept(1900):0-1
04/06/2017:Défi doudou(1630)-anglais(1620):1-0
04/06/2017:Défi coxynelle(1900)-chobi(1710):1-0
04/06/2017:Memorial Lara XXI bertelsen(1700)-tartu(1750):1-0
04/06/2017:Faites vos jeux karkaskat(2130)-tiounet(1640):1-0
04/06/2017:Faites vos jeux dragon(1940)-tiounet(1640):1-0
04/06/2017:Tournoi échelle division 1 bertelsen(1710)-yab414(1650):1/2-1/2
04/06/2017:Tournoi n°16620 qasar(1780)-aramis(1740):1-0
04/06/2017:Eq:Les Corsaires de Lechiquier-Les vaillants : scroff(2690)-carottc(2290):1/2-1/2
04/06/2017:Défi boxit(1910)-jpjay(1820):1-0
04/06/2017:Défi gervaise(1090)-roger72(1410):0-1
04/06/2017:Défi lugdunum(2250)-tobal(2220):0-1
04/06/2017:Défi ghostdog(1730)-arno(1690):1-0
04/06/2017:Tournoi n°16690 dragon(1940)-verson(1880):0-1
04/06/2017:Tournoi n°16577 u27940(1960)-loco11(1990):0-1
04/06/2017:Tournoi n°16613 verson(1820)-loco11(1990):0-1
04/06/2017:Tournoi n°16671 homer31(1690)-ycar(1640):1-0
04/06/2017:Tournoi n°16692 verson(1900)-simer(1790):1-0
04/06/2017:Coupe Niveau 3 verson(1850)-cebva(2030):0-1
04/06/2017:Coupe Niveau 3 legionnaire(1600)-verson(1890):0-1
04/06/2017:Défi wenoketo(1610)-fisher(1580):0-1
04/06/2017:Défi titit1(1310)-choucki11(1670):0-1
04/06/2017:Défi antoinenono(1400)-titit1(1290):0-1
04/06/2017:Défi jpjay(1820)-cortaz(1900):0-1
04/06/2017:Défi den(1930)-bmwm3(1199):0-1
04/06/2017:Défi nogean(1710)-hberlioz(1670):1-0
04/06/2017:Défi hberlioz(1650)-pgo(1730):0-1
04/06/2017:Défi ycar(1650)-kala(1780):0-1
04/06/2017:Faites vos jeux tiounet(1640)-karkaskat(2130):0-1
04/06/2017:Tournoi n°16481 jlr(1430)-loal(1590):0-1
04/06/2017:Tournoi n°16465 jlr(1490)-janul13(1700):1/2-1/2
04/06/2017:Tournoi n°16583 legrillon(1790)-1thibou(1760):0-1
04/06/2017:Tournoi n°16649 geronimo23(1479)-thewolf(1430):0-1
04/06/2017:Eq:Les Quebecois-Mission Impossible : zukchess(1610)-apage(2110):0-1
04/06/2017:Coupe Niveau 8 letyjo(2820)-maitreabord(2750):1/2-1/2
04/06/2017:Coupe Niveau 2 cebva(2030)-elghribi(1900):0-1
04/06/2017:Défi lecevenol(1380)-titit1(1320):1-0
04/06/2017:Défi elghribi(1920)-cortaz(1890):0-1
04/06/2017:Défi volatile(2410)-moi50(1780):1-0
04/06/2017:Tournoi échelle division 1 nico(1940)-bistro1(1690):1-0
04/06/2017:Tournoi n°16504 joel(1380)-mathildedn(1390):1-0
04/06/2017:Eq:Les Corsaires de Lechiquier-Vikings : april(2010)-lecavaliernoir(1410):1-0
04/06/2017:Eq:Les Corsaires de Lechiquier-Vikings : lecavaliernoir(1410)-april(2010):0-1
04/06/2017:Défi papillon22(1730)-dan84(1490):1-0
04/06/2017:Défi tartu(1690)-hberlioz(1640):1-0
04/06/2017:Défi lecavaliernoir(1410)-malvina(1270):1-0
04/06/2017:Défi elgringo(2060)-silv(2130):0-1
04/06/2017:Défi gobois(1740)-hberlioz(1640):0-1
04/06/2017:Défi wenoketo(1610)-gobois(1740):0-1
04/06/2017:Défi zachilan(1390)-anumisme(1310):0-1
04/06/2017:Tournoi n°16482 verson(1890)-yannygator(1690):1-0
04/06/2017:Tournoi n°16681 zodiac(1740)-simer(1780):1-0
04/06/2017:Eq:Pirates du Mat-Les pousseur de bois : daiwen(2310)-buggle(2040):1-0
04/06/2017:Coupe Niveau 3 yab414(1660)-elghribi(1940):0-1
04/06/2017:Coupe Niveau 1 elghribi(1920)-echecs76(1920):1-0
04/06/2017:Défi den(1920)-kleoj(2090):1-0
04/06/2017:Défi marieclaire(1360)-lecevenol(1380):0-1
04/06/2017:Défi morloch(1950)-hberlioz(1650):1-0
04/06/2017:Défi anumisme(1310)-titit1(1310):1-0
04/06/2017:Défi vvvv(1690)-baloo(1490):1-0
04/06/2017:Défi moris54(1960)-pascalou50(1610):1-0
04/06/2017:Défi marieclaire(1360)-geantvert06(1370):0-1
04/06/2017:Défi cortaz(1870)-youliyouli(1800):1-0
04/06/2017:Défi eanouis(2010)-silveur(1940):1-0
04/06/2017:Pâques lecevenol(1340)-laetitia67(1520):0-1
04/06/2017:Connaissez vous la Caro tartu(1770)-laetitia67(1520):0-1
04/06/2017:Tournoi n°16632 garlik(1960)-tifointer(1920):1-0
04/06/2017:Eq:O fou d hello-Les fourbes de Boitsfort : yab414(1680)-sylvainwb(1540):1-0
04/06/2017:Eq:Les diplomates-O fou d hello : bibisept(1890)-yab414(1640):1-0
04/06/2017:Défi joelcouturier(1160)-hulk76(1210):0-1
04/06/2017:Défi mozinor(2250)-uliczny(2040):1/2-1/2
04/06/2017:Défi tunellavage(1810)-superman(1820):0-1
04/06/2017:Défi ryba(1990)-tunellavage(1780):1-0
04/06/2017:Défi ryba(1990)-tunellavage(1780):1-0
04/06/2017:Défi alain34(2120)-lancov(2000):1-0
04/06/2017:Défi hberlioz(1650)-silveur(1910):0-1
04/06/2017:Défi ryba(1960)-tunellavage(1810):1-0
04/06/2017:Défi swallow(2000)-swallow2(2140):0-1
04/06/2017:Défi minon(2030)-hberlioz(1650):1-0
04/06/2017:Défi lancov(2010)-apocalypce(1810):0-1
04/06/2017:Défi anumisme(1310)-yann34(1380):0-1
04/06/2017:Défi pascalou50(1670)-hberlioz(1650):0-1
04/06/2017:Connaissez vous la Caro ascensseur(1610)-laetitia67(1520):1-0
04/06/2017:Memorial Lara XXI ascensseur(1580)-emmanuel(1970):0-1
05/06/2017:Eq:LES CHATTERBOX-Les Oiseaux d Amsterdam : yatman(2020)-onetwoyve(1780):1-0
05/06/2017:Défi doudou(1640)-temistocles(1490):1-0
05/06/2017:Rapide qasar(1350)-crca(1510):1/2-1/2
05/06/2017:allez y doucement ascensseur(1590)-leet(1690):0-1
05/06/2017:Défi ascensseur(1600)-wenoketo(1610):1-0
05/06/2017:Tournoi n°16651 loursdu07(1849)-hackidoc(1860):1-0
05/06/2017:Tournoi n°16518 vvvv(1680)-lamagouille(1490):1-0
05/06/2017:Tournoi n°16629 kiki37(1420)-magyar(1500):1-0
05/06/2017:Tournoi n°16665 verson(1840)-tonton77(1870):0-1
05/06/2017:Tournoi n°16698 domenico(1830)-tiounet(1630):1-0
05/06/2017:Eq:Les Gens du Sud-O fou d hello : tetene(1650)-yab414(1660):1-0
05/06/2017:Défi hberlioz(1650)-missmich(1540):0-1
05/06/2017:Défi hberlioz(1630)-pgo(1730):0-1
05/06/2017:Défi regor(2080)-kleoj(2070):1-0
05/06/2017:Défi thewolf(1440)-marieclaire(1360):1-0
05/06/2017:Défi roidechecs(1250)-paul2012(1570):0-1
05/06/2017:Défi damotte(2030)-elgringo(2020):1-0
05/06/2017:Défi cocodou(1930)-alain34(2120):1/2-1/2
05/06/2017:Défi bibi07(1390)-marieclaire(1350):1-0
05/06/2017:aquarev jojo91(1530)-aramis(1730):0-1
05/06/2017:ça part à l ouest tartu(1740)-flmnh(1780):0-1
05/06/2017:Alekhine pour les Nuls intrigue(1720)-flmnh(1780):0-1
05/06/2017:Tournoi échelle division 3 silveur(1930)-kaspadesbrik(1880):1-0
05/06/2017:Tournoi échelle champions verson(1880)-salut(1970):1-0
05/06/2017:Tournoi n°16690 alexei31(1920)-dragon(1940):0-1
05/06/2017:Tournoi n°16684 tartu(1690)-wenoketo(1610):1-0
05/06/2017:Tournoi n°16595 verson(1850)-mojo(1830):1-0
05/06/2017:Tournoi n°16629 bibi07(1390)-jlr(1490):1-0
05/06/2017:Tournoi n°16562 cyberdogbert(1170)-ralexus2008(1000):1-0
05/06/2017:Tournoi n°16644 bezug66(1610)-patrick(1580):0-1
05/06/2017:Tournoi n°16664 wenoketo(1610)-raymar(1520):0-1
05/06/2017:Tournoi n°16688 coyotov(1640)-wenoketo(1590):1-0
05/06/2017:Eq:les champions-Pirates du Mat : mahel34(1810)-daiwen(2310):0-1
05/06/2017:Eq:CHESS MASTER-LES CHATTERBOX : onetwoyve(1770)-sampiero2a(1430):0-1
05/06/2017:Coupe Niveau 2 legros(1730)-petitlulu64(1700):1-0
05/06/2017:Coupe Niveau 1 verson(1890)-tipix(1750):1-0
05/06/2017:Coupe Niveau 2 choucki11(1670)-tiounet(1640):1-0
05/06/2017:Défi garlik(1970)-morloch(1950):0-1
05/06/2017:Défi jpjay(1750)-caraca2(1840):1-0
05/06/2017:Défi damotte(2030)-intrigue(1710):1-0
05/06/2017:Défi apocalypce(1810)-cocodou(1960):1-0
05/06/2017:Défi bibisept(1900)-zayka(1960):0-1
05/06/2017:Défi tiounet(1640)-titit1(1270):1-0
05/06/2017:Pour le plaisir 38 petitlulu64(1710)-tiounet(1630):1-0
05/06/2017:aquarev ciboulette(2030)-jojo91(1530):1-0
05/06/2017:salut9 ruiz lopez intrigue(1750)-flmnh(1770):1/2-1/2
05/06/2017:thewolf 2 titit1(1300)-lecevenol(1360):0-1
05/06/2017:Pour le plaisir 37 tiounet(1660)-thewolf(1500):1-0
05/06/2017:Memorial Lara XXI ascensseur(1580)-neigemet(2300):0-1
05/06/2017:Tournoi n°16601 loloth77(1880)-lad(1900):1-0
05/06/2017:Tournoi n°16363 chomi64(1950)-moloch(1900):0-1
05/06/2017:Tournoi n°16632 garlik(1960)-silveur(1930):1-0
05/06/2017:Tournoi n°16571 verson(1880)-mick13(1660):1-0
05/06/2017:Tournoi n°16651 hackidoc(1860)-dragon(1940):1-0
05/06/2017:Tournoi n°16605 bricekiller(1480)-magyar(1500):0-1
05/06/2017:Tournoi n°16662 tiounet(1610)-cramsnellac(1800):0-1
05/06/2017:Tournoi n°16662 verson(1830)-kawa750(1630):1-0
05/06/2017:Eq:Les Corsaires de Lechiquier-Mission Impossible : blitzman(2670)-lechiquiere(2410):1/2-1/2
05/06/2017:Eq:les grenades-Les Rebelles : hogar(2800)-craghack(2390):1-0
05/06/2017:Eq:Les vaillants -les fous de bassans : carottc(2169)-hargas(1930):1-0
05/06/2017:Coupe Niveau 2 jlr(1430)-baranowsky(1820):0-1
05/06/2017:Coupe Niveau 6 djayphil(2140)-guig47(2200):1-0
05/06/2017:Défi antoinenono(1390)-anumisme(1370):1-0
05/06/2017:Défi silv(2110)-hargas(1940):1-0
05/06/2017:Défi anumisme(1370)-pitchoune50(1349):1-0
05/06/2017:Défi antoinenono(1430)-pierrejean(1370):1-0
05/06/2017:aquarev jojo91(1530)-yves1972(2020):0-1
05/06/2017:Memorial Lara XXI ascensseur(1580)-bertelsen(1700):1-0
05/06/2017:Faites vos jeux kaspouille(2330)-tiounet(1640):1-0
05/06/2017:Faites vos jeux tiounet(1640)-dragon(1940):0-1
05/06/2017:Tournoi échelle division 2 jlr(1490)-ascensseur(1600):0-1
05/06/2017:Tournoi échelle division 2 jlr(1430)-gl1(2010):0-1
05/06/2017:Tournoi n°16682 oranmore(1990)-lad(1880):1-0
05/06/2017:Tournoi n°16274 silveur(1960)-chomi64(1950):0-1
05/06/2017:Tournoi n°16571 mick13(1660)-leet(1710):0-1
05/06/2017:Tournoi n°16698 connecticcut(1830)-tiounet(1630):1-0
05/06/2017:Tournoi n°16699 coyotov(1660)-wenoketo(1590):1-0
05/06/2017:Eq:Mission Impossible-Les diplomates : lapino(2570)-eldiablo90(2750):0-1
05/06/2017:Défi anumisme(1330)-raymon(1320):1-0
05/06/2017:Défi zayka(1960)-lancov(1970):0-1
05/06/2017:Défi zozo(1690)-roschecx(1670):1-0
05/06/2017:Défi antoinenono(1390)-lecevenol(1360):0-1
05/06/2017:Défi cathy17(1030)-hberlioz(1650):0-1
05/06/2017:Défi antoinenono(1400)-titit1(1280):1-0
05/06/2017:Défi hberlioz(1630)-minon(2030):1-0
05/06/2017:Défi hachevitch(2020)-flosuper(2010):1-0
05/06/2017:Défi anumisme(1370)-jul(1299):1-0
05/06/2017:Défi hberlioz(1630)-mick(1930):0-1
05/06/2017:Le vieux Roi 5 janolapin(1800)-mathador93(1480):1-0
05/06/2017:Tournoi échelle division 2 tifointer(1930)-connecticcut(1850):1/2-1/2
05/06/2017:Tournoi n°16650 koi34(1830)-baranowsky(1780):1-0
05/06/2017:Tournoi n°16650 baranowsky(1780)-arno(1680):0-1
05/06/2017:Tournoi n°16579 jlr(1430)-joel(1370):0-1
05/06/2017:Tournoi n°16708 thierry06(1830)-verson(1890):0-1
05/06/2017:Tournoi n°16702 ghostdog(1730)-verson(1880):0-1
05/06/2017:Tournoi n°16672 leet(1710)-pier13(1760):1-0
05/06/2017:Tournoi n°16693 baranowsky(1760)-verson(1910):1/2-1/2
05/06/2017:Eq:Les Quebecois-cotenstock : hexahedron(2250)-artorg(2110):1-0
05/06/2017:Coupe Niveau 1 jlr(1410)-verson(1890):0-1
05/06/2017:Défi berjay(1810)-cocodou(1910):0-1
05/06/2017:Défi cortaz(1860)-cloclo(1760):0-1
05/06/2017:Défi tonio14(1270)-anumisme(1340):1-0
05/06/2017:Défi tonio14(1260)-katastrofic(1430):0-1
05/06/2017:Défi fisher(1590)-katastrofic(1490):1-0
05/06/2017:Défi thewolf(1440)-gervaise(1120):1-0
05/06/2017:Défi choucki11(1670)-titit1(1280):1-0
05/06/2017:Défi maximax(1040)-anumisme(1330):1-0
05/06/2017:Défi kala(1780)-jmjustice(1590):1-0
05/06/2017:Défi fr7d(1450)-geld108(1400):0-1
05/06/2017:Défi pitchoune50(1349)-pascalou50(1680):0-1
05/06/2017:Défi antoinenono(1400)-pascalou50(1670):0-1
05/06/2017:Défi hulk76(1280)-joel(1360):0-1
05/06/2017:aquarev jojo91(1530)-elfe22600(1370):0-1
05/06/2017:thewolf 2 lecevenol(1360)-titit1(1300):1-0
05/06/2017:Tournoi échelle division 2 tifointer(1920)-boisdechene(1480):1-0
05/06/2017:Tournoi échelle division 1 foxie519(1750)-legrillon(1850):0-1
05/06/2017:Tournoi n°16672 baranowsky(1760)-leet(1710):0-1
05/06/2017:Tournoi n°16688 buzz84(1510)-coyotov(1640):1-0
05/06/2017:Eq:Mission Impossible-LES CHATTERBOX : onetwoyve(1810)-fabian67(2150):0-1
05/06/2017:Eq:O fou d hello-tin tin tin : warriorette(1960)-flo71(1890):1-0
05/06/2017:Défi cortaz(1910)-kawa750(1600):1-0
05/06/2017:Défi eclectic(1600)-lancov(1960):1-0
05/06/2017:Défi hberlioz(1660)-azur50(1650):0-1
05/06/2017:Défi lecevenol(1350)-geantvert06(1370):1-0
05/06/2017:Défi azur50(1610)-pascalou50(1670):1/2-1/2
05/06/2017:Défi julia(1370)-gervaise(1110):1-0
05/06/2017:Défi zayka(1950)-jimi50(1910):1-0
05/06/2017:Défi chevalice(1600)-asvel69(1700):0-1
05/06/2017:Défi wenoketo(1600)-janul13(1730):1-0
05/06/2017:Défi tomislav(1720)-bibisept(1880):0-1
05/06/2017:Défi thewolf(1460)-fr7d(1450):1-0
05/06/2017:Défi moi50(1780)-elghribi(1920):0-1
05/06/2017:Défi titia13(1350)-angerpat(1500):0-1
05/06/2017:thewolf 2 lecevenol(1360)-turbo(1510):1-0
05/06/2017:Pour le plaisir 36 thewolf(1450)-turbo(1550):1-0
05/06/2017:Le vieux roi 3 roschecx(1680)-thewolf(1520):1-0
05/06/2017:Tournoi échelle champions johndoe(2100)-uliczny(2040):1-0
05/06/2017:Tournoi n°16614 vulcain14(1530)-wendydydy(1640):0-1
05/06/2017:Tournoi n°16492 silver(1429)-jlr(1440):1-0
05/06/2017:Tournoi n°16666 jlr(1480)-joel(1360):1-0
05/06/2017:Eq:Les Corsaires de Lechiquier-Mission Impossible : buats007(2610)-pascalj24(2100):1/2-1/2
05/06/2017:Eq:Pirates du Mat-Les Seigneurs de l Atlantide : burgman(2120)-gonca90(2430):1/2-1/2
05/06/2017:Eq:tin tin tin-Les Gens du Sud : bubbly(1260)-tetene(1640):0-1
05/06/2017:Défi pascalou50(1670)-pitchoune50(1249):1-0
05/06/2017:Défi janul13(1730)-pgo(1730):0-1
05/06/2017:Défi castor(1380)-adeleblancsec(1290):0-1
05/06/2017:Défi antoinenono(1390)-joelcouturier(1180):1-0
05/06/2017:Défi anumisme(1330)-sun67170(1200):1-0
05/06/2017:Défi turbo(1530)-katastrofic(1510):1-0
05/06/2017:Défi pierrejean(1390)-hulk76(1300):1-0
05/06/2017:Défi tiounet(1630)-janul13(1720):1/2-1/2
05/06/2017:Défi hulk76(1300)-anumisme(1380):0-1
05/06/2017:aquarev jojo91(1530)-francis94(1930):0-1
05/06/2017:Le vieux Roi 5 roschecx(1700)-tiounet(1640):1-0
05/06/2017:Memorial Lara XXI coxynelle(1900)-karkaskat(2150):0-1
05/06/2017:Tournoi n°16573 chloridrix(1550)-upsalin(1680):0-1
05/06/2017:Défi jmr(1560)-thewolf(1480):0-1
05/06/2017:Défi 3biac(2500)-moumou(2240):1-0
05/06/2017:Défi anumisme(1360)-cathy17(1030):1-0
06/06/2017:Défi hberlioz(1650)-legrillon(1850):1-0
06/06/2017:Défi anumisme(1380)-pitchoune50(1349):1-0
06/06/2017:Défi anumisme(1370)-soso69(1460):1-0
06/06/2017:Défi lecevenol(1360)-antoinenono(1400):1/2-1/2
06/06/2017:Défi cortaz(1860)-jmr(1590):1-0
06/06/2017:Défi antoinenono(1400)-anumisme(1360):0-1
06/06/2017:Défi tichaton(1490)-fatia(1199):0-1
06/06/2017:Rapide zodiac(1340)-moloch(1480):1-0
06/06/2017:Rapide blackrider(1599)-ryba(1590):0-1
06/06/2017:Rapide moloch(1450)-blackrider(1599):1-0
06/06/2017:Rapide moloch(1450)-moutarde18(1570):0-1
06/06/2017:albatros 9 sylvainwb(1540)-qasar(1760):1/2-1/2
06/06/2017:Tous avec Goering fooy33(1910)-ascensseur(1620):1-0
06/06/2017:Tournoi échelle division 2 leet(1690)-jellel67(1770):1/2-1/2
06/06/2017:Tournoi échelle division 2 qasar(1770)-jlr(1430):1-0
06/06/2017:Tournoi n°16559 ffred(1560)-anibalou(1550):1-0
06/06/2017:Eq:Les Corsaires de Lechiquier-Les diplomates : ychiduodlatour(2740)-sebga(2290):0-1
06/06/2017:Coupe Niveau 7 anderssen(2220)-didierd(2680):1-0
06/06/2017:Tournoi n°16598 panchoa(1610)-thewolf(1550):1-0
06/06/2017:Eq:LA CITE ARDENTE-les biquetoces : maxhabran(1920)-bazart(1990):0-1
06/06/2017:Le vieux roi 3 thewolf(1520)-mathador93(1480):0-1
06/06/2017:Pour le plaisir 38 tiounet(1630)-petitlulu64(1710):0-1
06/06/2017:Tournoi n°16575 manulatus(1870)-jazzzz(1800):1-0
06/06/2017:Tournoi n°16520 elgringo(2060)-hackidoc(1880):0-1
06/06/2017:Tournoi n°16692 verson(1900)-arno(1700):1-0
06/06/2017:Coupe Niveau 2 choucki11(1650)-patau(1800):0-1
06/06/2017:Défi xav(1520)-wenoketo(1590):0-1
06/06/2017:Défi dragon(1940)-patau(1820):1-0
06/06/2017:Symphonie n°1 karkaskat(2120)-tiounet(1640):1-0
06/06/2017:Pour le plaisir 37 turbo(1530)-petitlulu64(1690):0-1
06/06/2017:Alekhine pour les Nuls ascensseur(1590)-dragon(1920):0-1
06/06/2017:Tournoi n°16576 clisson44(1510)-coyotov(1600):0-1
06/06/2017:Tournoi n°16678 arno(1690)-tiounet(1630):0-1
06/06/2017:Tournoi n°16580 ffred(1560)-vb83(1480):0-1
06/06/2017:Tournoi n°16587 jlr(1430)-jmjustice(1580):0-1
06/06/2017:Tournoi n°16620 intrigue(1740)-aramis(1740):1/2-1/2
06/06/2017:Tournoi n°16693 verson(1900)-arno(1710):1-0
06/06/2017:Défi sergiodevienne(1800)-cortaz(1890):0-1
06/06/2017:Défi roger72(1400)-damotte(2020):0-1
06/06/2017:Défi roger72(1440)-bubblegum(1710):0-1
06/06/2017:Défi slaughter(2210)-patau(1830):1-0
06/06/2017:Défi degun(1870)-bilitis(1840):1/2-1/2
06/06/2017:Faites vos jeux tiounet(1640)-kaspouille(2330):0-1
06/06/2017:Tournoi échelle division 1 bertelsen(1740)-foxie519(1750):1/2-1/2
06/06/2017:Tournoi n°16637 zodiac(1730)-gonzok67(1780):0-1
06/06/2017:Tournoi n°16678 zodiac(1750)-arno(1690):0-1
06/06/2017:Tournoi n°16490 jlr(1430)-trebillig(1580):0-1
06/06/2017:Tournoi n°16694 tolt(1990)-verson(1880):1-0
06/06/2017:Tournoi n°16526 mokanne(1540)-bidou(1460):1-0
06/06/2017:Tournoi n°16682 echecs76(1920)-oranmore(1990):1-0
06/06/2017:Eq:Pirates du Mat-O fou d hello : johan1977(2160)-damotte(1970):1-0
06/06/2017:Eq:Les Corsaires de Lechiquier-Royal Kids : tambour(2220)-apollon(2760):0-1
06/06/2017:Eq:Les Corsaires de Lechiquier-Les Quebecois : bezug66(1610)-scroff(2670):0-1
06/06/2017:Coupe Niveau 6 pilinapolgar(2440)-echecs76(1910):1-0
06/06/2017:Défi kaspy(1620)-gilberthellemans(1630):1-0
06/06/2017:Défi arno(1690)-gobois(1730):1-0
06/06/2017:Défi patau(1820)-bonamur(1890):0-1
06/06/2017:Défi ryba(1960)-flosuper(2010):0-1
06/06/2017:Défi zozo(1610)-wenoketo(1610):1-0
06/06/2017:Connaissez vous la Caro laetitia67(1520)-linselleschti(1620):0-1
06/06/2017:Tournoi n°16370 mazdaroket(2030)-bulleur(2220):1/2-1/2
06/06/2017:Eq:Les Gens du Sud-Danielsen City : ypap(1950)-emmanuel69(1730):0-1
06/06/2017:Coupe Niveau 1 verson(1850)-echecs76(1910):0-1
06/06/2017:Défi ghostdog(1740)-perepeinard34(1440):1-0
06/06/2017:Défi alain34(2120)-bibisept(1880):1-0
06/06/2017:Défi alain84(1780)-pgo(1800):0-1
06/06/2017:Défi roger72(1410)-roquefort(1900):0-1
06/06/2017:Défi fr7d(1450)-malvina(1300):0-1
06/06/2017:Défi den(1880)-timeo35220(1000):1-0
06/06/2017:Défi roger72(1400)-timeo35220(1000):1-0
06/06/2017:Défi timeo35220(1000)-tropa(1240):0-1
06/06/2017:Défi azur50(1640)-wenoketo(1590):1-0
06/06/2017:Printemps 2017 n°1 petitboy(2230)-olivyeah(1940):1-0
06/06/2017:Connaissez vous la Caro linselleschti(1620)-tartu(1770):0-1
06/06/2017:TournoiRebelles1A valentinov(2660)-mehr(2510):1-0
06/06/2017:Faites vos jeux flmnh(1790)-tiounet(1640):0-1
06/06/2017:Tournoi échelle champions jajaf1959(1870)-gonzok67(1790):1-0
06/06/2017:Tournoi n°16637 gonzok67(1780)-intrigue(1730):1/2-1/2
06/06/2017:Tournoi n°16576 coyotov(1600)-upsalin(1690):1-0
06/06/2017:Tournoi n°16581 upsalin(1710)-tiounet(1670):0-1
06/06/2017:Tournoi n°16586 qasar(1750)-baranowsky(1790):1/2-1/2
06/06/2017:Tournoi n°16637 tiounet(1660)-gonzok67(1780):1-0
06/06/2017:Tournoi n°16644 wenoketo(1580)-patrick(1580):1-0
06/06/2017:Tournoi n°16646 ghostdog(1730)-intrigue(1710):0-1
06/06/2017:Tournoi n°16667 ghostdog(1740)-legros(1730):0-1
06/06/2017:Tournoi n°16695 magyar(1560)-coyotov(1650):1-0
06/06/2017:Défi hberlioz(1630)-pascalou50(1680):1-0
06/06/2017:Défi mc2108(1040)-anumisme(1360):0-1
06/06/2017:Défi tichaton(1490)-homer31(1680):0-1
06/06/2017:Défi wenoketo(1610)-pourquoipas(1520):1-0
06/06/2017:Défi hberlioz(1630)-mocraf(1650):0-1
06/06/2017:Défi apage(2100)-tranquille(2190):1-0
06/06/2017:Défi domenico(1820)-bidoche(1710):1-0
06/06/2017:Défi mocraf(1630)-temistocles(1490):1-0
06/06/2017:Défi bertelsen(1710)-zodiac(1750):1-0
06/06/2017:Défi ohnopleyel(1460)-timeo35220(1000):1-0
06/06/2017:Le vieux Roi 5 janolapin(1800)-ascensseur(1610):1-0
06/06/2017:Memorial Lara XXI bertelsen(1700)-karkaskat(2150):0-1
06/06/2017:Memorial Lara XXI coxynelle(1900)-tiounet(1660):1-0
06/06/2017:Memorial Lara XXI tartu(1750)-bertelsen(1700):1/2-1/2
06/06/2017:Tournoi n°16423 mazdaroket(2040)-chess287(2170):1-0
06/06/2017:Tournoi n°16391 flo71(1840)-chomi64(1950):0-1
06/06/2017:Tournoi n°16610 roxane(1510)-mandrak(1600):0-1
06/06/2017:Tournoi n°16671 ffred(1500)-homer31(1690):0-1
06/06/2017:Eq:Les Gens du Sud-O fou d hello : olivyeah(1900)-dragon(1940):1-0
06/06/2017:Coupe Niveau 1 intrigue(1730)-qasar(1780):0-1
06/06/2017:Défi fasb(1199)-schnibble(2369):0-1
06/06/2017:Défi lecevenol(1360)-anumisme(1360):0-1
06/06/2017:Défi youliyouli(1790)-chloridrix(1550):0-1
06/06/2017:Défi ericb(1930)-carlsen10(1340):1/2-1/2
06/06/2017:Défi mozinor(2300)-garlik(1970):1-0
06/06/2017:Défi loursdu07(1699)-amo69(1470):1-0
06/06/2017:Défi jpjay(1810)-pionroi(1809):0-1
06/06/2017:Défi hberlioz(1640)-maskali(1780):0-1
06/06/2017:Défi laurent69001(1440)-timeo35220(1000):1-0
06/06/2017:Défi anumisme(1380)-titit1(1270):0-1
06/06/2017:Gisèle 30 coxynelle(1810)-dragon(1930):1-0
06/06/2017:Alekhine pour les Nuls ptitefrez(2070)-intrigue(1720):1-0
06/06/2017:Faites vos jeux leet(1720)-intrigue(1700):1-0
06/06/2017:Tournoi échelle élite danton68(1960)-hilts(2180):1-0
06/06/2017:Tournoi n°16447 tartu(1770)-danielski(1610):1/2-1/2
06/06/2017:Tournoi n°16576 janul13(1690)-upsalin(1690):1-0
06/06/2017:Tournoi n°16501 bricekiller(1440)-wenoketo(1590):0-1
06/06/2017:Tournoi n°16569 upsalin(1690)-janul13(1700):0-1
06/06/2017:Défi papymiche(1720)-superman(1720):1-0
06/06/2017:Défi christie(1210)-titit1(1320):1-0
06/06/2017:Défi christie(1220)-antoinenono(1390):1-0
06/06/2017:Défi uji40(1660)-hberlioz(1650):0-1
06/06/2017:Défi papymiche(1720)-claudus(1720):0-1
06/06/2017:Défi sergiodevienne(1800)-pionroi(1809):0-1
06/06/2017:Défi fanch2pic(1340)-timeo35220(1000):1-0
06/06/2017:albatros 9 lamagouille(1490)-intrigue(1690):0-1
06/06/2017:Pour le plaisir 38 pascalou50(1680)-petitlulu64(1710):1-0
06/06/2017:Pour le plaisir 36 petitlulu64(1670)-thewolf(1450):1-0
06/06/2017:Faites vos jeux karkaskat(2130)-flmnh(1790):1-0
06/06/2017:Tournoi échelle champions domenico(1810)-thierry21(1570):0-1
06/06/2017:Tournoi échelle division 2 gl1(1990)-tifointer(1960):1-0
06/06/2017:Tournoi n°16447 danielski(1610)-leet(1720):1/2-1/2
06/06/2017:Tournoi n°16599 bibi07(1390)-mathildedn(1340):0-1
06/06/2017:Tournoi n°16501 coyotov(1590)-bricekiller(1440):0-1
06/06/2017:Tournoi n°16579 joel(1370)-ohnopleyel(1420):1-0
06/06/2017:Tournoi n°16621 waltermelonman(1420)-angerpat(1490):0-1
06/06/2017:Tournoi n°16464 leredoutable(1760)-danielski(1620):1/2-1/2
06/06/2017:Tournoi n°16559 anibalou(1550)-raymar(1520):0-1
06/06/2017:Tournoi n°16612 qasar(1760)-xercott(1730):1-0
06/06/2017:Tournoi n°16666 joel(1370)-sampiero2a(1400):1-0
06/06/2017:Tournoi n°16698 simer(1770)-connecticcut(1830):0-1
06/06/2017:Eq:les grenades-Pirates du Mat : gonca90(2500)-caspalov(2180):1-0
06/06/2017:Eq:Les Quebecois-Mission Impossible : mayaapof(1660)-joel(1350):1-0
06/06/2017:Eq:Les Corsaires de Lechiquier-Les Quebecois : chloridrix(1560)-ludovique(2630):0-1
06/06/2017:Coupe Niveau 1 fly(1970)-qasar(1379):1-0
06/06/2017:Défi ghostdog(1700)-matsonic(1700):0-1
06/06/2017:Défi pheno(1600)-bubblegum(1720):1-0
06/06/2017:Défi marieclaire(1350)-joelcouturier(1170):0-1
06/06/2017:Défi kawa750(1600)-wenoketo(1610):1-0
06/06/2017:Défi gina(1299)-adeleblancsec(1290):0-1
06/06/2017:Défi timeo35220(1000)-vic8t(2040):0-1
06/06/2017:Défi bubblegum(1740)-timeo35220(1000):1-0
06/06/2017:Défi hberlioz(1650)-bertelsen(1740):0-1
06/06/2017:TournoiRebelles1B fredelebouric12(2520)-paulcaresse(2470):1/2-1/2
06/06/2017:Pour des joueurs cool petitlulu64(1680)-janolapin(1760):0-1
07/06/2017:Tournoi n°16666 sampiero2a(1400)-jlr(1470):0-1
07/06/2017:Eq:les chics capons-Les Quebecois : hub(1820)-fredelebouric12(2520):0-1
07/06/2017:Eq:Les Seigneurs de l Atlantide-Danielsen City : chronik(2080)-n0rpak(2040):1-0
07/06/2017:Défi anibalou(1530)-gognol(1950):0-1
07/06/2017:Défi anumisme(1330)-bastet(1000):1-0
07/06/2017:Défi flosuper(2020)-micmoun(1990):0-1
07/06/2017:Défi gina(1290)-tichaton(1480):0-1
07/06/2017:Rapide crca(1540)-moloch(1419):1-0
07/06/2017:Rapide cricri57(1450)-blackrider(1599):1-0
07/06/2017:Rapide ryba(1600)-cricri57(1430):1-0
07/06/2017:Rapide degun(1520)-zodiac(1360):1-0
07/06/2017:Rapide zodiac(1360)-djayphil(1540):0-1
07/06/2017:Tournoi n°16287 selmoun(1480)-bobbietje(1490):0-1
07/06/2017:Eq:les grenades-Les pousseur de bois : pilinapolgar(2510)-craghack(2450):1-0
07/06/2017:Défi e2e4(2070)-burgman(2130):0-1
07/06/2017:Défi phalanx(1849)-bastet(1000):1-0
07/06/2017:Tournoi n°16651 dragon(1940)-pgo(1810):0-1
07/06/2017:Tournoi n°16623 kawa750(1620)-jlr(1500):1-0
07/06/2017:Tournoi n°16690 dragon(1940)-tifointer(1960):0-1
07/06/2017:Tournoi n°16592 vvvv(1690)-louis67(1560):1-0
07/06/2017:Tournoi n°16648 bibi07(1380)-blackrider(1499):0-1
07/06/2017:Tournoi n°16698 tiounet(1630)-simer(1770):1-0
07/06/2017:Eq:tin tin tin-LES CHATTERBOX : domisol(1520)-bistro1(1690):1-0
07/06/2017:Eq:Les Quebecois-cotenstock : chloridrix(1560)-jimi50(1910):1/2-1/2
07/06/2017:Coupe Niveau 3 fly(1910)-patau(1770):1-0
07/06/2017:Défi tousostade(1520)-mokanne(1510):1-0
07/06/2017:Défi jpjay(1820)-boxit(1910):0-1
07/06/2017:Défi azur50(1620)-lecouz(1610):1-0
07/06/2017:Défi jmr(1600)-tryphon(1580):0-1
07/06/2017:Défi encore1fois(1900)-jpjay(1820):1-0
07/06/2017:Défi tinenfant(1830)-miti59760(2110):0-1
07/06/2017:Connaissez vous la Caro ascensseur(1610)-legrillon(1800):0-1
07/06/2017:Tous avec Goering fly(2010)-fooy33(1910):0-1
07/06/2017:Tournoi n°16539 mequinho(1810)-qasar(1740):1-0
07/06/2017:Tournoi n°16555 breitenbach(2350)-mancini(2420):0-1
07/06/2017:Tournoi n°16556 bidoche(1730)-aramis(1730):1-0
07/06/2017:Tournoi n°16687 zozo(1600)-mokanne(1560):1-0
07/06/2017:Défi chance2000(1660)-doudou(1630):1-0
07/06/2017:Défi mokanne(1510)-defre(1790):0-1
07/06/2017:Défi tifointer(1910)-bmwm3(1199):1-0
07/06/2017:Défi mayaapof(1640)-pourquoipas(1500):1-0
07/06/2017:Défi reemyyy(1550)-upsalin(1710):0-1
07/06/2017:Défi cramsnellac(1790)-patau(1880):0-1
07/06/2017:Défi zayka(1960)-chocotov(2060):1/2-1/2
07/06/2017:Défi epervier14(1520)-pourquoipas(1490):1-0
07/06/2017:Défi minon(2030)-joelcouturier(1170):1-0
07/06/2017:Défi timeo35220(1000)-steflam(1510):0-1
07/06/2017:ça part à l ouest qasar(1730)-ascensseur(1600):1/2-1/2
07/06/2017:Alekhine pour les Nuls ascensseur(1590)-tiounet(1660):0-1
07/06/2017:Memorial Lara XXI karkaskat(2150)-coxynelle(1900):0-1
07/06/2017:Tournoi n°16654 redqueen(1230)-thomas(1270):0-1
07/06/2017:Tournoi n°16559 anibalou(1550)-vb83(1470):0-1
07/06/2017:Tournoi n°16665 karim(1820)-fredbauduret(1850):0-1
07/06/2017:Eq:tin tin tin-Les vaillants : galaxyj5(1549)-loulou14(1939):0-1
07/06/2017:Coupe Niveau 2 n0rpak(2040)-patau(1830):1-0
07/06/2017:Défi degun(1890)-hberlioz(1620):1-0
07/06/2017:Défi patau(1820)-daniel1(1710):1-0
07/06/2017:Défi oswaldo(1950)-apocalypce(1810):0-1
07/06/2017:Défi damotte(2040)-moi50(1740):1-0
07/06/2017:Défi encore1fois(1950)-berjay(1820):1-0
07/06/2017:Défi redqueen(1230)-fanch2pic(1360):0-1
07/06/2017:Le vieux Roi 5 intrigue(1720)-qasar(1780):1-0
07/06/2017:Faites vos jeux kaspouille(2330)-karkaskat(2130):1-0
07/06/2017:Tournoi n°16580 yab414(1660)-coyotov(1600):0-1
07/06/2017:Tournoi n°16681 verson(1880)-tinenfant(1810):1-0
07/06/2017:Tournoi n°16708 baranowsky(1770)-thierry06(1800):1-0
07/06/2017:Tournoi n°16650 hinnol(1860)-arno(1680):1-0
07/06/2017:Tournoi n°16678 verson(1850)-arno(1690):1-0
07/06/2017:Tournoi n°16580 nogean(1680)-ffred(1560):0-1
07/06/2017:Tournoi n°16588 kiki(1840)-gonzok67(1800):1-0
07/06/2017:Défi lad(1890)-patau(1860):0-1
07/06/2017:Défi alain84(1780)-retinolls(1870):1-0
07/06/2017:Défi leredoutable(1740)-patau(1830):0-1
07/06/2017:Défi lad(1910)-patau(1880):1-0
07/06/2017:Défi patau(1880)-lad(1910):1/2-1/2
07/06/2017:Défi xxxx(1099)-tichaton(1490):1-0
07/06/2017:Alekhine pour les Nuls kaspouille(2300)-ptitefrez(2070):1-0
07/06/2017:Symphonie n°1 tiounet(1640)-karkaskat(2120):0-1
07/06/2017:Tournoi n°16708 arno(1700)-thierry06(1830):0-1
07/06/2017:Tournoi n°16670 patau(1850)-verson(1890):0-1
07/06/2017:Eq:Danielsen City-Royal Kids : n0rpak(2040)-pgo(1800):1-0
07/06/2017:Eq:Les Gens du Sud-les grenades : verson(1820)-ecjc(1940):1-0
07/06/2017:Coupe Niveau 1 verson(1860)-qasar(1740):1-0
07/06/2017:Défi deeplose(2340)-oscar(2330):0-1
07/06/2017:Défi albescab(1620)-pgo(1810):1-0
07/06/2017:Défi zayka(1940)-alexei31(1920):0-1
07/06/2017:Défi jlouism(1550)-upsalin(1730):1-0
07/06/2017:Défi skalfa(1750)-patau(1830):1-0
07/06/2017:Défi cineyxp(1410)-marieclaire(1360):1-0
07/06/2017:Défi patau(1880)-lad(1900):1-0
07/06/2017:Défi angerpat(1500)-azur50(1620):1-0
07/06/2017:Défi chevalice(1570)-thomas(1280):1-0
07/06/2017:Défi fanch2pic(1360)-redqueen(1230):0-1
07/06/2017:atteindrelessommets skalfa(1740)-crca(1920):0-1
07/06/2017:Tournoi n°16658 u27940(1930)-pgo(1820):1-0
07/06/2017:Tournoi n°16708 arno(1700)-verson(1890):0-1
07/06/2017:Tournoi n°16531 tiounet(1680)-thewolf(1460):1-0
07/06/2017:Tournoi n°16469 willkommen54(2070)-mazdaroket(2040):1/2-1/2
07/06/2017:Tournoi n°16559 janul13(1690)-anibalou(1550):1-0
07/06/2017:Eq:Les Seigneurs de l Atlantide-Danielsen City : n0rpak(2040)-chronik(2080):0-1
07/06/2017:Eq:CHESS MASTER-LES CHATTERBOX : sampiero2a(1430)-onetwoyve(1770):0-1
07/06/2017:Coupe Niveau 5 grouik(2330)-slaughter(2230):1/2-1/2
07/06/2017:Coupe Niveau 1 thewolf(1460)-simm(1809):0-1
07/06/2017:Défi gina(1379)-pierrejean(1410):1/2-1/2
07/06/2017:Défi thewolf(1440)-lecevenol(1370):1-0
07/06/2017:Défi pitchoune50(1499)-gervaise(1090):0-1
07/06/2017:Défi katastrofic(1450)-aigle12(1430):1-0
07/06/2017:Défi chevalice(1580)-cortaz(1870):0-1
07/06/2017:Défi pitchoune50(1499)-mayaapof(1630):0-1
07/06/2017:Défi phalanx(1849)-lug(1380):1-0
07/06/2017:Défi lilith(1230)-123classe(1000):1-0
07/06/2017:ça part à l ouest flmnh(1780)-leet(1700):1-0
07/06/2017:Le vieux Roi 5 thewolf(1480)-tiounet(1640):0-1
07/06/2017:Le vieux Roi 5 intrigue(1720)-thewolf(1480):1-0
07/06/2017:Tournoi échelle champions pgo(1770)-chronik(2090):1/2-1/2
07/06/2017:Tournoi n°16630 nicodemouscron(2110)-gasperzero(2050):1-0
07/06/2017:Tournoi n°16547 hilts(2170)-thierry7ardeche(2010):1-0
07/06/2017:Tournoi n°16550 panchoa(1570)-thewolf(1510):0-1
07/06/2017:Eq:Pirates du Mat-Les pousseur de bois : buggle(2040)-daiwen(2310):0-1
07/06/2017:Eq:Les Quebecois-Les Gens du Sud : verson(1840)-carlsen10(1400):1-0
07/06/2017:Défi janolapin(1840)-carlsen10(1719):1-0
07/06/2017:Défi antoinenono(1410)-anumisme(1370):1-0
07/06/2017:Défi jlgu(1640)-superman(1809):1-0
07/06/2017:Défi lecevenol(1390)-antoinenono(1400):0-1
07/06/2017:Défi antoinenono(1410)-anumisme(1380):0-1
07/06/2017:Défi flosuper(2000)-hargas(1930):0-1
07/06/2017:Défi bastet(1000)-quentaro(1210):1-0
07/06/2017:Défi chaloupe(2500)-carlsen10(1350):1-0
07/06/2017:Défi pascalou50(1670)-pitchoune50(1229):1-0
07/06/2017:Défi anumisme(1370)-timeo35220(1000):1-0
07/06/2017:Alekhine pour les Nuls intrigue(1720)-dragon(1920):1-0
07/06/2017:Tournoi échelle division 1 bistro1(1700)-legrillon(1800):1/2-1/2
07/06/2017:Tournoi n°16437 jlr(1490)-bmwm3(1199):1-0
07/06/2017:Tournoi n°16409 fasb(1199)-jlr(1460):0-1
07/06/2017:Tournoi n°16652 laurent69001(1460)-mathador93(1480):1-0
07/06/2017:Tournoi n°16690 tifointer(1950)-alexei31(1920):0-1
07/06/2017:Tournoi n°16318 vulcain14(1490)-fasb(1199):1-0
07/06/2017:Tournoi n°16454 galaxyj5(1599)-jlr(1500):0-1
07/06/2017:Tournoi n°16680 legrillon(1850)-leet(1710):0-1
07/06/2017:Tournoi n°16680 leet(1710)-zodiac(1740):0-1
07/06/2017:Tournoi n°16674 phlox(1550)-fasb(1460):1-0
07/06/2017:Tournoi n°16674 panchoa(1580)-fasb(1460):1-0
07/06/2017:Tournoi n°16674 fasb(1460)-marco(1590):0-1
07/06/2017:Tournoi n°16674 fasb(1460)-upsalin(1700):0-1
07/06/2017:Tournoi n°16522 thewolf(1530)-fasb(1519):1-0
07/06/2017:Tournoi n°16550 thewolf(1510)-fasb(1619):1-0
07/06/2017:Tournoi n°16550 fasb(1619)-upsalin(1690):0-1
07/06/2017:Tournoi n°16610 mokanne(1530)-janul13(1690):1/2-1/2
07/06/2017:Tournoi n°16614 timeck(1650)-legionnaire(1620):1/2-1/2
07/06/2017:Tournoi n°16629 kiki37(1420)-fasb(1390):1-0
07/06/2017:Tournoi n°16629 fasb(1390)-magyar(1510):0-1
07/06/2017:Tournoi n°16629 fasb(1390)-bibi07(1350):0-1
07/06/2017:Tournoi n°16629 jlr(1490)-fasb(1390):1-0
07/06/2017:Tournoi n°16428 fasb(1400)-thewolf(1500):0-1
07/06/2017:Tournoi n°16428 fasb(1400)-bilou75(1370):0-1
07/06/2017:Tournoi n°16428 lamagouille(1510)-fasb(1400):1-0
07/06/2017:Tournoi n°16666 fasb(1450)-joel(1360):0-1
07/06/2017:Tournoi n°16666 sampiero2a(1400)-fasb(1450):1-0
07/06/2017:Tournoi n°16666 fasb(1450)-jlr(1470):0-1
07/06/2017:Tournoi n°16687 galaxys7(1439)-vvvv(1660):0-1
07/06/2017:Tournoi n°16687 galaxys7(1439)-mimie(1660):0-1
07/06/2017:Tournoi n°16687 zozo(1610)-galaxys7(1439):1-0
07/06/2017:Tournoi n°16687 mokanne(1550)-galaxys7(1439):1-0
07/06/2017:Eq:Pirates du Mat-les biquetoces : adrian(2390)-volatile(2440):1/2-1/2
07/06/2017:Eq:Les vaillants -Les Quebecois : loulou14(1889)-fasb(1199):1-0
07/06/2017:Eq:Les vaillants -Les Quebecois : fasb(1199)-loulou14(1889):0-1
07/06/2017:Eq:O fou d hello-Les Quebecois : junior1966(1460)-bmwm3(1199):1-0
07/06/2017:Eq:tin tin tin-Les Quebecois : galaxyj5(1599)-carlsen10(1760):0-1
07/06/2017:Eq:tin tin tin-Les Quebecois : carlsen10(1760)-galaxyj5(1599):1-0
07/06/2017:Eq:tin tin tin-Danielsen City : galaxyj5(1549)-eanouis(2030):0-1
07/06/2017:Eq:tin tin tin-Danielsen City : eanouis(2030)-galaxyj5(1549):1-0
07/06/2017:Eq:Les vaillants -CHESS MASTER : galaxys7(1169)-loulou14(1959):0-1
07/06/2017:Eq:Les Corsaires de Lechiquier-Pirates du Mat : scroff(2690)-volatile(2390):1-0
07/06/2017:Eq:tin tin tin-LES CHATTERBOX : galaxyj5(1299)-hberlioz(1640):0-1
07/06/2017:Eq:tin tin tin-LES CHATTERBOX : hberlioz(1640)-galaxyj5(1299):1-0
07/06/2017:Eq:Les Quebecois-Les diplomates : bmwm3(1350)-roxane(1500):0-1
07/06/2017:Eq:Les Quebecois-Les diplomates : roxane(1500)-bmwm3(1350):1-0
07/06/2017:Eq:Les Quebecois-Les diplomates : fasb(1330)-mc2108(1020):0-1
07/06/2017:Eq:Les Quebecois-Les diplomates : mc2108(1020)-fasb(1330):1-0
07/06/2017:Eq:O fou d hello-tin tin tin : yab414(1640)-bb7553(1700):0-1
07/06/2017:Eq:CHESS MASTER-LES CHATTERBOX : galaxys7(1359)-bistro1(1720):0-1
07/06/2017:Eq:CHESS MASTER-LES CHATTERBOX : bistro1(1720)-galaxys7(1359):1-0
07/06/2017:Eq:Les Quebecois-Les Gens du Sud : fasb(1460)-emmanuel69(1770):0-1
07/06/2017:Eq:Les Quebecois-Les Gens du Sud : emmanuel69(1770)-fasb(1460):1-0
07/06/2017:Coupe Niveau 2 verson(1880)-sylvainwb(1530):1-0
07/06/2017:Défi mozinor(2250)-midas(1810):1-0
07/06/2017:Défi bmwm3(1199)-malvina(1300):0-1
07/06/2017:Défi fasb(1350)-anumisme(1330):0-1
07/06/2017:Défi fasb(1199)-mayaapof(1680):0-1
07/06/2017:Défi felin(1820)-fasb(1199):1-0
07/06/2017:Défi fasb(1199)-leya(1790):0-1
07/06/2017:Défi fasb(1199)-pierrejean(1370):0-1
07/06/2017:Défi anumisme(1330)-fasb(1350):1-0
07/06/2017:Défi fasb(1199)-champignac(1780):1/2-1/2
07/06/2017:Défi galaxys7(1169)-koi34(1810):0-1
07/06/2017:Défi tinenfant(1800)-galaxys7(1169):1-0
07/06/2017:Défi leya(1780)-galaxys7(1169):1-0
07/06/2017:Défi minon(2010)-hberlioz(1640):1-0
07/06/2017:Défi pgo(1770)-cortaz(1910):1-0
07/06/2017:Défi berjay(1810)-ecjc(1970):0-1
07/06/2017:Défi patau(1880)-nico(1930):0-1
07/06/2017:Défi anumisme(1370)-bmwm3(1199):1-0
07/06/2017:Défi pascalou50(1630)-fasb(1330):1-0
07/06/2017:Défi morloch(1950)-swallow(2010):1-0
07/06/2017:Défi jyf(1820)-galaxyj5(1599):1-0
07/06/2017:Défi gina(1290)-vb83(1510):0-1
07/06/2017:Défi midas(1800)-bmwm3(1199):1-0
07/06/2017:Défi galaxys7(1069)-antoinenono(1360):0-1
07/06/2017:Défi pascalou50(1680)-hinnol(1890):0-1
07/06/2017:Défi galaxys7(1169)-midas(1770):0-1
07/06/2017:Défi gobois(1740)-janul13(1730):0-1
07/06/2017:Défi galaxys7(1169)-epervier14(1560):0-1
07/06/2017:Défi galaxys7(1089)-marieclaire(1340):0-1
07/06/2017:Défi tonio14(1290)-galaxys7(1089):1-0
07/06/2017:Défi choderlos69(1250)-pascalou50(1640):0-1
07/06/2017:Défi zayka(1950)-echecs76(1920):1-0
07/06/2017:Défi anglais(1620)-pgo(1800):0-1
07/06/2017:Défi choderlos69(1240)-minon(2010):0-1
07/06/2017:Défi champignac(1820)-galaxyj5(1280):1-0
07/06/2017:Défi galaxys7(1439)-champignac(1820):0-1
07/06/2017:Défi antoinenono(1410)-pascalou50(1670):0-1
07/06/2017:Défi arno(1710)-cortaz(1890):1-0
07/06/2017:Défi fasb(1480)-antoinenono(1430):0-1
07/06/2017:Défi xxxx(1099)-tichaton(1490):1-0
07/06/2017:Défi tichaton(1490)-xxxx(1099):0-1
07/06/2017:Pour le plaisir 35 fasb(1199)-petitlulu64(1630):0-1
07/06/2017:Pour le plaisir 35 thewolf(1560)-fasb(1199):1-0
07/06/2017:Pour le plaisir 35 fasb(1199)-thewolf(1560):0-1
07/06/2017:Connaissez vous la Caro linselleschti(1620)-galaxyj5(1599):1-0
07/06/2017:Connaissez vous la Caro galaxyj5(1599)-linselleschti(1620):0-1
07/06/2017:Connaissez vous la Caro galaxyj5(1599)-legrillon(1800):0-1
07/06/2017:Connaissez vous la Caro legrillon(1800)-galaxyj5(1599):1-0
07/06/2017:Connaissez vous la Caro galaxyj5(1599)-tartu(1770):0-1
07/06/2017:Connaissez vous la Caro tartu(1770)-galaxyj5(1599):1-0
07/06/2017:Connaissez vous la Caro laetitia67(1520)-galaxyj5(1599):1-0
07/06/2017:Le clan des Siciliennes 2 galaxyj5(1549)-tiounet(1690):0-1
07/06/2017:Mario et Luigi 42 angelcrab(1350)-galaxys7(1049):1-0
07/06/2017:Mario et Luigi 42 bmwm3(1350)-angelcrab(1350):0-1
07/06/2017:Mario et Luigi 42 galaxys7(1049)-thewolf(1500):0-1
07/06/2017:Mario et Luigi 42 thewolf(1500)-bmwm3(1350):1-0
07/06/2017:thewolf 2 thewolf(1460)-bmwm3(1350):1-0
07/06/2017:thewolf 2 bmwm3(1350)-thewolf(1460):0-1
07/06/2017:thewolf 2 bmwm3(1350)-turbo(1510):0-1
07/06/2017:thewolf 2 turbo(1510)-bmwm3(1350):1-0
07/06/2017:thewolf 2 bmwm3(1350)-lecevenol(1360):0-1
07/06/2017:thewolf 2 lecevenol(1360)-bmwm3(1350):1-0
07/06/2017:thewolf 2 bmwm3(1350)-mathador93(1480):0-1
07/06/2017:thewolf 2 mathador93(1480)-bmwm3(1350):1-0
07/06/2017:thewolf 2 bmwm3(1350)-tiounet(1620):0-1
07/06/2017:thewolf 2 tiounet(1620)-bmwm3(1350):1-0
07/06/2017:Pour le plaisir 38 petitlulu64(1710)-fasb(1480):1-0
07/06/2017:Pour le plaisir 38 fasb(1480)-petitlulu64(1710):0-1
07/06/2017:Pour le plaisir 38 fasb(1480)-pascalou50(1680):0-1
07/06/2017:Pour le plaisir 38 pascalou50(1680)-fasb(1480):1-0
07/06/2017:Pour le plaisir 38 fasb(1480)-tiounet(1630):0-1
07/06/2017:Pour le plaisir 38 tiounet(1630)-fasb(1480):1-0
07/06/2017:Pour le plaisir 38 fasb(1480)-thewolf(1460):0-1
07/06/2017:Pour le plaisir 38 thewolf(1460)-fasb(1480):1-0
07/06/2017:Pour le plaisir 38 fasb(1480)-intrigue(1690):0-1
07/06/2017:Pour le plaisir 38 intrigue(1690)-fasb(1480):1-0
07/06/2017:Pour le plaisir 38 tiounet(1630)-pascalou50(1680):1-0
07/06/2017:La Défense Grunfeld maskali(1780)-galaxyj5(1370):1-0
07/06/2017:La Défense Grunfeld galaxyj5(1370)-maskali(1780):0-1
07/06/2017:La Défense Grunfeld karkaskat(2120)-galaxyj5(1370):1-0
07/06/2017:La Défense Grunfeld galaxyj5(1370)-karkaskat(2120):0-1
07/06/2017:La Défense Grunfeld galaxyj5(1370)-fly(2000):0-1
08/06/2017:Tournoi n°16684 wenoketo(1620)-pilouface(1520):1/2-1/2
08/06/2017:Tournoi n°16622 janul13(1700)-yann56(1580):0-1
08/06/2017:Tournoi n°16639 garlik(1970)-manulatus(1910):1-0
08/06/2017:Tournoi n°16691 jdb(1940)-desaintfegor(1910):1-0
08/06/2017:Coupe Niveau 1 tiounet(1630)-echecs76(1910):0-1
08/06/2017:Coupe Niveau 2 echecs76(1930)-choucki11(1680):1-0
08/06/2017:Défi tiounet(1650)-cortaz(1920):0-1
08/06/2017:Défi gilberthellemans(1630)-doudou(1630):0-1
08/06/2017:Défi pitchoune50(1090)-pascalou50(1670):0-1
08/06/2017:Rapide salut(1530)-crca(1510):0-1
08/06/2017:Rapide zodiac(1360)-qasar(1340):0-1
08/06/2017:Rapide qasar(1350)-bertelsen(1320):1-0
08/06/2017:Pour le plaisir 38 pascalou50(1680)-tiounet(1630):1/2-1/2
08/06/2017:Tournoi n°16482 leredoutable(1750)-yannygator(1690):0-1
08/06/2017:Eq:les champions-Echecs et mat : mih(2010)-anthonydu90(1860):1-0
08/06/2017:Eq:les champions-Echecs et mat : anthonydu90(1860)-mih(2010):0-1
08/06/2017:Défi arno(1660)-fabio985(1900):1-0
08/06/2017:Défi rocketman(2030)-aragorn86(1970):1-0
08/06/2017:Défi regor(2080)-morloch(1970):1-0
08/06/2017:Défi gervaise(1110)-anumisme(1410):0-1
08/06/2017:Tournoi n°16579 katastrofic(1490)-jlr(1430):1-0
08/06/2017:atteindrelessommets crca(1920)-fly(1970):1/2-1/2
08/06/2017:Tournoi n°16681 kawa750(1610)-verson(1880):1-0
08/06/2017:Tournoi n°16567 maxhabran(1870)-echecs76(1910):0-1
08/06/2017:Tournoi n°16610 mandrak(1600)-mokanne(1530):1-0
08/06/2017:Tournoi n°16686 bibi07(1420)-jlr(1460):1-0
08/06/2017:Eq:tin tin tin-les chics capons : domisol(1530)-choucki11(1650):0-1
08/06/2017:Eq:Pirates du Mat-Les Seigneurs de l Atlantide : volatile(2390)-burgman(2110):1-0
08/06/2017:Défi surcouf(1760)-vb83(1480):1-0
08/06/2017:Défi bubbly(1240)-roidechecs(1210):0-1
08/06/2017:Défi asvel69(1720)-donjon(1660):1-0
08/06/2017:Défi bibisept(1890)-hberlioz(1630):1-0
08/06/2017:Défi nebadonnien(1499)-zozo(1600):0-1
08/06/2017:Défi timeo35220(1000)-zozo(1600):0-1
08/06/2017:Tournoi échelle division 1 nico(1940)-bertelsen(1700):1-0
08/06/2017:Tournoi échelle champions verson(1890)-ptitefrez(2030):0-1
08/06/2017:Tournoi n°16571 mick13(1660)-qasar(1780):0-1
08/06/2017:Tournoi n°16356 emmanuel(1950)-chomi64(1950):1-0
08/06/2017:Tournoi n°16649 coppola(1450)-geronimo23(1479):1-0
08/06/2017:Tournoi n°16612 xercott(1710)-arno(1680):1/2-1/2
08/06/2017:Eq:tin tin tin-Danielsen City : gulliver(2140)-azerty1(2260):0-1
08/06/2017:Eq:tin tin tin-Danielsen City : azerty1(2260)-gulliver(2140):1-0
08/06/2017:Eq:Les Seigneurs de l Atlantide-Les Gens du Sud : verson(1840)-gwen(1890):0-1
08/06/2017:Coupe Niveau 1 qasar(1800)-jlr(1490):1-0
08/06/2017:Défi alain84(1780)-youliyouli(1790):0-1
08/06/2017:Défi azur50(1670)-hberlioz(1620):1-0
08/06/2017:Défi lens37(2260)-3biac(2520):0-1
08/06/2017:Défi bilou75(1370)-marieclaire(1350):1-0
08/06/2017:Défi superman(1790)-fisher(1590):1-0
08/06/2017:Défi mozinor(2280)-ecjc(1950):1-0
08/06/2017:Défi maximax(1040)-roidechecs(1250):1-0
08/06/2017:Défi pionroi(1809)-regor(2070):1-0
08/06/2017:Défi regor(2080)-tonton77(1870):1-0
08/06/2017:Tournoi n°16682 echecs76(1920)-verson(1890):1-0
08/06/2017:Tournoi n°16425 mayaapof(1680)-jlr(1500):1-0
08/06/2017:Tournoi n°16674 marco(1590)-panchoa(1570):0-1
08/06/2017:Tournoi n°16686 c69(1410)-jlr(1370):0-1
08/06/2017:Tournoi n°16648 mousse22(1480)-jlr(1500):1-0
08/06/2017:Tournoi n°16671 homer31(1690)-tartu(1690):1/2-1/2
08/06/2017:Eq:Vikings-Les Seigneurs de l Atlantide : mazdaroket(2060)-morice(1850):1-0
08/06/2017:Eq:Les pousseur de bois-Les Rebelles : pilinapolgar(2490)-mehr(2500):1/2-1/2
08/06/2017:Coupe Niveau 4 guig47(2200)-kowabounga(1760):1-0
08/06/2017:Défi regor(2080)-zayka(1960):1-0
08/06/2017:Défi bidoche(1730)-kowabounga(1730):0-1
08/06/2017:Défi diagonel(1149)-vincentcoste(1770):0-1
08/06/2017:Défi domenico(1820)-patau(1860):0-1
08/06/2017:Défi jimi50(1910)-aragorn86(1890):1-0
08/06/2017:Défi timeo35220(1000)-lilith(1230):0-1
08/06/2017:Défi timeo35220(1000)-deric(1660):0-1
08/06/2017:Memorial Lara XXI karkaskat(2150)-bertelsen(1700):1-0
08/06/2017:Tournoi n°16578 leredoutable(1750)-arno(1750):0-1
08/06/2017:Tournoi n°16662 tiounet(1610)-xercott(1710):1-0
08/06/2017:Eq:Les Corsaires de Lechiquier-Mission Impossible : pascalj24(2100)-buats007(2610):0-1
08/06/2017:Eq:Les Corsaires de Lechiquier-Les Seigneurs de l Atlantide : pgcd(2230)-apollon(2760):0-1
08/06/2017:Eq:Les vaillants -Vikings : tombelaine(2190)-piteau(2740):0-1
08/06/2017:Coupe Niveau 1 elghribi(1900)-qasar(1760):1-0
08/06/2017:Coupe Niveau 2 verson(1900)-elghribi(1960):1/2-1/2
08/06/2017:Défi lancov(1960)-kleoj(2100):1-0
08/06/2017:Défi bonamur(1940)-patau(1820):0-1
08/06/2017:Défi anumisme(1370)-camilg(1150):1-0
08/06/2017:Défi maluel(1580)-malvina(1270):1-0
08/06/2017:Défi bilitis(1850)-elghribi(1900):1/2-1/2
08/06/2017:Défi tiounet(1650)-patau(1790):0-1
08/06/2017:Le vieux Roi 5 qasar(1780)-intrigue(1720):1-0
08/06/2017:Tournoi n°16293 hargas(1890)-loco11(1990):0-1
08/06/2017:Tournoi n°16700 arno(1720)-verson(1890):1-0
08/06/2017:Tournoi n°16704 kala(1790)-arno(1710):0-1
08/06/2017:Tournoi n°16669 arno(1700)-tartu(1710):1-0
08/06/2017:Tournoi n°16669 tartu(1690)-qasar(1770):0-1
08/06/2017:Tournoi n°16672 pier13(1760)-baranowsky(1760):0-1
08/06/2017:Eq:Mission Impossible-O fou d hello : flo71(1870)-maya24(1590):1-0
08/06/2017:Coupe Niveau 2 qasar(1780)-elghribi(1920):0-1
08/06/2017:Défi hberlioz(1660)-patau(1820):0-1
08/06/2017:Défi anumisme(1370)-redqueen(1230):0-1
08/06/2017:Défi redqueen(1220)-thomas(1280):1-0
08/06/2017:Alekhine pour les Nuls dragon(1920)-ascensseur(1590):1-0
08/06/2017:Faites vos jeux intrigue(1700)-kaspouille(2330):0-1
08/06/2017:Symphonie n°1 tiounet(1640)-ascensseur(1590):1-0
08/06/2017:Symphonie n°1 ascensseur(1590)-tiounet(1640):0-1
08/06/2017:Symphonie n°1 ascensseur(1590)-tartu(1650):0-1
08/06/2017:Tournoi n°16610 mandrak(1600)-artistepeintre(1500):0-1
08/06/2017:Tournoi n°16644 patrick(1580)-pilouface(1530):1-0
08/06/2017:Eq:Les Corsaires de Lechiquier-Les Seigneurs de l Atlantide : scroff(2690)-capitaine(2200):1-0
08/06/2017:Coupe Niveau 4 verson(1900)-hilts(2170):0-1
08/06/2017:Coupe Niveau 1 noelleon(1809)-verson(1920):1-0
08/06/2017:Défi kaspi007(2100)-chedru2000(2200):0-1
08/06/2017:Défi patrick(1580)-temistocles(1480):1-0
08/06/2017:atteindrelessommets pgo(1700)-crca(1920):1-0
08/06/2017:salut8 intrigue(1720)-sylvainwb(1550):1-0
08/06/2017:Tournoi n°16246 chomi64(1940)-fly(1920):0-1
08/06/2017:Tournoi n°16608 legrillon(1820)-moloch(1950):1-0
08/06/2017:Tournoi n°16675 jlr(1460)-marieclaire(1360):1-0
08/06/2017:Tournoi n°16641 janul13(1690)-marco(1540):1-0
08/06/2017:Tournoi n°16670 karim(1810)-verson(1850):0-1
08/06/2017:Tournoi n°16672 baranowsky(1760)-simer(1750):1-0
08/06/2017:Eq:Pirates du Mat-O fou d hello : volatile(2430)-terrifiant(2200):1/2-1/2
08/06/2017:Eq:les chics capons-Les Quebecois : fcbbryan(2060)-carlsen10(1740):0-1
08/06/2017:Eq:Vikings-LechiquierDesHurlus : moutarde18(1910)-gortax(2260):0-1
08/06/2017:Eq:les chics capons-Danielsen City : azerty1(2230)-viceamiralsmoker(2110):1-0
08/06/2017:Eq:Les vaillants -Vikings : moutarde18(1890)-ben18(2210):1/2-1/2
08/06/2017:Eq:Danielsen City-O fou d hello : azerty1(2270)-flo71(1850):1-0
08/06/2017:Coupe Niveau 3 verson(1840)-mayaapof(1710):1-0
08/06/2017:Défi trueman(1810)-cortaz(1890):0-1
08/06/2017:Défi bricekiller(1380)-carlsen10(1910):1/2-1/2
08/06/2017:Défi morloch(1920)-encore1fois(1890):1-0
08/06/2017:Défi cortaz(1890)-papymiche(1740):1-0
08/06/2017:Défi thewolf(1440)-anumisme(1380):0-1
08/06/2017:Défi jeanphy(1060)-mc2108(1020):1-0
08/06/2017:Défi patrick(1550)-upsalin(1720):1-0
08/06/2017:Défi pgo(1730)-wenoketo(1610):1-0
08/06/2017:Défi regor(2030)-hargas(1930):1/2-1/2
08/06/2017:TournoiRebelles1B fredelebouric12(2520)-akkullanu(2620):1/2-1/2
08/06/2017:Alekhine pour les Nuls ptitefrez(2070)-ascensseur(1590):1-0
08/06/2017:Tournoi n°16397 rvsinovitch(1980)-philippehat(2090):0-1
08/06/2017:Tournoi n°16645 verson(1860)-manulatus(1910):1/2-1/2
08/06/2017:Tournoi n°16694 tifointer(1930)-tolt(1990):0-1
08/06/2017:Tournoi n°16569 qsdmlk(1640)-upsalin(1670):0-1
08/06/2017:Tournoi n°16645 manulatus(1910)-pgo(1810):0-1
08/06/2017:Tournoi n°16671 ycar(1640)-tiounet(1630):1-0
08/06/2017:Défi tonio14(1260)-anumisme(1350):1-0
08/06/2017:Défi apocalypce(1790)-bibisept(1890):1-0
08/06/2017:Défi toutattente(1330)-anumisme(1370):1-0
08/06/2017:Défi defre(1749)-jmr(1550):1-0
08/06/2017:Défi regor(2080)-tunellavage(1810):1-0
08/06/2017:Défi tunellavage(1810)-regor(2080):0-1
08/06/2017:Défi pgo(1730)-hberlioz(1630):1/2-1/2
08/06/2017:Défi thierry06(1830)-eclectic(1700):0-1
08/06/2017:Défi pahlo111(1580)-tiounet(1630):1-0
08/06/2017:Défi morloch(1950)-damotte(2040):1/2-1/2
08/06/2017:Défi swallow(1990)-tunellavage(1810):1-0
08/06/2017:Défi flosuper(2010)-roka(2450):0-1
08/06/2017:Alekhine pour les Nuls ascensseur(1590)-flmnh(1780):0-1
08/06/2017:Memorial Lara XXI ascensseur(1580)-tartu(1750):0-1
08/06/2017:Eq:Les Gens du Sud-O fou d hello : dragonchess(1710)-emmanuel69(1730):0-1
08/06/2017:Eq:Les pousseur de bois-O fou d hello : legrillon(1810)-yab414(1650):1/2-1/2
08/06/2017:Eq:Royal Kids-La Crim Team : mekal(2030)-pgo(1800):1-0
08/06/2017:Coupe Niveau 2 mayaapof(1690)-dragonchess(1670):1-0
08/06/2017:Coupe Niveau 2 dragon(1940)-qasar(1770):1-0
08/06/2017:Défi miramar(1510)-blagnaque(1640):1-0
08/06/2017:Défi jyf(1830)-dragonchess(1650):0-1
08/06/2017:Défi morloch(1960)-den(1890):1-0
08/06/2017:Défi flo71(1880)-morloch(1970):1-0
08/06/2017:thewolf 2 bigoudi(1050)-ascensseur(1620):0-1
08/06/2017:Tournoi échelle élite nicodemouscron(2120)-johndoe(2100):1-0
09/06/2017:Rapide bertelsen(1320)-foxie519(1290):0-1
09/06/2017:Tournoi n°16492 katastrofic(1390)-silver(1429):1-0
09/06/2017:Eq:Royal Kids-Mission Impossible : maya24(1630)-skalfa(1740):0-1
09/06/2017:Tournoi n°16310 babie(1859)-philou(1870):0-1
09/06/2017:Tournoi n°16665 verson(1840)-karim(1810):1-0
09/06/2017:Défi anglais(1620)-doudou(1640):0-1
09/06/2017:Tournoi n°16561 thierry22(1600)-upsalin(1680):0-1
09/06/2017:Eq:Les Gens du Sud-Atomic Chess : gerard54(1810)-verson(1880):1-0
09/06/2017:Eq:Les vaillants -les modestes : alekine92(2390)-pournelle(2750):0-1
09/06/2017:Eq:Les Seigneurs de l Atlantide-Danielsen City : hilts(2170)-burgman(2120):1/2-1/2
09/06/2017:Défi hberlioz(1650)-janolapin(1820):0-1
09/06/2017:Défi lugdunum(2260)-morphy(2129):0-1
09/06/2017:Défi zozo(1620)-vb83(1480):0-1
09/06/2017:Défi hberlioz(1630)-minon(2010):0-1
09/06/2017:Tournoi échelle élite hilts(2150)-nicodemouscron(2120):1-0
09/06/2017:Tournoi échelle champions patau(1810)-domenico(1840):1/2-1/2
09/06/2017:Tournoi échelle division 2 bububfo(2000)-gaspard83(1660):1-0
09/06/2017:Tournoi n°16579 jlr(1430)-ohnopleyel(1420):1-0
09/06/2017:Tournoi n°16670 patau(1850)-karim(1820):1-0
09/06/2017:Tournoi n°16688 upsalin(1710)-coyotov(1640):0-1
09/06/2017:Défi chermet(2070)-halhor(2250):1/2-1/2
09/06/2017:Défi flosuper(2010)-ravanh(2210):0-1
09/06/2017:Défi youliyouli(1790)-doupol(1810):1-0
09/06/2017:Défi flosuper(2000)-patau(1790):1-0
09/06/2017:Tournoi n°16541 mistralgagnant(1860)-kala(1850):1/2-1/2
09/06/2017:Tournoi n°16577 manulatus(1870)-patau(1820):1-0
09/06/2017:Tournoi n°16692 arno(1700)-simer(1780):1-0
09/06/2017:Tournoi n°16718 bibi07(1450)-cicerond(1420):1-0
09/06/2017:Eq:tin tin tin-Les vaillants : carottc(2380)-mistralgagnant(1860):1-0
09/06/2017:Eq:O fou d hello-les chics capons : pasdechance(1430)-tichaton(1480):0-1
09/06/2017:Coupe Niveau 1 patau(1880)-echecs76(1920):0-1
09/06/2017:Coupe Niveau 1 thewolf(1460)-tipix(1819):1-0
09/06/2017:Coupe Niveau 3 elghribi(1960)-legros(1780):1-0
09/06/2017:Défi danton68(2000)-patau(1820):1-0
09/06/2017:Défi chedru2000(2220)-lugdunum(2250):0-1
09/06/2017:Défi patau(1830)-pgo(1810):0-1
09/06/2017:Défi sorim(2090)-patau(1850):1-0
09/06/2017:Défi jm29(1600)-cineyxp(1410):0-1
09/06/2017:Défi qsdmlk(1620)-patau(1840):0-1
09/06/2017:Tournoi échelle division 3 vincent(2230)-tipix(1859):1/2-1/2
09/06/2017:Tournoi échelle champions pgo(1750)-verson(1940):0-1
09/06/2017:Tournoi n°16682 karim(1820)-verson(1880):0-1
09/06/2017:Tournoi n°16716 noelleon(1809)-tiounet(1660):1-0
09/06/2017:Coupe Niveau 1 qasar(1740)-mayaapof(1630):1-0
09/06/2017:Défi manulatus(1820)-patau(1790):1/2-1/2
09/06/2017:Défi rocketman(2020)-caramanlisse(2050):1-0
09/06/2017:Défi aigle12(1460)-castor(1370):1-0
09/06/2017:Défi gonzok67(1770)-patau(1830):0-1
09/06/2017:Défi domenico(1810)-patau(1830):1-0
09/06/2017:Défi geld108(1410)-baloo(1490):1-0
09/06/2017:Défi hberlioz(1620)-bertelsen(1740):1-0
09/06/2017:Gisèle 30 fly(2000)-coxynelle(1810):1-0
09/06/2017:thewolf 2 bigoudi(1050)-tiounet(1620):0-1
09/06/2017:Tournoi n°16708 verson(1920)-baranowsky(1770):1-0
09/06/2017:Tournoi n°16675 jlr(1450)-ffred(1490):0-1
09/06/2017:Tournoi n°16704 kala(1790)-qasar(1770):1-0
09/06/2017:Tournoi n°16702 verson(1890)-qasar(1770):1-0
09/06/2017:Tournoi n°16581 upsalin(1710)-mokanne(1520):1/2-1/2
09/06/2017:Tournoi n°16593 jlr(1430)-katastrofic(1490):0-1
09/06/2017:Tournoi n°16610 mokanne(1530)-artistepeintre(1500):1-0
09/06/2017:Tournoi n°16671 ycar(1640)-ffred(1500):1-0
09/06/2017:Tournoi n°16648 jlr(1480)-angelcrab(1430):0-1
09/06/2017:Eq:Danielsen City-Royal Kids : e2e4(2070)-regor(2040):1-0
09/06/2017:Eq:Les Quebecois-Mission Impossible : joel(1350)-mayaapof(1660):0-1
09/06/2017:Coupe Niveau 4 slaughter(2230)-mudra(2170):0-1
09/06/2017:Coupe Niveau 1 elghribi(1910)-patau(1840):0-1
09/06/2017:Coupe Niveau 1 simm(1809)-jlr(1410):1-0
09/06/2017:Défi jlgu(1680)-cramsnellac(1780):0-1
09/06/2017:Défi tbeau44(1640)-gilberthellemans(1630):0-1
09/06/2017:Défi comte57(1550)-alain69009(1550):0-1
09/06/2017:Défi steflam(1490)-tonio14(1310):0-1
09/06/2017:Défi kerenor(1590)-nono1950(1300):1-0
09/06/2017:Défi pierrejean(1390)-joel(1360):1-0
09/06/2017:Pour des joueurs cool tiounet(1650)-janolapin(1760):0-1
09/06/2017:thewolf 2 bigoudi(1050)-turbo(1510):0-1
09/06/2017:thewolf 2 ascensseur(1620)-bigoudi(1050):1-0
09/06/2017:Tournoi échelle champions domenico(1830)-dragon(1930):0-1
09/06/2017:Tournoi n°16636 verson(1830)-legrillon(1800):1-0
09/06/2017:Tournoi n°16514 artistepeintre(1510)-patrick(1550):0-1
09/06/2017:Tournoi n°16659 clisson44(1530)-speedyfil(1530):1-0
09/06/2017:Tournoi n°16693 kala(1780)-baranowsky(1760):1-0
09/06/2017:Eq:les grenades-Les Corsaires de Lechiquier : april(1980)-thebigchief(2100):0-1
09/06/2017:Eq:tin tin tin-LES CHATTERBOX : patau(1850)-warriorette(1970):1-0
09/06/2017:Eq:Les Corsaires de Lechiquier-Les Quebecois : ludovique(2630)-chloridrix(1560):1-0
09/06/2017:Coupe Niveau 10 agashak(2880)-conde7(2850):1/2-1/2
09/06/2017:Coupe Niveau 1 jlr(1430)-intrigue(1730):1-0
09/06/2017:Coupe Niveau 1 jlr(1370)-verson(1920):0-1
09/06/2017:Défi eagleatlas(2160)-bechtoune(2270):0-1
09/06/2017:Défi kaspadesbrik(1820)-zayka(1960):1/2-1/2
09/06/2017:Défi anumisme(1350)-maximax(1110):0-1
09/06/2017:Défi papymiche(1730)-hberlioz(1650):1/2-1/2
09/06/2017:Défi campa(1730)-jpjay(1810):1-0
09/06/2017:Défi morloch(1930)-caraca2(1870):1-0
09/06/2017:Défi redqueen(1250)-anumisme(1400):1-0
09/06/2017:Faites vos jeux karkaskat(2130)-kaspouille(2330):0-1
09/06/2017:Faites vos jeux kaspouille(2330)-dragon(1940):1-0
09/06/2017:Faites vos jeux dragon(1940)-kaspouille(2330):0-1
09/06/2017:Tournoi échelle champions pgo(1800)-salut(1970):1-0
09/06/2017:Tournoi n°16655 lychar(1790)-arno(1680):0-1
09/06/2017:Tournoi n°16673 legrillon(1840)-verson(1850):0-1
09/06/2017:Tournoi n°16707 moloch(1940)-dragon(1930):0-1
09/06/2017:Tournoi n°16416 mokanne(1560)-thewolf(1540):1-0
09/06/2017:Tournoi n°16627 janolapin(1760)-arno(1650):1-0
09/06/2017:Tournoi n°16654 siger72(1210)-camilg(1150):0-1
09/06/2017:Tournoi n°16654 ratp(1179)-siger72(1210):0-1
09/06/2017:Tournoi n°16654 ratp(1179)-camilg(1150):0-1
09/06/2017:Eq:Pirates du Mat-Les Rebelles : gonca90(2500)-mehr(2510):1/2-1/2
09/06/2017:Coupe Niveau 8 paulcaresse(2470)-conde7(2850):1/2-1/2
09/06/2017:Coupe Niveau 2 simm(1879)-verson(1930):0-1
09/06/2017:Défi kerenor(1610)-augustin(1320):1-0
09/06/2017:Défi lens37(2260)-burgman(2100):1/2-1/2
09/06/2017:Défi hberlioz(1630)-cathy17(1030):1-0
09/06/2017:Défi dragonchess(1650)-midas(1810):1-0
09/06/2017:Défi petitpion(1260)-anumisme(1360):1-0
09/06/2017:Défi cramsnellac(1790)-jaco(1880):1-0
09/06/2017:Défi pgo(1730)-brams83(1659):1-0
09/06/2017:Défi janul13(1710)-pierrejean(1410):1-0
09/06/2017:Défi hberlioz(1620)-tartu(1650):0-1
09/06/2017:Défi pitchoune50(1169)-anumisme(1400):0-1
09/06/2017:Memorial Lara XX fly(2000)-dragon(1930):1-0
09/06/2017:Faites vos jeux tiounet(1640)-intrigue(1700):1-0
09/06/2017:Faites vos jeux intrigue(1700)-tiounet(1640):1/2-1/2
09/06/2017:Symphonie n°1 tiounet(1640)-tartu(1650):0-1
09/06/2017:Symphonie n°1 tartu(1650)-tiounet(1640):0-1
09/06/2017:Tournoi n°16654 camilg(1150)-thomas(1270):0-1
09/06/2017:Tournoi n°16654 thomas(1270)-siger72(1210):1-0
09/06/2017:Tournoi n°16686 c69(1410)-bibi07(1420):0-1
09/06/2017:Tournoi n°16654 thomas(1270)-ratp(1179):1-0
09/06/2017:Tournoi n°16722 homer31(1710)-arno(1720):1/2-1/2
09/06/2017:Eq:Les Gens du Sud-Mission Impossible : emmanuel69(1730)-maya24(1640):1-0
09/06/2017:Eq:Pirates du Mat-Les Seigneurs de l Atlantide : viviane86(2090)-mazdaroket(2040):0-1
09/06/2017:Eq:Pirates du Mat-Les Seigneurs de l Atlantide : mazdaroket(2040)-viviane86(2090):1-0
09/06/2017:Eq:Les pousseur de bois-les grenades : legrillon(1830)-ecjc(1940):1-0
09/06/2017:Eq:O fou d hello-les chics capons : tichaton(1480)-pasdechance(1430):1-0
09/06/2017:Défi asburon(1820)-hargas(1950):1-0
09/06/2017:Défi legionnaire(1640)-patau(1830):1/2-1/2
09/06/2017:Défi ghostdog(1740)-toucco67(1710):0-1
09/06/2017:Défi hberlioz(1630)-jimi50(1910):1/2-1/2
09/06/2017:Défi antoinenono(1420)-wendydydy(1640):0-1
09/06/2017:Défi hberlioz(1630)-azur50(1670):0-1
09/06/2017:Défi hberlioz(1620)-moutarde18(1890):0-1
09/06/2017:Défi temistocles(1430)-janul13(1720):0-1
09/06/2017:Le vieux roi 4 legrillon(1770)-tartu(1790):0-1
10/06/2017:Tournoi n°16690 tifointer(1960)-verson(1880):1/2-1/2
10/06/2017:Tournoi n°16492 jlr(1430)-angerpat(1490):0-1
10/06/2017:Tournoi n°16705 angelcrab(1480)-bibi07(1420):1-0
10/06/2017:Tournoi n°16704 leredoutable(1690)-kala(1790):0-1
10/06/2017:Eq:Danielsen City-Royal Kids : regor(2040)-e2e4(2070):1-0
10/06/2017:Eq:Les Seigneurs de l Atlantide-Danielsen City : burgman(2120)-hilts(2170):0-1
10/06/2017:Coupe Niveau 1 elghribi(1930)-jlr(1380):1-0
10/06/2017:Défi nicodemouscron(2100)-e2e4(2070):1-0
10/06/2017:Défi roidechecs(1200)-fly(2000):0-1
10/06/2017:Défi thewolf(1440)-comte57(1540):1-0
10/06/2017:Défi jmr(1600)-wenoketo(1570):0-1
10/06/2017:Défi lancov(1990)-bassdark(2040):1-0
10/06/2017:Rapide loursdu07(1599)-crca(1540):1-0
10/06/2017:Rapide alexander2700(1599)-moloch(1450):0-1
10/06/2017:JeanMichoule crca(1940)-karkaskat(2100):0-1
10/06/2017:Défi moi50(1770)-volatile(2410):0-1
10/06/2017:Défi pierrejean(1410)-jonclau(1170):1-0
10/06/2017:Défi roger72(1410)-gui004(999):1-0
10/06/2017:Défi deeplose(2360)-breitenbach(2350):0-1
10/06/2017:Défi jonclau(1170)-gervaise(1100):0-1
10/06/2017:Eq:Mission Impossible-O fou d hello : maya24(1590)-flo71(1870):0-1
10/06/2017:Tournoi n°16608 karim(1840)-pgo(1800):0-1
10/06/2017:Tournoi n°16428 thewolf(1460)-lamagouille(1480):0-1
10/06/2017:Tournoi n°16691 desaintfegor(1910)-manulatus(1930):0-1
10/06/2017:Tournoi n°16694 verson(1890)-tifointer(1940):1-0
10/06/2017:Tournoi n°16707 desaintfegor(1920)-verson(1920):0-1
10/06/2017:Défi marieclaire(1320)-jmr(1580):0-1
10/06/2017:Défi silv(2160)-ryba(1960):0-1
10/06/2017:Défi ratp(1299)-thewolf(1480):0-1
10/06/2017:Printemps 2017 n°1 olivyeah(1940)-vickort(2410):0-1
10/06/2017:Pour des joueurs cool janolapin(1760)-bertelsen(1700):1-0
10/06/2017:Le vieux Roi 5 tiounet(1640)-thewolf(1480):1-0
10/06/2017:Tournoi n°16689 zodiac(1740)-verson(1890):1-0
10/06/2017:Tournoi n°16689 papillon22(1740)-zodiac(1740):1-0
10/06/2017:Tournoi n°16287 mimie(1560)-gasperzero(1889):1/2-1/2
10/06/2017:Tournoi n°16569 vulcain14(1500)-upsalin(1670):1/2-1/2
10/06/2017:Tournoi n°16684 pilouface(1520)-upsalin(1700):1-0
10/06/2017:Tournoi n°16337 gonca90(2430)-echephile2(2360):1-0
10/06/2017:Tournoi n°16706 zodiac(1730)-verson(1900):0-1
10/06/2017:Tournoi n°16687 vvvv(1660)-zozo(1600):1-0
10/06/2017:Eq:Vikings-Les Seigneurs de l Atlantide : petrus2000(2030)-ratzi(1960):0-1
10/06/2017:Eq:Danielsen City-LES CHATTERBOX : hberlioz(1630)-eanouis(2020):0-1
10/06/2017:Défi lancov(1990)-rocketman(2020):0-1
10/06/2017:Défi doudou(1640)-wenoketo(1610):1-0
10/06/2017:Défi jonclau(1180)-castor(1380):0-1
10/06/2017:Défi biquet(1900)-camilg(1509):1-0
10/06/2017:Défi youliyouli(1830)-arno(1690):1-0
10/06/2017:Défi alain34(2100)-regis08(1880):1-0
10/06/2017:Défi timeo35220(1000)-ghostdog(1730):0-1
10/06/2017:Défi antoinenono(1410)-pierrejean(1340):1-0
10/06/2017:Tournoi échelle division 2 zozo(1610)-jlr(1370):1-0
10/06/2017:Défi mozinor(2250)-eagleatlas(2120):1-0
10/06/2017:Défi warriorette(1970)-chessgaston(1990):0-1
10/06/2017:Défi hugues(1480)-blagnaque(1640):1-0
10/06/2017:Défi gervaise(1120)-titit1(1300):0-1
10/06/2017:Défi hargas(1890)-roquefort(1950):0-1
10/06/2017:Défi woozie(2160)-lugdunum(2280):0-1
10/06/2017:Défi zozo(1610)-cortaz(1890):1-0
10/06/2017:Défi hebro(1820)-trueman(1790):1-0
10/06/2017:Défi flosuper(2000)-chedru2000(2190):0-1
10/06/2017:Tournoi n°16512 afeyte(1740)-karim(1770):1-0
10/06/2017:Tournoi n°16479 jlr(1430)-louis67(1590):1-0
10/06/2017:Tournoi n°16429 chomi64(1950)-verson(1890):0-1
10/06/2017:Tournoi n°16707 moloch(1940)-verson(1920):1-0
10/06/2017:Eq:Les pousseur de bois-les chics capons : fcbbryan(2060)-pilinapolgar(2440):0-1
10/06/2017:Eq:Les vaillants -Les Quebecois : hub(1820)-slaughter(2230):0-1
10/06/2017:Eq:La Crim Team-Pirates du Mat : jvv(2810)-eltche(2390):1-0
10/06/2017:Coupe Niveau 3 verson(1930)-senegaulois(2020):0-1
10/06/2017:Défi anumisme(1390)-joelcouturier(1160):1-0
10/06/2017:Défi anumisme(1360)-stephane300(1360):1-0
10/06/2017:Défi azur(1640)-asvel69(1690):0-1
10/06/2017:Défi anglais(1600)-jmr(1610):0-1
10/06/2017:Défi afeyte(1760)-tbeau44(1640):1-0
10/06/2017:Défi pionroi(1809)-roquefort(1920):1-0
10/06/2017:Défi gaspard83(1620)-gilberthellemans(1620):0-1
10/06/2017:Défi katastrofic(1510)-pierrejean(1390):1-0
10/06/2017:Le vieux roi 4 legrillon(1770)-thewolf(1520):1-0
10/06/2017:allez y doucement uliczny(2050)-dragon(1930):0-1
10/06/2017:Pour des joueurs cool janolapin(1760)-qasar(1800):1-0
10/06/2017:La Défense Grunfeld karkaskat(2120)-maskali(1780):1-0
10/06/2017:Tournoi n°16711 ghostdog(1710)-leredoutable(1690):1-0
10/06/2017:Tournoi n°16525 ales17(1860)-patau(1820):0-1
10/06/2017:Tournoi n°16707 desaintfegor(1920)-moloch(1940):1-0
10/06/2017:Défi felicio(2140)-tiounet(1650):1-0
10/06/2017:Défi anumisme(1290)-jeanphy(980):0-1
10/06/2017:Défi roidechecs(1250)-jonclau(1200):1-0
10/06/2017:Défi flo71(1850)-arno(1710):0-1
10/06/2017:Le clan des Siciliennes 2 qasar(1770)-fly(2000):0-1
10/06/2017:Alekhine pour les Nuls tiounet(1660)-skalfa(1730):0-1
10/06/2017:Symphonie n°1 leet(1740)-tiounet(1640):1-0
10/06/2017:Tournoi échelle division 3 kaspadesbrik(1880)-tipix(1699):1/2-1/2
10/06/2017:Tournoi n°16656 verson(1840)-nico(1930):0-1
10/06/2017:Tournoi n°16547 pessoa(2120)-hilts(2170):1-0
10/06/2017:Tournoi n°16453 bussman(1790)-tartu(1770):0-1
10/06/2017:Tournoi n°16572 willkommen54(2100)-rvsinovitch(2000):1/2-1/2
10/06/2017:Eq:Danielsen City-Royal Kids : hilts(2170)-uliczny(2060):1-0
10/06/2017:Eq:Danielsen City-Royal Kids : uliczny(2060)-hilts(2170):0-1
10/06/2017:Coupe Niveau 2 c69(1410)-choucki11(1670):1/2-1/2
10/06/2017:Défi maya24(1640)-mayaapof(1650):0-1
10/06/2017:Défi legrillon(1850)-titit1(1300):1-0
10/06/2017:Défi lecevenol(1350)-titit1(1270):0-1
10/06/2017:Défi chevalice(1580)-maluel(1580):1-0
10/06/2017:Défi cortaz(1860)-matsonic(1720):0-1
10/06/2017:Défi kerenor(1590)-tian(1340):1-0
10/06/2017:Défi antoinenono(1410)-titit1(1260):0-1
10/06/2017:Memorial Lara XXI neigemet(2300)-bertelsen(1700):1-0
10/06/2017:Faites vos jeux karkaskat(2130)-intrigue(1700):1-0
10/06/2017:Symphonie n°1 tiounet(1640)-leet(1740):0-1
10/06/2017:Tournoi échelle champions hilts(2170)-verson(1900):1-0
10/06/2017:Tournoi n°16701 oranmore(1990)-loursdu07(2050):1-0
10/06/2017:Tournoi n°16601 lepiton(2060)-loloth77(1880):0-1
10/06/2017:Tournoi n°16709 joel(1370)-bibi07(1450):1-0
10/06/2017:Tournoi n°16680 intrigue(1700)-zodiac(1740):0-1
10/06/2017:Tournoi n°16463 thewolf(1520)-kawa750(1590):0-1
10/06/2017:Tournoi n°16428 thewolf(1510)-bilou75(1380):1-0
10/06/2017:Tournoi n°16584 loloth77(1880)-manulatus(1870):1-0
10/06/2017:Tournoi n°16663 manuel(2349)-eltche(2400):1/2-1/2
10/06/2017:Eq:les modestes-Les Corsaires de Lechiquier : avefenix17(2690)-scroff(2690):1/2-1/2
10/06/2017:Coupe Niveau 2 verson(1910)-choucki11(1680):1-0
10/06/2017:Défi chessgaston(1980)-titit1(1280):1-0
10/06/2017:Défi jonclau(1170)-marieclaire(1360):0-1
10/06/2017:Défi trueman(1810)-berjay(1830):0-1
10/06/2017:Défi bonamur(1920)-alexei31(1920):0-1
10/06/2017:Défi thewolf(1440)-titia13(1330):0-1
10/06/2017:Défi upsalin(1730)-jmr(1600):1-0
10/06/2017:Défi lilou(1200)-pascalou50(1650):0-1
10/06/2017:Défi aigle12(1470)-qasar(1750):0-1
10/06/2017:Défi timeo35220(1000)-marieclaire(1360):0-1
10/06/2017:Symphonie n°1 tiounet(1640)-flmnh(1790):0-1
10/06/2017:Tournoi n°16174 bira47(1760)-echecs76(1699):0-1
10/06/2017:Tournoi n°16642 pionfou(1760)-arno(1670):0-1
10/06/2017:Tournoi n°16681 kawa750(1610)-simer(1780):1/2-1/2
10/06/2017:Tournoi n°16673 arno(1700)-deric(1650):1-0
10/06/2017:Tournoi n°16657 brettsinclair(1750)-kiki(1870):1-0
10/06/2017:Eq:Pirates du Mat-les biquetoces : daiwen(2340)-garlik(1910):0-1
10/06/2017:Eq:Les pousseur de bois-La Crim Team : legrillon(1770)-zeusuez(2190):0-1
10/06/2017:Défi intrigue(1690)-tunellavage(1800):0-1
10/06/2017:Défi gilberthellemans(1630)-pascalou50(1670):0-1
10/06/2017:Défi bidoche(1720)-brunnhilde(1680):0-1
10/06/2017:Défi mick(1920)-jyf(1850):1-0
10/06/2017:Défi tichaton(1470)-chessgaston(1990):0-1
10/06/2017:thewolf 2 bmwm3(1350)-ascensseur(1620):0-1
10/06/2017:thewolf 2 ascensseur(1620)-bmwm3(1350):1-0
10/06/2017:Cobra n° 5 salut(1950)-karkaskat(2130):1-0
10/06/2017:Tournoi échelle division 1 jdb(1960)-tiounet(1680):1-0
11/06/2017:Tournoi n°16591 jellel67(1770)-qasar(1730):0-1
11/06/2017:Tournoi n°16634 moutarde18(1890)-qasar(1810):1-0
11/06/2017:Tournoi n°16656 elghribi(1910)-nico(1930):0-1
11/06/2017:Tournoi n°16440 laronix(2320)-tambour(2200):1-0
11/06/2017:Eq:Les Corsaires de Lechiquier-Les diplomates : levelmax(2810)-lapino(2570):1-0
11/06/2017:Eq:Les pousseur de bois-les grenades : qasar(1790)-herakles(2040):0-1
11/06/2017:Eq:Mission Impossible-O fou d hello : joel(1370)-yab414(1620):0-1
11/06/2017:Défi uliczny(2040)-fbeley(2120):0-1
11/06/2017:Défi homer31(1710)-tichaton(1490):1-0
11/06/2017:Défi moi50(1760)-volatile(2400):0-1
11/06/2017:Rapide cricri57(1450)-zodiac(1340):0-1
11/06/2017:Rapide qasar(1330)-moloch(1460):0-1
11/06/2017:Rapide moutarde18(1580)-moloch(1420):1-0
11/06/2017:Memorial Lara XX fly(2000)-karkaskat(2110):0-1
11/06/2017:Tournoi n°16709 fatia(1199)-jlr(1360):0-1
11/06/2017:Eq:Les Corsaires de Lechiquier-les modestes : sherezo(2680)-scroff(2700):1/2-1/2
11/06/2017:Défi benj(2270)-lugdunum(2240):0-1
11/06/2017:Défi algors(1800)-cortaz(1920):0-1
11/06/2017:allez y doucement uliczny(2050)-leet(1690):0-1
11/06/2017:Eq:Royal Kids-La Crim Team : uliczny(2060)-zeusuez(2170):0-1
11/06/2017:Tournoi n°16386 donjon(1640)-pionfou(1490):0-1
11/06/2017:Tournoi n°16589 gonzok67(1800)-verson(1830):0-1
11/06/2017:Tournoi n°16707 dragon(1920)-desaintfegor(1920):0-1
11/06/2017:Défi zozo(1610)-maluel(1640):1-0
11/06/2017:allez y doucement dragon(1930)-uliczny(2050):1-0
11/06/2017:Tournoi n°16555 eltche(2400)-rons(2410):1/2-1/2
11/06/2017:Tournoi n°16370 bulleur(2220)-thierry7ardeche(2030):1-0
11/06/2017:Tournoi n°16703 intrigue(1670)-angerpat(1510):0-1
11/06/2017:Tournoi n°16697 tartu(1650)-zozo(1610):1-0
11/06/2017:Tournoi n°16704 qasar(1770)-leredoutable(1690):0-1
11/06/2017:Tournoi n°16662 cramsnellac(1800)-verson(1850):0-1
11/06/2017:Eq:les grenades-La Crim Team : arb(2840)-pgcbies(2610):1/2-1/2
11/06/2017:Coupe Niveau 1 qasar(1790)-kowabounga(1760):0-1
11/06/2017:Défi lugdunum(2240)-intrigue(1740):1-0
11/06/2017:Défi pierrejean(1340)-fatia(1199):1-0
11/06/2017:Défi elgringo(2020)-calcedoine(1990):1-0
11/06/2017:Défi encore1fois(1900)-alexei31(1890):0-1
11/06/2017:Défi jpjay(1820)-gerard54(1810):0-1
11/06/2017:allez y doucement uliczny(2050)-blackbishop(1910):0-1
11/06/2017:allez y doucement blackbishop(1910)-uliczny(2050):1-0
11/06/2017:Alekhine pour les Nuls flmnh(1780)-ptitefrez(2070):0-1
11/06/2017:Faites vos jeux dragon(1940)-flmnh(1790):1-0
11/06/2017:Symphonie n°1 flmnh(1790)-leet(1740):0-1
11/06/2017:Tournoi échelle division 1 barake(1630)-bistro1(1690):0-1
11/06/2017:Tournoi échelle champions zincou75(2060)-verson(1950):0-1
11/06/2017:Tournoi n°16709 fatia(1199)-joel(1370):0-1
11/06/2017:Tournoi n°16709 bibi07(1450)-fatia(1199):1-0
11/06/2017:Eq:tin tin tin-Les Quebecois : bb7553(1710)-janolapin(1820):0-1
11/06/2017:Défi kawa750(1600)-fatia(1199):1-0
11/06/2017:Défi pourquoipas(1490)-kiki38(1580):1-0
11/06/2017:Défi christie(1210)-titit1(1330):0-1
11/06/2017:Défi biquet(1880)-champignac(1820):0-1
11/06/2017:Défi geld108(1410)-gambitor(1510):1-0
11/06/2017:Défi matsonic(1740)-wenoketo(1610):1-0
11/06/2017:Défi nimzoindien(1890)-jajaf1959(1860):1/2-1/2
11/06/2017:Défi tartu(1660)-gobois(1710):1-0
11/06/2017:allez y doucement uliczny(2050)-emmanuel(1940):0-1
11/06/2017:Cobra n° 5 salut(1950)-emmanuel(1970):0-1
11/06/2017:Tournoi échelle élite hilts(2160)-pgo(1740):1-0
11/06/2017:Défi chocotov(2020)-hargas(1880):1-0
11/06/2017:Défi flo19(1290)-jonclau(1190):1-0
11/06/2017:Le vieux Roi 5 tiounet(1640)-ascensseur(1610):1-0
11/06/2017:thewolf 2 tiounet(1620)-bigoudi(1050):1-0
11/06/2017:Tournoi n°16675 bibi07(1410)-jlr(1450):0-1
11/06/2017:Tournoi n°16629 bibi07(1390)-kiki37(1420):1-0
11/06/2017:Tournoi n°16698 domenico(1830)-connecticcut(1830):1-0
11/06/2017:Tournoi n°16693 baranowsky(1760)-arno(1710):1-0
11/06/2017:Tournoi n°16698 simer(1770)-domenico(1830):1-0
11/06/2017:Défi alain69009(1560)-zozo(1610):0-1
11/06/2017:Défi anumisme(1310)-vb83(1490):1/2-1/2
11/06/2017:Défi cortaz(1880)-chobi(1710):1-0
11/06/2017:Le vieux roi 4 tartu(1790)-roschecx(1690):1-0
11/06/2017:thewolf 2 ascensseur(1620)-tiounet(1620):0-1
11/06/2017:thewolf 2 tiounet(1620)-ascensseur(1620):1-0
11/06/2017:Faites vos jeux ascensseur(1580)-tiounet(1640):0-1
11/06/2017:Tournoi échelle champions salut(1970)-uliczny(2060):1-0
11/06/2017:Tournoi n°16485 mistralgagnant(1850)-silveur(1870):0-1
11/06/2017:Tournoi n°16575 gasperzero(2000)-jazzzz(1800):0-1
11/06/2017:Tournoi n°16681 verson(1890)-zodiac(1740):1-0
11/06/2017:Tournoi n°16416 dragonchess(1650)-thewolf(1540):0-1
11/06/2017:Tournoi n°16679 azur(1600)-upsalin(1700):1/2-1/2
11/06/2017:Tournoi n°16721 verson(1950)-pgo(1800):1-0
11/06/2017:Tournoi n°16700 verson(1890)-leredoutable(1690):1-0
11/06/2017:Tournoi n°16563 simer(1730)-samchess(1780):1-0
11/06/2017:Tournoi n°16669 afeyte(1770)-arno(1690):1-0
11/06/2017:Tournoi n°16722 homer31(1710)-simer(1740):0-1
11/06/2017:Eq:Les Seigneurs de l Atlantide-les chics capons : fredelebouric12(2520)-mrmatchnul(2290):1-0
11/06/2017:Eq:tin tin tin-Danielsen City : mistralgagnant(1850)-n0rpak(2110):0-1
11/06/2017:Défi sergiodevienne(1810)-tomislav(1720):0-1
11/06/2017:Défi moi50(1750)-biquet(1880):1-0
11/06/2017:Défi cortaz(1870)-bilitis(1820):0-1
11/06/2017:Défi roidechecs(1240)-thewolf(1440):1-0
11/06/2017:Défi mayaapof(1640)-anglais(1610):0-1
11/06/2017:atteindrelessommets payne42(1760)-skalfa(1740):0-1
11/06/2017:Pour le plaisir 35 dragonchess(1690)-thewolf(1560):0-1
11/06/2017:La Défense Grunfeld maskali(1780)-karkaskat(2120):0-1
11/06/2017:Tournoi n°16601 lad(1900)-lepiton(2060):0-1
11/06/2017:Tournoi n°16654 siger72(1210)-redqueen(1230):0-1
11/06/2017:Tournoi n°16654 redqueen(1230)-ratp(1179):1-0
11/06/2017:Tournoi n°16709 petitpion(1260)-fatia(1199):1-0
11/06/2017:Tournoi n°16385 chomi64(1950)-rvsinovitch(1970):1-0
11/06/2017:Tournoi n°16716 wendydydy(1650)-qasar(1770):1-0
11/06/2017:Eq:tin tin tin-Les Gens du Sud : ryba(1950)-mistralgagnant(1860):0-1
11/06/2017:Eq:Vikings-Danielsen City : azerty1(2230)-ratzi(1940):1/2-1/2
11/06/2017:Eq:Royal Kids-Mission Impossible : uliczny(2060)-akhaline(2350):0-1
11/06/2017:Eq:London-Les Quebecois : surcouf(1750)-mayaapof(1710):0-1
11/06/2017:Eq:London-Les Quebecois : mayaapof(1710)-surcouf(1750):1-0
11/06/2017:Eq:Danielsen City-LES CHATTERBOX : eanouis(2020)-hberlioz(1630):1-0
11/06/2017:Défi kleoj(2090)-artorg(2110):1-0
11/06/2017:Défi roger72(1410)-geantvert06(1370):0-1
11/06/2017:Défi serjo(1260)-augustin(1260):0-1
11/06/2017:Défi pierre1(1760)-tomislav(1750):1-0
11/06/2017:Défi thewolf(1530)-roidechecs(1280):0-1
11/06/2017:Défi roidechecs(1260)-thewolf(1520):1-0
11/06/2017:Défi thewolf(1530)-roidechecs(1260):1-0
11/06/2017:Défi vulcain14(1510)-hugues(1490):0-1
11/06/2017:Défi moi50(1750)-chocotov(2060):1-0
11/06/2017:Défi hberlioz(1620)-legrillon(1850):0-1
11/06/2017:Défi moi50(1770)-elghribi(1960):0-1
11/06/2017:Défi thewolf(1520)-roidechecs(1280):0-1
11/06/2017:Défi antoinenono(1410)-titit1(1250):0-1
11/06/2017:La French fly(1910)-moutarde18(1890):1-0
11/06/2017:TournoiRebelles1B akkullanu(2620)-paulcaresse(2470):1-0
11/06/2017:allez y doucement uliczny(2050)-jyf(1850):0-1
11/06/2017:allez y doucement jyf(1850)-uliczny(2050):1-0
11/06/2017:Pour des joueurs cool legrillon(1780)-tiounet(1650):1-0
11/06/2017:Alekhine pour les Nuls intrigue(1720)-ascensseur(1590):1-0
11/06/2017:Memorial Lara XXI coxynelle(1900)-tartu(1750):1-0
11/06/2017:Le vieux Roi 5 thewolf(1480)-ascensseur(1610):1-0
11/06/2017:Le vieux Roi 5 intrigue(1720)-ascensseur(1610):1/2-1/2
11/06/2017:Tournoi échelle division 2 dragonchess(1710)-jellel67(1770):0-1
11/06/2017:Tournoi échelle élite uliczny(2060)-tyakyx(2170):0-1
11/06/2017:Tournoi échelle élite rvsinovitch(1990)-pgo(1820):1-0
11/06/2017:Tournoi n°16690 silveur(1910)-tifointer(1950):1-0
11/06/2017:Tournoi n°16591 qasar(1740)-legrillon(1810):1-0
11/06/2017:Tournoi n°16577 manulatus(1870)-loco11(1990):0-1
11/06/2017:Tournoi n°16646 jmarcboury(1780)-ghostdog(1730):1-0
11/06/2017:Tournoi n°16630 lepiton(2090)-nicodemouscron(2120):1-0
11/06/2017:Tournoi n°16610 roxane(1510)-mokanne(1530):1/2-1/2
11/06/2017:Tournoi n°16688 wenoketo(1610)-mokanne(1540):0-1
11/06/2017:Tournoi n°16711 leredoutable(1690)-arno(1710):1-0
11/06/2017:Tournoi n°16716 qasar(1770)-noelleon(1809):0-1
11/06/2017:Tournoi n°16722 arno(1710)-simer(1740):0-1
11/06/2017:Tournoi n°16722 simer(1740)-qasar(1770):1-0
11/06/2017:Eq:Pirates du Mat-Les Corsaires de Lechiquier : totorov(2280)-buats007(2660):0-1
11/06/2017:Eq:Danielsen City-Royal Kids : pgo(1800)-n0rpak(2040):0-1
11/06/2017:Eq:CHESS MASTER-LES CHATTERBOX : bassdark(2060)-fafamanga(2040):0-1
11/06/2017:Eq:Pirates du Mat-Les diplomates : philou(1910)-bertelsen(1730):1-0
11/06/2017:Défi kleoj(2080)-schnibble(2389):0-1
11/06/2017:Défi pierrejean(1350)-maluel(1640):1-0
11/06/2017:Défi soso69(1420)-vb83(1480):1-0
11/06/2017:Défi loloth77(1820)-pgo(1810):1-0
11/06/2017:Défi jonclau(1190)-tonio14(1290):0-1
11/06/2017:Défi uliczny(2050)-carotor(2270):0-1
11/06/2017:Défi hberlioz(1650)-panchoa(1570):1/2-1/2
11/06/2017:Défi hberlioz(1640)-jazzzz(1790):0-1
11/06/2017:Défi azur(1590)-jconetti(1700):0-1
11/06/2017:Défi arno(1750)-pierre1(1790):1-0
11/06/2017:Défi flosuper(2000)-noelleon(2069):0-1
11/06/2017:Défi azur(1580)-temistocles(1430):1-0
11/06/2017:Défi hberlioz(1630)-cathy17(1020):1-0
11/06/2017:Memorial Lara XVIII ascensseur(1650)-jyf(1810):1/2-1/2
11/06/2017:Pour le plaisir 35 dragonchess(1690)-fasb(1199):1-0
11/06/2017:allez y doucement uliczny(2050)-fly(1980):0-1
11/06/2017:Alekhine pour les Nuls ptitefrez(2070)-skalfa(1730):1-0
11/06/2017:Memorial Lara XXI ascensseur(1580)-tiounet(1660):1-0
11/06/2017:Tournoi échelle division 1 barake(1630)-dragonchess(1750):1-0
11/06/2017:Tournoi échelle division 1 dragonchess(1760)-yab414(1650):0-1
11/06/2017:Tournoi échelle élite uliczny(2060)-ptitefrez(2040):0-1
12/06/2017:Tournoi n°16469 mazdaroket(2050)-salut(2020):0-1
12/06/2017:Tournoi n°16503 crca(1930)-dragon(1930):0-1
12/06/2017:Coupe Niveau 5 pherce(2110)-titeuf(2350):1-0
12/06/2017:Défi doudou(1640)-roschecx(1660):1-0
12/06/2017:Défi epervier14(1540)-cortaz(1930):0-1
12/06/2017:Défi gilberthellemans(1590)-xav(1520):1-0
12/06/2017:Défi jonclau(1160)-bigoudi(1030):0-1
12/06/2017:Défi flosuper(2000)-calcedoine(1990):0-1
12/06/2017:Rapide moloch(1450)-ryba(1610):1-0
12/06/2017:Rapide verson(1510)-moloch(1470):1/2-1/2
12/06/2017:Symphonie n°1 ascensseur(1590)-leet(1740):1-0
12/06/2017:Défi ptitefrez(2090)-gonzok67(1780):1-0
12/06/2017:Défi jokotov(1940)-hargas(1659):0-1
12/06/2017:Défi puma1965(1180)-bubbly(1280):0-1
12/06/2017:Faites vos jeux leet(1720)-ascensseur(1580):1-0
12/06/2017:Symphonie n°1 leet(1740)-ascensseur(1590):1-0
12/06/2017:Tournoi n°16691 plaisance(1930)-jdb(1940):0-1
12/06/2017:Défi kaspy(1640)-tousostade(1520):1-0
12/06/2017:Défi tbeau44(1640)-vvvv(1690):0-1
12/06/2017:Défi defense(1810)-asvel69(1720):1-0
12/06/2017:Tournoi n°16602 janul13(1680)-ffred(1540):1-0
12/06/2017:Tournoi n°16633 vvvv(1660)-tipix(1780):0-1
12/06/2017:Tournoi n°16694 verson(1900)-karim(1830):1-0
12/06/2017:Tournoi n°16694 karim(1830)-tolt(1990):0-1
12/06/2017:Tournoi n°16610 artistepeintre(1500)-janul13(1690):0-1
12/06/2017:Tournoi n°16661 pgo(1800)-manulatus(1920):0-1
12/06/2017:Tournoi n°16717 manulatus(1950)-hargas(1990):0-1
12/06/2017:Tournoi n°16716 tiounet(1660)-qasar(1760):0-1
12/06/2017:Tournoi n°16730 kala(1800)-arno(1750):1-0
12/06/2017:Eq:Pirates du Mat-les biquetoces : volatile(2440)-adrian(2390):1/2-1/2
12/06/2017:Eq:les modestes-Les diplomates : berniz(2210)-bibisept(1890):1-0
12/06/2017:Défi artistepeintre(1470)-patau(1810):0-1
12/06/2017:Défi monia(2390)-smetemko(1809):1/2-1/2
12/06/2017:Défi kleoj(2090)-ryba(1990):0-1
12/06/2017:Défi patrick3(1690)-roschecx(1650):0-1
12/06/2017:Défi tiounet(1660)-zozo(1630):1-0
12/06/2017:JeanMichoule pgo(1700)-crca(1940):0-1
12/06/2017:Le clan des Siciliennes 2 fly(2000)-emmanuel(1920):0-1
12/06/2017:Symphonie n°1 flmnh(1790)-tiounet(1640):1-0
12/06/2017:Tournoi échelle champions gonzok67(1770)-legrillon(1850):1-0
12/06/2017:Tournoi n°16481 qasar(1649)-jeanned3(1550):1-0
12/06/2017:Tournoi n°16681 tinenfant(1810)-kawa750(1610):0-1
12/06/2017:Tournoi n°16627 kawa750(1620)-legrillon(1790):0-1
12/06/2017:Tournoi n°16583 legrillon(1790)-qasar(1750):0-1
12/06/2017:Eq:Pirates du Mat-Danielsen City : eltche(2400)-azerty1(2270):1-0
12/06/2017:Défi marieclaire(1360)-kaspy(1660):0-1
12/06/2017:Défi jeanphy(980)-marieclaire(1320):1-0
12/06/2017:Défi manu32(1960)-carlsen10(1370):0-1
12/06/2017:Défi roger72(1400)-thewolf(1440):0-1
12/06/2017:Défi patau(1820)-pgo(1800):1-0
12/06/2017:Défi fabio985(1890)-david969(1970):0-1
12/06/2017:Gisèle 30 qasar(1720)-fly(2000):0-1
12/06/2017:Gisèle 30 fly(2000)-qasar(1720):1-0
12/06/2017:Le clan des Siciliennes 2 fly(2000)-qasar(1770):1-0
12/06/2017:ça part à l ouest fly(1980)-qasar(1730):1-0
12/06/2017:ça part à l ouest qasar(1730)-fly(1980):0-1
12/06/2017:Pour des joueurs cool bertelsen(1700)-legrillon(1780):1-0
12/06/2017:thewolf 2 bmwm3(1350)-titit1(1300):0-1
12/06/2017:thewolf 2 titit1(1300)-bmwm3(1350):1-0
12/06/2017:Tournoi n°16520 elgringo(2080)-mistralgagnant(1840):0-1
12/06/2017:Tournoi n°16613 loco11(1990)-pgo(1810):1-0
12/06/2017:Tournoi n°16689 clemm(1670)-papillon22(1740):1-0
12/06/2017:Eq:Les pousseur de bois-Les Rebelles : mehr(2500)-pilinapolgar(2490):1-0
12/06/2017:Eq:les fous de bassans-O fou d hello : yab414(1660)-albescab(1590):0-1
12/06/2017:Eq:tin tin tin-Pirates du Mat : mistralgagnant(1860)-totorov(2210):0-1
12/06/2017:Eq:CHESS MASTER-LES CHATTERBOX : onetwoyve(1760)-chocotov(2070):1-0
12/06/2017:Défi youliyouli(1780)-bilitis(1770):0-1
12/06/2017:Défi yatman(1980)-titit1(1330):1-0
12/06/2017:Défi loloth77(1830)-regor(2040):1-0
12/06/2017:Défi morloch(1980)-regor(2090):0-1
12/06/2017:Défi alexei31(1930)-garlik(1970):0-1
12/06/2017:Tournoi échelle champions patau(1810)-jajaf1959(1880):0-1
12/06/2017:Tournoi n°16573 upsalin(1690)-magyar(1510):1-0
12/06/2017:Tournoi n°16661 manulatus(1920)-desaintfegor(1910):0-1
12/06/2017:Tournoi n°16692 arno(1700)-clemm(1670):1-0
12/06/2017:Tournoi n°16719 tiounet(1680)-qasar(1760):1-0
12/06/2017:Eq:les grenades-les chics capons : fredelebouric12(2450)-letyjo(2810):1/2-1/2
12/06/2017:Défi anumisme(1360)-harrypotter(1280):1-0
12/06/2017:Défi thewolf(1460)-harrypotter(1280):1-0
12/06/2017:Défi april(1980)-lilou(1210):1-0
12/06/2017:Défi tian(1340)-maluel(1580):1-0
12/06/2017:Défi pourquoipas(1500)-chevalice(1580):1-0
12/06/2017:Défi anglais(1610)-zozo(1610):0-1
12/06/2017:Défi jeanned3(1530)-anumisme(1310):0-1
12/06/2017:Défi roidechecs(1220)-redqueen(1210):1-0
12/06/2017:Défi anumisme(1340)-raymon(1320):1-0
12/06/2017:Défi kawa750(1630)-tinenfant(1830):0-1
12/06/2017:Tournoi échelle champions salut(1970)-patau(1820):1-0
12/06/2017:Tournoi n°16616 tartu(1730)-berthe(1820):0-1
12/06/2017:Tournoi n°16647 magyar(1520)-panchoa(1580):0-1
12/06/2017:Tournoi n°16731 tiounet(1660)-simer(1720):1-0
12/06/2017:Tournoi n°16671 ffred(1500)-tartu(1690):0-1
12/06/2017:Tournoi n°16717 hargas(1990)-verson(1930):1-0
12/06/2017:Eq:les fous de bassans-Royal Kids : hargas(1930)-pgo(1740):0-1
12/06/2017:Eq:les fous de bassans-Royal Kids : pgo(1740)-hargas(1930):1-0
12/06/2017:Eq:Royal Kids-La Crim Team : pgo(1800)-mekal(2030):0-1
12/06/2017:Eq:Royal Kids-Mission Impossible : skalfa(1740)-maya24(1630):1-0
12/06/2017:Défi xercott(1710)-upsalin(1710):0-1
12/06/2017:Défi vb83(1480)-epervier(1860):0-1
12/06/2017:Défi bidoche(1720)-youliyouli(1780):0-1
12/06/2017:Défi jpjay(1820)-den(1880):0-1
12/06/2017:Défi thewolf(1440)-tonio14(1300):1-0
12/06/2017:Défi mocraf(1680)-gobois(1720):1-0
12/06/2017:Défi pgo(1770)-intrigue(1700):1-0
12/06/2017:Alekhine pour les Nuls intrigue(1720)-ptitefrez(2070):0-1
12/06/2017:Alekhine pour les Nuls ascensseur(1590)-intrigue(1720):0-1
12/06/2017:thewolf 2 titit1(1300)-ascensseur(1620):0-1
12/06/2017:Faites vos jeux tiounet(1640)-ascensseur(1580):1-0
12/06/2017:Symphonie n°1 tartu(1650)-karkaskat(2120):0-1
12/06/2017:Symphonie n°1 tartu(1650)-ascensseur(1590):0-1
12/06/2017:Fête des pères tartu(1660)-tiounet(1680):1-0
12/06/2017:Tournoi échelle division 2 zozo(1610)-qasar(1780):0-1
12/06/2017:Tournoi n°16575 jazzzz(1800)-tonton77(1880):0-1
12/06/2017:Tournoi n°16419 upsalin(1720)-mogica(1760):1/2-1/2
12/06/2017:Tournoi n°16679 upsalin(1710)-wenoketo(1610):1-0
12/06/2017:Tournoi n°16665 tifointer(1950)-fredbauduret(1850):0-1
12/06/2017:Eq:Les vaillants -Les Quebecois : slaughter(2230)-hub(1820):1-0
12/06/2017:Eq:Les Gens du Sud-CHESS MASTER : mgb2(1660)-verson(1870):0-1
12/06/2017:Eq:Les Corsaires de Lechiquier-Les vaillants : carottc(2290)-scroff(2690):1-0
12/06/2017:Eq:LA CITE ARDENTE-Atomic Chess : bigbobo(2290)-websurfeur91(1890):1-0
12/06/2017:Défi joelcouturier(1160)-antoinenono(1390):0-1
12/06/2017:Défi choucki11(1680)-titit1(1250):1-0
12/06/2017:Défi bournivergne(2360)-piteau(2760):0-1
12/06/2017:Défi willkommen54(2100)-morloch(1930):1/2-1/2
12/06/2017:Défi anumisme(1400)-titit1(1250):0-1
12/06/2017:Défi malvina(1290)-puma1965(1180):1-0
12/06/2017:albatros 9 thewolf(1500)-qasar(1760):0-1
12/06/2017:Memorial Lara XXI tartu(1750)-ascensseur(1580):1-0
12/06/2017:thewolf 2 thewolf(1460)-titit1(1300):1-0
12/06/2017:thewolf 2 ascensseur(1620)-thewolf(1460):0-1
12/06/2017:Faites vos jeux kaspouille(2330)-ascensseur(1580):1-0
12/06/2017:Faites vos jeux ascensseur(1580)-kaspouille(2330):0-1
12/06/2017:Tournoi n°16635 loal(1620)-janul13(1700):0-1
12/06/2017:Tournoi n°16704 arno(1710)-qasar(1770):0-1
12/06/2017:Eq:les chics capons-Danielsen City : e2e4(2070)-pascalou50(1640):1-0
12/06/2017:Coupe Niveau 1 elghribi(1910)-thewolf(1460):1-0
12/06/2017:Défi calcedoine(1990)-kleoj(2070):1-0
12/06/2017:Défi titit1(1280)-antoinenono(1400):0-1
12/06/2017:Défi steflam(1510)-puma1965(1180):1-0
12/06/2017:Pour des joueurs cool qasar(1800)-legrillon(1780):1-0
12/06/2017:Alekhine pour les Nuls ptitefrez(2070)-flmnh(1780):1-0
12/06/2017:Tournoi n°16690 silveur(1910)-dragon(1930):0-1
12/06/2017:Tournoi n°16673 zodiac(1740)-arno(1700):1-0
12/06/2017:Tournoi n°16719 kiki(1840)-qasar(1760):0-1
12/06/2017:Eq:Pirates du Mat-Danielsen City : hilts(2160)-volatile(2410):0-1
12/06/2017:Coupe Niveau 4 hilts(2180)-elghribi(1960):1-0
12/06/2017:Défi yatman(2030)-flosuper(2000):0-1
12/06/2017:Défi cortaz(1930)-jpjay(1790):0-1
12/06/2017:Défi tranquille(2200)-pionroi(1809):0-1
12/06/2017:Défi cortaz(1920)-jmr(1590):0-1
12/06/2017:Défi wenoketo(1570)-azur50(1670):1-0
12/06/2017:Défi antoinenono(1390)-anumisme(1400):0-1
12/06/2017:thewolf 2 bmwm3(1350)-bigoudi(1050):0-1
12/06/2017:Cobra n° 5 karkaskat(2130)-neigemet(2320):0-1
12/06/2017:Cobra n° 5 salut(1950)-bertelsen(1750):1/2-1/2
13/06/2017:Tournoi n°16565 paulcaresse(2460)-lasker(2400):0-1
13/06/2017:Tournoi n°16612 xercott(1730)-ghostdog(1710):1-0
13/06/2017:Tournoi n°16710 coyotov(1670)-wenoketo(1570):0-1
13/06/2017:Eq:les chics capons-Danielsen City : pascalou50(1640)-e2e4(2070):0-1
13/06/2017:Défi adeleblancsec(1300)-anumisme(1310):0-1
13/06/2017:Défi titit1(1250)-kerenor(1610):1-0
13/06/2017:Défi pgo(1740)-fatia(1199):1-0
13/06/2017:Défi fatia(1199)-den(1880):0-1
13/06/2017:Défi chevalice(1570)-wenoketo(1570):1-0
13/06/2017:Défi fatia(1199)-ghostdog(1720):0-1
13/06/2017:Défi ilmarine(999)-karim(1810):0-1
13/06/2017:Défi fatia(1199)-patrick3(1720):0-1
13/06/2017:Défi tichaton(1480)-minon(2010):0-1
13/06/2017:Rapide moloch(1500)-cricri57(1430):1-0
13/06/2017:Rapide maitreabord(2170)-volatile(1920):1-0
13/06/2017:Rapide degun(1520)-moloch(1470):0-1
13/06/2017:Rapide qasar(1380)-verson(1510):1/2-1/2
13/06/2017:Rapide salut(1490)-verson(1510):1/2-1/2
13/06/2017:TournoiRebelles1B paulcaresse(2470)-fredelebouric12(2520):1/2-1/2
13/06/2017:Alekhine pour les Nuls fly(1990)-kaspouille(2300):0-1
13/06/2017:Tournoi n°16589 zax(2030)-gonzok67(1800):1-0
13/06/2017:Tournoi n°16661 verson(1840)-karim(1830):1-0
13/06/2017:Coupe Niveau 5 guig47(2210)-hilts(2170):0-1
13/06/2017:Défi patau(1760)-fly(1960):1/2-1/2
13/06/2017:Défi gervaise(1100)-papapoul(1199):1-0
13/06/2017:ça part à l ouest karkaskat(2140)-fly(1980):1-0
13/06/2017:Tournoi n°16481 jeanned3(1550)-jlr(1440):0-1
13/06/2017:Défi wenoketo(1580)-asvel69(1700):1-0
13/06/2017:Tournoi n°16605 bibi07(1390)-bricekiller(1480):1-0
13/06/2017:Tournoi n°16720 tiounet(1670)-panchoa(1570):0-1
13/06/2017:Défi thierry22(1560)-uliczny(1970):0-1
13/06/2017:Défi mequinho(1810)-hberlioz(1650):1-0
13/06/2017:Défi puma1965(1180)-roger72(1410):0-1
13/06/2017:Défi anglais(1610)-wenoketo(1610):0-1
13/06/2017:Faites vos jeux karkaskat(2130)-puma1965(1180):1-0
13/06/2017:Faites vos jeux dragon(1940)-puma1965(1180):1-0
13/06/2017:Fête des pères puma1965(1180)-tiounet(1680):0-1
13/06/2017:Fête des pères galaxys7(1210)-tiounet(1680):0-1
13/06/2017:Tournoi échelle division 1 bistro1(1720)-tiounet(1650):0-1
13/06/2017:Tournoi n°16656 nico(1930)-manulatus(1910):0-1
13/06/2017:Tournoi n°16633 homer31(1690)-vvvv(1660):0-1
13/06/2017:Tournoi n°16428 bilou75(1380)-bidou(1490):0-1
13/06/2017:Tournoi n°16687 mokanne(1560)-vvvv(1660):0-1
13/06/2017:Tournoi n°16691 jdb(1940)-manulatus(1930):1-0
13/06/2017:Eq:les grenades-tin tin tin : mistralgagnant(1870)-ecjc(1970):1-0
13/06/2017:Eq:Pirates du Mat-Les Seigneurs de l Atlantide : johan1977(2160)-chronik(2070):1-0
13/06/2017:Eq:Les vaillants -les modestes : pournelle(2750)-alekine92(2390):1-0
13/06/2017:Coupe Niveau 1 patau(1870)-qasar(1770):0-1
13/06/2017:Défi fatia(1199)-epervier14(1540):0-1
13/06/2017:Défi marieclaire(1360)-minon(2030):0-1
13/06/2017:Défi alain69009(1560)-epervier14(1540):1-0
13/06/2017:Défi panayote(1960)-jpjay(1820):1-0
13/06/2017:Défi feenschach(2030)-patau(1850):1-0
13/06/2017:Défi regor(2090)-hargas(1970):1-0
13/06/2017:Faites vos jeux flmnh(1790)-puma1965(1180):1-0
13/06/2017:Faites vos jeux puma1965(1180)-flmnh(1790):0-1
13/06/2017:Faites vos jeux leet(1720)-puma1965(1180):1-0
13/06/2017:Faites vos jeux puma1965(1180)-intrigue(1700):0-1
13/06/2017:Faites vos jeux intrigue(1700)-puma1965(1180):1-0
13/06/2017:Fête des pères puma1965(1180)-lecevenol(1380):0-1
13/06/2017:Fête des pères galaxys7(1210)-lecevenol(1380):0-1
13/06/2017:Fête des pères puma1965(1180)-petitlulu64(1690):0-1
13/06/2017:Fête des pères galaxys7(1210)-petitlulu64(1690):0-1
13/06/2017:Fête des pères puma1965(1180)-galaxys7(1210):0-1
13/06/2017:Fête des pères galaxys7(1210)-trebillig(1640):0-1
13/06/2017:Tournoi n°16710 katastrofic(1520)-wenoketo(1570):0-1
13/06/2017:Tournoi n°16706 leredoutable(1690)-verson(1900):0-1
13/06/2017:Tournoi n°16688 coyotov(1640)-mokanne(1550):1-0
13/06/2017:Tournoi n°16722 simer(1740)-leredoutable(1670):1-0
13/06/2017:Eq:Les Gens du Sud-O fou d hello : sanvic76(2000)-ryba(1980):0-1
13/06/2017:Eq:Les pousseur de bois-O fou d hello : damotte(2030)-pilinapolgar(2420):0-1
13/06/2017:Coupe Niveau 6 senegaulois(2040)-miti59760(2090):0-1
13/06/2017:Coupe Niveau 4 mudra(2200)-bigbobo(2290):0-1
13/06/2017:Coupe Niveau 1 elghribi(1910)-patau(1810):1-0
13/06/2017:Coupe Niveau 2 elghribi(1960)-verson(1930):1-0
13/06/2017:Défi chance2000(1660)-patau(1870):1-0
13/06/2017:Défi degun(1870)-patau(1830):0-1
13/06/2017:Défi patau(1810)-danton68(2010):0-1
13/06/2017:Défi c69(1410)-patau(1810):0-1
13/06/2017:Défi puma1965(1180)-anumisme(1410):0-1
13/06/2017:Fête des pères tartu(1660)-puma1965(1180):1-0
13/06/2017:Fête des pères coyotov(1660)-galaxys7(1210):1-0
13/06/2017:Fête des pères trebillig(1640)-puma1965(1180):1-0
13/06/2017:Tournoi n°16710 coyotov(1670)-katastrofic(1520):0-1
13/06/2017:Tournoi n°16460 verson(1910)-crca(1940):1-0
13/06/2017:Tournoi n°16670 karim(1810)-loco11(1980):0-1
13/06/2017:Défi hberlioz(1640)-pascalou50(1670):1-0
13/06/2017:Défi vvvv(1660)-zozo(1610):0-1
13/06/2017:Défi mequinho(1810)-titit1(1340):1-0
13/06/2017:Bg1 bububfo(1940)-crca(1930):1-0
13/06/2017:JeanMichoule tiounet(1660)-crca(1940):1-0
13/06/2017:Faites vos jeux tiounet(1640)-flmnh(1790):1-0
13/06/2017:Tournoi n°16205 fly(1990)-philou(1880):1-0
13/06/2017:Tournoi n°16543 tonton77(1890)-lad(1900):1-0
13/06/2017:Tournoi n°16702 qasar(1770)-ghostdog(1730):1-0
13/06/2017:Tournoi n°16635 raymar(1520)-loal(1620):0-1
13/06/2017:Tournoi n°16629 magyar(1500)-jlr(1500):0-1
13/06/2017:Tournoi n°16719 kiki(1840)-tiounet(1670):1-0
13/06/2017:Eq:Mission Impossible-O fou d hello : afeyte(1770)-olivyeah(1930):0-1
13/06/2017:Eq:Pirates du Mat-CHESS MASTER : philou(1910)-c69(1410):1-0
13/06/2017:Défi upsalin(1690)-hberlioz(1620):1-0
13/06/2017:Défi cortaz(1890)-aigle12(1470):1-0
13/06/2017:atteindrelessommets fly(1970)-ratzi(1990):1-0
13/06/2017:Fête des pères tartu(1660)-galaxys7(1210):1-0
13/06/2017:Tournoi n°16102 fly(1940)-olivyeah(1960):0-1
13/06/2017:Tournoi n°16736 simer(1760)-kala(1810):0-1
13/06/2017:Tournoi n°16636 lad(1900)-legrillon(1800):0-1
13/06/2017:Tournoi n°16684 upsalin(1700)-wenoketo(1610):1/2-1/2
13/06/2017:Tournoi n°16664 raymar(1530)-coppola(1450):1-0
13/06/2017:Coupe Niveau 2 kowabounga(1740)-saruman(1710):1-0
13/06/2017:Défi pascalou50(1680)-titit1(1290):1-0
13/06/2017:Défi echecs76(1910)-encore1fois(1900):1-0
13/06/2017:Défi joel(1380)-pierrejean(1360):1-0
13/06/2017:Défi cocodou(1960)-kleoj(2010):1-0
13/06/2017:Défi anumisme(1400)-redqueen(1250):0-1
13/06/2017:Défi hberlioz(1620)-maskali(1790):0-1
13/06/2017:albatros 9 thewolf(1500)-lamagouille(1490):1-0
13/06/2017:Pour des joueurs cool janolapin(1760)-petitlulu64(1680):0-1
13/06/2017:Pour des joueurs cool bertelsen(1700)-janolapin(1760):1/2-1/2
13/06/2017:thewolf 2 thewolf(1460)-lecevenol(1360):1-0
13/06/2017:Symphonie n°1 karkaskat(2120)-leet(1740):1-0
13/06/2017:Symphonie n°1 karkaskat(2120)-legrillon(1850):1-0
13/06/2017:Tournoi n°16712 sampiero2a(1400)-joel(1370):0-1
13/06/2017:Tournoi n°16702 ghostdog(1730)-cineyxp(1630):0-1
13/06/2017:Tournoi n°16659 speedyfil(1530)-buzz84(1520):1-0
13/06/2017:Eq:Les vaillants -les modestes : anderssen(2250)-jetjet91330(2180):1-0
13/06/2017:Eq:les aquitains-les fous de bassans : guig47(2200)-salut(1970):1-0
13/06/2017:Coupe Niveau 1 pitouwb(1770)-choucki11(1670):0-1
13/06/2017:Coupe Niveau 2 elghribi(1960)-simm(1909):1-0
13/06/2017:Défi blagnaque(1640)-miramar(1510):1-0
13/06/2017:Défi doudou(1630)-maluel(1580):0-1
13/06/2017:Défi pascalou50(1670)-antoinenono(1410):0-1
13/06/2017:Défi maluel(1640)-wenoketo(1570):0-1
13/06/2017:Défi dan84(1460)-fly(1970):0-1
13/06/2017:Défi eagleatlas(2130)-tambour(2200):0-1
13/06/2017:Défi augustin(1320)-thewolf(1440):0-1
13/06/2017:Défi jetjet91330(2180)-elgringo(2060):1/2-1/2
13/06/2017:Défi janul13(1730)-lecevenol(1340):1-0
13/06/2017:Défi maximax(1140)-anumisme(1360):1-0
13/06/2017:Défi bibisept(1880)-tartu(1670):1-0
13/06/2017:Défi linselleschti(1540)-temistocles(1500):1-0
13/06/2017:Défi tonton77(1860)-regor(2070):0-1
13/06/2017:Défi jetjet91330(2180)-katastrofic(1510):1-0
13/06/2017:Défi marieclaire(1370)-anumisme(1370):0-1
13/06/2017:Défi thewolf(1540)-anumisme(1410):0-1
13/06/2017:Défi elghribi(1970)-cortaz(1920):1-0
13/06/2017:Défi alexei31(1930)-elghribi(1960):1-0
13/06/2017:Pour le plaisir 37 thewolf(1500)-qsdmlk(1620):0-1
13/06/2017:Alekhine pour les Nuls dragon(1920)-skalfa(1730):1-0
13/06/2017:Le vieux Roi 5 thewolf(1480)-intrigue(1720):0-1
13/06/2017:Symphonie n°1 tartu(1650)-leet(1740):0-1
13/06/2017:Fête des pères tartu(1660)-coyotov(1660):1-0
13/06/2017:Tournoi échelle élite ptitefrez(2070)-johndoe(2120):1/2-1/2
13/06/2017:Tournoi n°16656 nico(1930)-pgo(1810):1/2-1/2
13/06/2017:Tournoi n°16682 lad(1890)-karim(1820):1-0
13/06/2017:Tournoi n°16555 mancini(2420)-neigemet(2280):1-0
13/06/2017:Tournoi n°16712 joel(1370)-bibi07(1450):1-0
13/06/2017:Tournoi n°16655 lychar(1790)-kala(1800):0-1
13/06/2017:Tournoi n°16686 zed34(1450)-c69(1410):1-0
13/06/2017:Tournoi n°16702 qasar(1770)-cineyxp(1630):0-1
13/06/2017:Tournoi n°16701 loursdu07(2050)-nicodemouscron(2130):1-0
13/06/2017:Eq:Les Corsaires de Lechiquier-La Crim Team : jmolla(2910)-arb(2890):1/2-1/2
13/06/2017:Eq:les grenades-Vikings : moutarde18(1860)-thebigchief(2120):0-1
13/06/2017:Eq:Les Gens du Sud-les grenades : caspalov(2140)-dragon(1950):1-0
13/06/2017:Coupe Niveau 4 elghribi(1960)-echecs76(1940):1-0
13/06/2017:Défi yab414(1700)-fly(1910):0-1
13/06/2017:Défi mousse22(1470)-papyrolo(1199):0-1
13/06/2017:Défi fatia(1199)-deric(1650):0-1
13/06/2017:Défi antoinenono(1410)-lecevenol(1360):0-1
13/06/2017:Défi damotte(2040)-bricekiller(1480):1-0
13/06/2017:Défi christie(1210)-anumisme(1350):1-0
13/06/2017:Alekhine pour les Nuls skalfa(1730)-dragon(1920):1-0
13/06/2017:Tournoi échelle champions gonzok67(1770)-dragon(1930):1-0
13/06/2017:Tournoi n°16544 leet(1710)-karim(1780):0-1
13/06/2017:Tournoi n°16453 bussman(1790)-karim(1740):0-1
13/06/2017:Tournoi n°16497 intrigue(1730)-karim(1750):1/2-1/2
13/06/2017:Tournoi n°16700 arno(1720)-leredoutable(1690):1-0
13/06/2017:Tournoi n°16716 leredoutable(1680)-noelleon(1809):0-1
13/06/2017:Tournoi n°16725 vb83(1530)-coyotov(1660):0-1
13/06/2017:Coupe Niveau 1 jlr(1380)-choucki11(1680):0-1
13/06/2017:Défi maluel(1580)-lecevenol(1340):1-0
13/06/2017:Défi katastrofic(1510)-antoinenono(1400):1-0
13/06/2017:Défi karim(1760)-patau(1860):1-0
13/06/2017:Défi vb83(1470)-gonzok67(1810):0-1
13/06/2017:Défi warriorette(1950)-flo71(1870):0-1
13/06/2017:Défi hackidoc(1850)-cortaz(1930):1-0
13/06/2017:Memorial Lara XXI bertelsen(1700)-neigemet(2300):0-1
13/06/2017:Le vieux Roi 5 ascensseur(1610)-qasar(1780):0-1
13/06/2017:Faites vos jeux leet(1720)-karkaskat(2130):1-0
13/06/2017:Symphonie n°1 ascensseur(1590)-karkaskat(2120):0-1
13/06/2017:Tournoi échelle division 1 daniel1(1720)-bertelsen(1700):0-1
14/06/2017:Eq:les modestes-cotenstock : lekaribou(2250)-avefenix17(2680):0-1
14/06/2017:Eq:Les Seigneurs de l Atlantide-les fous de bassans : mazdaroket(2040)-undo(1809):1-0
14/06/2017:Eq:Les Seigneurs de l Atlantide-les fous de bassans : undo(1809)-mazdaroket(2040):0-1
14/06/2017:Coupe Niveau 2 qasar(1770)-elghribi(1960):0-1
14/06/2017:Défi anumisme(1310)-roidechecs(1210):1-0
14/06/2017:Défi kaby771(2120)-morloch(1940):1/2-1/2
14/06/2017:Défi moi50(1780)-elghribi(1950):1-0
14/06/2017:Rapide bertelsen(1310)-crca(1510):0-1
14/06/2017:Rapide linselleschti(1140)-foxie519(1280):0-1
14/06/2017:Rapide zodiac(1360)-crca(1550):0-1
14/06/2017:Rapide zodiac(1360)-fly(1530):1-0
14/06/2017:Rapide ascensseur(1110)-bertelsen(1300):0-1
14/06/2017:Rapide moloch(1420)-foxie519(1300):1-0
14/06/2017:Tournoi n°16706 zodiac(1740)-leredoutable(1690):1-0
14/06/2017:Tournoi n°16716 qasar(1770)-leredoutable(1680):1-0
14/06/2017:Eq:Pirates du Mat-Les Quebecois : zukchess(1599)-johan1977(2160):0-1
14/06/2017:Coupe Niveau 6 saurug(2390)-bigbobo(2300):1-0
14/06/2017:Tournoi n°16605 bricekiller(1480)-sampiero2a(1430):0-1
14/06/2017:Tournoi n°16485 patau(1810)-bnj(1750):0-1
14/06/2017:Tournoi n°16529 breitenbach(2350)-bobo(2280):1/2-1/2
14/06/2017:Eq:Les Corsaires de Lechiquier-les modestes : ludovique(2680)-izemassalas(2710):1-0
14/06/2017:Défi jyf(1830)-patau(1910):1-0
14/06/2017:Défi arzbro(1570)-vvvv(1690):0-1
14/06/2017:Défi maluel(1580)-marieclaire(1350):1-0
14/06/2017:Défi kaspi007(2090)-gfcyoupi(2130):1-0
14/06/2017:Défi patau(1840)-regis08(1880):0-1
14/06/2017:Défi azur(1630)-tbeau44(1660):1-0
14/06/2017:Défi papymiche(1740)-arno(1710):1-0
14/06/2017:thewolf 2 thewolf(1460)-tiounet(1620):0-1
14/06/2017:Tournoi n°16626 pgcbies(2770)-jacks(2730):1/2-1/2
14/06/2017:Tournoi n°16689 verson(1890)-papillon22(1740):0-1
14/06/2017:Tournoi n°16654 camilg(1150)-redqueen(1230):0-1
14/06/2017:Tournoi n°16579 ohnopleyel(1420)-katastrofic(1490):0-1
14/06/2017:Tournoi n°16593 mayaapof(1630)-panchoa(1600):1-0
14/06/2017:Tournoi n°16662 kawa750(1630)-cramsnellac(1800):0-1
14/06/2017:Tournoi n°16667 kawa750(1630)-ghostdog(1740):0-1
14/06/2017:Tournoi n°16695 vulcain14(1590)-coyotov(1650):1-0
14/06/2017:Tournoi n°16717 verson(1940)-u27940(1910):0-1
14/06/2017:Tournoi n°16722 qasar(1770)-homer31(1710):1-0
14/06/2017:Eq:LES CHATTERBOX-Les vaillants : ephixe(1730)-ben18(2059):0-1
14/06/2017:Eq:Pirates du Mat-Danielsen City : azerty1(2270)-eltche(2400):0-1
14/06/2017:Eq:Pirates du Mat-Les Corsaires de Lechiquier : scroff(2650)-eltche(2400):1-0
14/06/2017:Eq:Danielsen City-O fou d hello : flo71(1850)-azerty1(2270):0-1
14/06/2017:Défi marieclaire(1280)-rambonov(1570):0-1
14/06/2017:Défi tropa(1240)-ralexus2008(1000):1-0
14/06/2017:Défi koi34(1830)-albescab(1610):1-0
14/06/2017:Défi azur50(1680)-hberlioz(1620):1-0
14/06/2017:thewolf 2 bigoudi(1050)-bmwm3(1350):1-0
14/06/2017:Tournoi n°16506 karim(1750)-intrigue(1730):1-0
14/06/2017:Tournoi n°16384 karim(1680)-mistralgagnant(1830):1-0
14/06/2017:Tournoi n°16705 benson(1470)-jlr(1370):1-0
14/06/2017:Tournoi n°16686 marieclaire(1360)-c69(1410):0-1
14/06/2017:Eq:les modestes-London : thierry7ardeche(2020)-air-3-bud(1750):1-0
14/06/2017:Défi papymiche(1730)-patau(1820):1-0
14/06/2017:Défi turbo(1530)-fatia(1199):1-0
14/06/2017:Défi albescab(1620)-turbo(1510):1-0
14/06/2017:Défi patau(1840)-breitenbach(2370):0-1
14/06/2017:Défi cortaz(1920)-arno(1740):1-0
14/06/2017:Loudia yves1972(1970)-mousse22(1480):1-0
14/06/2017:Fête des pères xxxx(1099)-galaxys7(1210):1-0
14/06/2017:Tournoi n°16730 kala(1800)-jazzzz(1780):1-0
14/06/2017:Tournoi n°16681 simer(1780)-tinenfant(1810):0-1
14/06/2017:Tournoi n°16573 upsalin(1670)-loal(1610):1/2-1/2
14/06/2017:Tournoi n°16591 jellel67(1770)-leet(1700):0-1
14/06/2017:Tournoi n°16728 sampiero2a(1390)-tichaton(1480):0-1
14/06/2017:Tournoi n°16669 afeyte(1770)-tartu(1690):0-1
14/06/2017:Tournoi n°16736 kala(1810)-arno(1740):1-0
14/06/2017:Eq:Les Gens du Sud-Danielsen City : dragon(1940)-eanouis(2030):0-1
14/06/2017:Eq:les chics capons-Les Quebecois : chessgaston(2020)-chloridrix(1550):1-0
14/06/2017:Coupe Niveau 1 echecs76(1930)-jlr(1370):1-0
14/06/2017:Défi patau(1820)-dragon(1940):0-1
14/06/2017:Défi roger72(1410)-gervaise(1100):1-0
14/06/2017:Défi morloch(1890)-jokotov(1870):1-0
14/06/2017:Défi patau(1820)-skalfa(1750):1/2-1/2
14/06/2017:Défi flo71(1860)-hberlioz(1610):1-0
14/06/2017:Défi gilberthellemans(1630)-mayaapof(1660):0-1
14/06/2017:Défi azur50(1670)-angerpat(1540):1-0
14/06/2017:Défi cricri57(1860)-arno(1710):0-1
14/06/2017:atteindrelessommets crca(1920)-skalfa(1740):0-1
14/06/2017:thewolf 2 lecevenol(1360)-ascensseur(1620):0-1
14/06/2017:Tournoi n°16736 arno(1740)-simer(1760):0-1
14/06/2017:Tournoi n°16697 vvvv(1690)-tartu(1650):0-1
14/06/2017:Tournoi n°16396 pgcbies(2760)-lasker(2400):1/2-1/2
14/06/2017:Tournoi n°16736 tiounet(1670)-simer(1760):0-1
14/06/2017:Tournoi n°16734 pgo(1800)-verson(1930):1/2-1/2
14/06/2017:Eq:les modestes-Les Corsaires de Lechiquier : levelmax(2810)-mohamedramdane(2710):1-0
14/06/2017:Eq:Les Gens du Sud-Mission Impossible : maya24(1640)-emmanuel69(1730):0-1
14/06/2017:Eq:Danielsen City-O fou d hello : eanouis(2020)-yab414(1600):1-0
14/06/2017:Défi hargas(1930)-oscar(2330):0-1
14/06/2017:Défi timeck(1650)-vb83(1480):0-1
14/06/2017:Défi lebarov(1750)-letsplay(1640):0-1
14/06/2017:Défi flosuper(1990)-orchidee(2010):0-1
14/06/2017:Défi bidoche(1710)-pascalou50(1640):0-1
14/06/2017:Défi antoinenono(1400)-nanaluce(1040):1-0
14/06/2017:Défi patau(1850)-elgringo(1970):0-1
14/06/2017:Défi toucco67(1670)-ghostdog(1750):1-0
14/06/2017:Défi kleoj(2080)-carabas(2050):0-1
14/06/2017:Défi claudus(1710)-pierre1(1790):0-1
14/06/2017:Défi jajaf1959(1860)-patau(1810):1-0
14/06/2017:Défi epervier14(1520)-albescab(1620):1-0
14/06/2017:Défi patau(1810)-otrigo3(1870):1-0
14/06/2017:Défi hargas(2000)-chedru2000(2190):0-1
14/06/2017:Défi flosuper(2000)-hargas(2000):1-0
14/06/2017:allez y doucement dragon(1930)-leet(1690):1-0
14/06/2017:Fête des pères coyotov(1660)-tiounet(1680):0-1
14/06/2017:Tournoi n°16576 janul13(1690)-clisson44(1510):1-0
14/06/2017:Tournoi n°16565 paulcaresse(2470)-conde7(2850):1/2-1/2
14/06/2017:Tournoi n°16699 mayaapof(1670)-coyotov(1660):0-1
14/06/2017:Défi hargas(1900)-ecjc(1970):0-1
14/06/2017:Défi tartu(1720)-patau(1820):1/2-1/2
14/06/2017:Défi marco2lr(1360)-roidechecs(1220):1-0
14/06/2017:Défi alain34(2170)-ryba(1980):1-0
14/06/2017:Défi epervier(1850)-campa(1710):1-0
14/06/2017:Défi jahfighter(1440)-azur50(1670):0-1
14/06/2017:Tournoi échelle division 3 mayaapof(1720)-thewolf(1460):1-0
14/06/2017:Tournoi n°16675 bibi07(1410)-katastrofic(1490):0-1
14/06/2017:Tournoi n°16728 sampiero2a(1390)-joel(1390):0-1
14/06/2017:Tournoi n°16700 verson(1890)-aramis(1730):1-0
14/06/2017:Tournoi n°16708 thierry06(1830)-defense(1850):1-0
14/06/2017:Tournoi n°16722 qasar(1770)-leredoutable(1660):0-1
14/06/2017:Tournoi n°16722 leredoutable(1660)-homer31(1710):0-1
14/06/2017:Tournoi n°16649 thewolf(1550)-bilou75(1420):1-0
14/06/2017:Défi fly(1990)-jmr(1550):0-1
14/06/2017:Défi morloch(1970)-jimi50(1910):0-1
14/06/2017:Défi becquetolivier(1290)-sylvaingrenoble(1190):1-0
14/06/2017:Pour des joueurs cool janolapin(1760)-intrigue(1730):1-0
14/06/2017:Faites vos jeux flmnh(1790)-dragon(1940):0-1
14/06/2017:Tournoi n°16622 pilouface(1500)-yann56(1580):0-1
14/06/2017:Tournoi n°16445 cuda71(1980)-emmanuel(1890):0-1
14/06/2017:Tournoi n°16728 joel(1390)-tichaton(1480):1-0
14/06/2017:Tournoi n°16641 vvvv(1690)-nogean(1640):0-1
14/06/2017:Tournoi n°16669 tiounet(1610)-afeyte(1770):1/2-1/2
14/06/2017:Tournoi n°16716 noelleon(1809)-wendydydy(1650):1-0
14/06/2017:Eq:Les vaillants -les fous de bassans : anderssen(2240)-undo(1809):1-0
14/06/2017:Eq:Les vaillants -les fous de bassans : undo(1809)-anderssen(2240):0-1
14/06/2017:Coupe Niveau 1 echecs76(1910)-yann56(1550):1-0
14/06/2017:Défi 1bri(1840)-agamanevaceo(2070):0-1
14/06/2017:Défi tonton77(1860)-chocotov(2070):0-1
14/06/2017:Défi anumisme(1310)-roidechecs(1210):1-0
14/06/2017:Défi xav(1490)-castor(1360):1-0
14/06/2017:Défi nicolasvh(1620)-carlsen10(1960):0-1
14/06/2017:Défi wenoketo(1610)-epervier14(1520):0-1
14/06/2017:Défi roquefort(1920)-arno(1750):1-0
14/06/2017:Défi bassdark(2080)-cocodou(1950):0-1
14/06/2017:Défi tunellavage(1780)-cortaz(1810):0-1
14/06/2017:Défi chocotov(2060)-mozinor(2300):0-1
14/06/2017:Défi chocotov(2080)-francisco63(1970):0-1
14/06/2017:Défi xav(1460)-timeo35220(1000):1-0
14/06/2017:Pour le plaisir 38 pascalou50(1680)-intrigue(1690):0-1
15/06/2017:Tournoi n°16633 nexus38(1630)-homer31(1690):1-0
15/06/2017:Tournoi n°16649 geronimo23(1479)-bilou75(1420):0-1
15/06/2017:Eq:Pirates du Mat-Royal Kids : regor(2070)-philou(1910):1/2-1/2
15/06/2017:Défi anumisme(1350)-fanch2pic(1340):0-1
15/06/2017:Défi gonzok67(1740)-laetitia67(1510):1-0
15/06/2017:Défi gonzok67(1780)-ptitefrez(2090):0-1
15/06/2017:Défi ryba(1960)-lancov(1990):1-0
15/06/2017:Défi hberlioz(1650)-gilberthellemans(1620):1-0
15/06/2017:Rapide ryba(1600)-tipix(1599):0-1
15/06/2017:Rapide bertelsen(1320)-blackrider(1169):0-1
15/06/2017:Rapide bertelsen(1320)-qasar(1380):0-1
15/06/2017:Rapide verson(1510)-degun(1540):0-1
15/06/2017:Rapide foxie519(1300)-bertelsen(1290):1/2-1/2
15/06/2017:salut8 fly(1980)-tiounet(1720):0-1
15/06/2017:Tournoi échelle champions domenico(1830)-pgo(1790):1-0
15/06/2017:Tournoi n°16539 fredbauduret(1780)-mequinho(1810):1-0
15/06/2017:Coupe Niveau 1 ascensseur(1590)-patau(1880):0-1
15/06/2017:Pour le plaisir 37 thewolf(1500)-ascensseur(1590):0-1
15/06/2017:Le vieux Roi 5 legrillon(1810)-ascensseur(1610):1-0
15/06/2017:Défi hberlioz(1650)-moris54(1960):0-1
15/06/2017:Défi kleoj(2010)-garlik(1970):0-1
15/06/2017:Tournoi échelle division 3 harrypotter(1280)-blackrider(1869):0-1
15/06/2017:Tournoi n°16711 arno(1710)-ghostdog(1710):1-0
15/06/2017:Tournoi n°16711 gonzok67(1780)-arno(1710):1/2-1/2
15/06/2017:Tournoi n°16648 jlr(1480)-bibi07(1350):1-0
15/06/2017:Tournoi n°16691 manulatus(1930)-plaisance(1930):1/2-1/2
15/06/2017:Tournoi n°16702 cineyxp(1630)-verson(1890):1/2-1/2
15/06/2017:Tournoi n°16665 fredbauduret(1850)-tonton77(1870):0-1
15/06/2017:Tournoi n°16719 qasar(1760)-leredoutable(1670):0-1
15/06/2017:Défi jimi50(1900)-hberlioz(1620):0-1
15/06/2017:Défi domenico(1830)-patau(1820):1-0
15/06/2017:Défi kleoj(2010)-regor(2090):0-1
15/06/2017:Le vieux Roi 5 qasar(1780)-roschecx(1700):0-1
15/06/2017:Cobra n° 5 karkaskat(2130)-fooy33(1880):1-0
15/06/2017:Tournoi échelle champions zincou75(2040)-patau(1840):1-0
15/06/2017:Tournoi échelle champions verson(1950)-pgo(1790):1-0
15/06/2017:Tournoi n°15917 tomi1st(2000)-thierry7ardeche(2030):0-1
15/06/2017:Tournoi n°16541 qasar(1740)-mistralgagnant(1860):0-1
15/06/2017:Tournoi n°16734 verson(1960)-garlik(1990):1/2-1/2
15/06/2017:Tournoi n°16664 wenoketo(1610)-coppola(1450):1-0
15/06/2017:Tournoi n°16664 coppola(1450)-panchoa(1570):0-1
15/06/2017:Eq:Danielsen City-les biquetoces : ypap(1940)-bazart(1970):0-1
15/06/2017:Eq:les biquetoces-Les Corsaires de Lechiquier : adrian(2410)-apollon(2760):1-0
15/06/2017:Eq:Les Gens du Sud-O fou d hello : yab414(1660)-tetene(1650):0-1
15/06/2017:Eq:Pirates du Mat-CHESS MASTER : johan1977(2160)-zayka(1950):1-0
15/06/2017:Défi kerenor(1600)-harrypotter(1350):1-0
15/06/2017:Défi patau(1820)-vvvv(1670):0-1
15/06/2017:Le vieux Roi 5 qasar(1780)-mathador93(1480):0-1
15/06/2017:Tournoi n°16562 thomas(1280)-cyberdogbert(1170):1-0
15/06/2017:Tournoi n°16561 upsalin(1680)-afeyte(1700):1-0
15/06/2017:Eq:Vikings-les modestes : spectrass(2010)-berniz(2260):0-1
15/06/2017:Eq:Pirates du Mat-Les Corsaires de Lechiquier : eltche(2400)-scroff(2650):1/2-1/2
15/06/2017:Eq:les chics capons-Les Quebecois : chloridrix(1550)-chessgaston(2020):0-1
15/06/2017:Défi venaline(2160)-kaspi007(2080):1-0
15/06/2017:Défi maluel(1580)-roidechecs(1220):1-0
15/06/2017:Défi tonio14(1310)-maluel(1580):0-1
15/06/2017:Défi apocalypce(1800)-plaisance(1930):0-1
15/06/2017:Défi patau(1800)-pgo(1770):0-1
15/06/2017:Défi bastet(1000)-quentaro(1210):1-0
15/06/2017:Défi bechtoune(2220)-kleoj(2010):1-0
15/06/2017:Défi patau(1840)-domenico(1830):1-0
15/06/2017:Pour le plaisir 37 turbo(1530)-ascensseur(1590):0-1
15/06/2017:Faites vos jeux puma1965(1180)-leet(1720):0-1
15/06/2017:Tournoi échelle champions mistralgagnant(1860)-gonzok67(1770):1-0
15/06/2017:Tournoi échelle champions ptitefrez(2060)-salut(1980):0-1
15/06/2017:Tournoi échelle division 3 thewolf(1490)-kaspadesbrik(1880):0-1
15/06/2017:Tournoi n°16562 cyberdogbert(1170)-redqueen(1220):1-0
15/06/2017:Eq:O fou d hello-les chics capons : choucki11(1670)-yab414(1620):1-0
15/06/2017:Défi maximax(1100)-antoinenono(1400):0-1
15/06/2017:Défi moi50(1700)-burgman(2120):0-1
15/06/2017:Défi pourquoipas(1500)-kaspy(1640):1-0
15/06/2017:Défi zodiac(1720)-patau(1870):0-1
15/06/2017:Défi gobois(1740)-albescab(1610):1-0
15/06/2017:Défi lecouz(1600)-azur50(1680):0-1
15/06/2017:Défi timeo35220(1000)-jellel67(1740):0-1
15/06/2017:Défi pierrejean(1360)-joel(1390):1-0
15/06/2017:Défi campa(1680)-cocodou(1940):0-1
15/06/2017:Tournoi échelle division 3 coppola(1450)-gaspard83(1650):0-1
15/06/2017:Tournoi n°16218 daniel1(1730)-patau(1790):0-1
15/06/2017:Tournoi n°16731 simer(1730)-zodiac(1740):1-0
15/06/2017:Tournoi n°16731 tiounet(1680)-zodiac(1740):1-0
15/06/2017:Tournoi n°16716 tiounet(1660)-leredoutable(1680):1-0
15/06/2017:Coupe Niveau 1 fly(1960)-daniel1(1710):1-0
15/06/2017:Défi moi50(1700)-leredoutable(1710):1-0
15/06/2017:Défi felicio(2130)-kleoj(2090):1-0
15/06/2017:Défi moi50(1760)-damotte(2020):0-1
15/06/2017:Défi letsplay(1640)-vb83(1490):0-1
15/06/2017:Défi regor(2070)-loloth77(1810):1-0
15/06/2017:Défi bertelsen(1730)-hberlioz(1610):1/2-1/2
15/06/2017:Faites vos jeux leet(1720)-tiounet(1640):1-0
15/06/2017:Tournoi n°16539 zodiac(1770)-mequinho(1800):0-1
15/06/2017:Tournoi n°16703 qsdmlk(1630)-angerpat(1510):0-1
15/06/2017:Tournoi n°16675 katastrofic(1510)-jlr(1450):1-0
15/06/2017:Tournoi n°16729 tiounet(1660)-wenoketo(1580):1-0
15/06/2017:Eq:Les Quebecois-Mission Impossible : anakin(2170)-roschecx(1690):1-0
15/06/2017:Défi flo71(1860)-tartu(1700):1-0
15/06/2017:Défi zozo(1610)-janul13(1730):0-1
15/06/2017:Défi tiounet(1660)-wenoketo(1580):1-0
15/06/2017:Défi marieclaire(1350)-vincentcoste(1770):0-1
15/06/2017:Défi pgo(1780)-vvvv(1660):0-1
15/06/2017:Défi ryba(1960)-alain34(2170):1/2-1/2
15/06/2017:Alekhine pour les Nuls ptitefrez(2070)-dragon(1920):1-0
15/06/2017:Le vieux Roi 5 tiounet(1640)-roschecx(1700):0-1
15/06/2017:thewolf 2 ascensseur(1620)-lecevenol(1360):1-0
15/06/2017:Tournoi n°16710 upsalin(1700)-coyotov(1670):1-0
15/06/2017:Tournoi n°16734 garlik(1990)-manulatus(1920):1-0
15/06/2017:Tournoi n°16703 qsdmlk(1630)-intrigue(1680):0-1
15/06/2017:Eq:Les Gens du Sud-Vikings : moutarde18(1890)-dragon(1920):1-0
15/06/2017:Eq:Pirates du Mat-CHESS MASTER : c69(1410)-philou(1910):0-1
15/06/2017:Défi moi50(1800)-volatile(2410):0-1
15/06/2017:allez y doucement emmanuel(1940)-blackbishop(1910):0-1
15/06/2017:allez y doucement leet(1690)-emmanuel(1940):1-0
15/06/2017:Le vieux Roi 5 qasar(1780)-ascensseur(1610):0-1
15/06/2017:Faites vos jeux kaspouille(2330)-intrigue(1700):1-0
15/06/2017:Symphonie n°1 laetitia67(1440)-tiounet(1640):1-0
15/06/2017:Symphonie n°1 flmnh(1790)-karkaskat(2120):0-1
15/06/2017:Tournoi n°16634 arno(1650)-moutarde18(1890):0-1
15/06/2017:Tournoi n°16501 vb83(1470)-bricekiller(1440):1-0
15/06/2017:Tournoi n°16530 karim(1790)-papillon22(1740):1-0
15/06/2017:Eq:Les pousseur de bois-O fou d hello : gasperzero(2030)-kichmat(1980):1/2-1/2
15/06/2017:Eq:Pirates du Mat-Royal Kids : philou(1910)-regor(2070):0-1
15/06/2017:Défi gasperzero(1599)-jyf(1830):1-0
15/06/2017:Défi calcedoine(1950)-loe123(1900):0-1
15/06/2017:Défi bibisept(1880)-carlsen10(1340):0-1
15/06/2017:Défi ephixe(1750)-jazzzz(1820):0-1
15/06/2017:Défi anumisme(1400)-mc2108(1040):1-0
15/06/2017:Défi arno(1770)-cramsnellac(1810):1-0
15/06/2017:Défi pierre1(1790)-cramsnellac(1810):1-0
15/06/2017:Défi temistocles(1430)-hberlioz(1620):0-1
15/06/2017:Tournoi échelle division 2 qasar(1770)-tifointer(1910):0-1
16/06/2017:Tournoi n°16523 mistralgagnant(1840)-kawa750(1600):1-0
16/06/2017:Tournoi n°16396 piteau(2699)-jacks(2730):1-0
16/06/2017:Défi tonio14(1310)-kawa750(1580):1-0
16/06/2017:Défi cortaz(1930)-cloclo(1750):1-0
16/06/2017:Rapide ryba(1600)-degun(1540):1-0
16/06/2017:Rapide kaspouille(1730)-gl1(1820):0-1
16/06/2017:Rapide zodiac(1370)-verson(1510):1-0
16/06/2017:Rapide verson(1510)-moloch(1440):1/2-1/2
16/06/2017:Rapide salut(1490)-moloch(1470):1-0
16/06/2017:Rapide bertelsen(1290)-zodiac(1370):0-1
16/06/2017:Rapide cricri57(1420)-verson(1500):1-0
16/06/2017:Rapide djayphil(1560)-verson(1500):1/2-1/2
16/06/2017:Faites vos jeux karkaskat(2130)-dragon(1940):0-1
16/06/2017:Tournoi n°16719 tiounet(1670)-leredoutable(1680):1-0
16/06/2017:Eq:Royal Kids-London : petitboy(2240)-nicodemouscron(2110):0-1
16/06/2017:Faites vos jeux dragon(1940)-leet(1720):1-0
16/06/2017:Tournoi n°16563 samchess(1780)-verson(1900):0-1
16/06/2017:Tournoi n°16678 legrillon(1850)-verson(1850):1-0
16/06/2017:Tournoi n°16688 mokanne(1540)-upsalin(1700):1/2-1/2
16/06/2017:Coupe Niveau 1 qasar(1770)-jlr(1400):1-0
16/06/2017:Coupe Niveau 3 hilts(2190)-salut(1950):1-0
16/06/2017:Défi lens37(2230)-koblenz(2180):1-0
16/06/2017:un petit tour en espagne echecs76(1950)-fly(1950):1-0
16/06/2017:Tournoi échelle champions domenico(1830)-verson(1960):0-1
16/06/2017:Tournoi n°16658 kiki24(1840)-pgo(1820):1/2-1/2
16/06/2017:Tournoi n°16729 upsalin(1670)-wenoketo(1580):1-0
16/06/2017:Coupe Niveau 2 janolapin(1820)-verson(1870):1-0
16/06/2017:Coupe Niveau 1 qasar(1740)-saruman(1710):1/2-1/2
16/06/2017:Défi hargas(1890)-rocketman(2050):0-1
16/06/2017:Défi zozo(1620)-marieclaire(1360):1-0
16/06/2017:Défi fly(2000)-cloclo(1800):0-1
16/06/2017:Défi epervier14(1560)-hugues(1470):1-0
16/06/2017:Défi patau(1800)-gonzok67(1730):0-1
16/06/2017:Défi chobi(1710)-patau(1790):1-0
16/06/2017:Défi chevalice(1570)-tryphon(1560):1-0
16/06/2017:Symphonie n°1 karkaskat(2120)-tartu(1650):0-1
16/06/2017:Tournoi n°16655 kawa750(1620)-lychar(1770):1-0
16/06/2017:Tournoi n°16674 upsalin(1700)-marco(1590):1-0
16/06/2017:Tournoi n°16700 aramis(1730)-arno(1720):0-1
16/06/2017:Tournoi n°16719 intrigue(1700)-tiounet(1670):1/2-1/2
16/06/2017:Eq:les chics capons-Les Oiseaux d Amsterdam : yatman(2100)-fcbbryan(2050):1/2-1/2
16/06/2017:Eq:Royal Kids-London : air-3-bud(1770)-pgo(1800):1/2-1/2
16/06/2017:Coupe Niveau 9 jvv(2820)-maitreabord(2790):1/2-1/2
16/06/2017:Coupe Niveau 5 bigbobo(2290)-echecs76(1930):1-0
16/06/2017:Coupe Niveau 2 emmanuel(1960)-verson(1850):0-1
16/06/2017:Défi mandragore(2169)-morphy(2179):1/2-1/2
16/06/2017:Défi jazzzz(1790)-patau(1820):1-0
16/06/2017:Défi katastrofic(1510)-jetjet91330(2180):0-1
16/06/2017:Défi redqueen(1220)-chevalice(1570):1-0
16/06/2017:Défi jpjay(1790)-arno(1710):0-1
16/06/2017:Défi echecs76(1960)-alexei31(1930):0-1
16/06/2017:Faites vos jeux intrigue(1700)-karkaskat(2130):1/2-1/2
16/06/2017:brin de foin tiounet(1690)-qasar(1760):1-0
16/06/2017:Tournoi n°16648 angelcrab(1430)-mousse22(1480):1-0
16/06/2017:Tournoi n°16722 arno(1720)-qasar(1770):1-0
16/06/2017:Tournoi n°16723 verson(1900)-baranowsky(1780):1/2-1/2
16/06/2017:Défi ghostdog(1720)-perepeinard34(1440):1-0
16/06/2017:Défi alexei31(1920)-oswaldo(1930):1/2-1/2
16/06/2017:Défi gervaise(1110)-jonasvh05(1209):1-0
16/06/2017:Défi jajaf1959(1880)-nimzoindien(1880):1/2-1/2
16/06/2017:Défi antoinenono(1400)-wendydydy(1660):0-1
16/06/2017:Pour le plaisir 38 petitlulu64(1710)-intrigue(1690):0-1
16/06/2017:Tournoi échelle champions patau(1840)-chronik(2090):0-1
16/06/2017:Tournoi échelle division 3 tipix(1660)-thewolf(1550):1-0
16/06/2017:Tournoi n°16740 qasar(1770)-leredoutable(1670):0-1
16/06/2017:Tournoi n°16620 afeyte(1740)-qasar(1780):1-0
16/06/2017:Tournoi n°16668 fooy33(1880)-petitlulu64(1720):1-0
16/06/2017:Tournoi n°16531 magyar(1510)-thewolf(1500):0-1
16/06/2017:Tournoi n°16731 simer(1730)-leredoutable(1660):1-0
16/06/2017:Tournoi n°16740 qasar(1770)-afeyte(1780):0-1
16/06/2017:Tournoi n°16703 magyar(1570)-qsdmlk(1630):0-1
16/06/2017:Tournoi n°16730 jazzzz(1780)-arno(1750):1-0
16/06/2017:Tournoi n°16609 pitouwb(1800)-verson(1830):0-1
16/06/2017:Tournoi n°16669 qasar(1770)-afeyte(1770):0-1
16/06/2017:Tournoi n°16668 leredoutable(1660)-patau(1820):1-0
16/06/2017:Tournoi n°16740 tiounet(1680)-qasar(1770):1-0
16/06/2017:Eq:les biquetoces-LES CHATTERBOX : bazart(1980)-ephixe(1790):0-1
16/06/2017:Eq:Royal Kids-London : pgo(1800)-air-3-bud(1770):0-1
16/06/2017:Coupe Niveau 1 qasar(1750)-verson(1930):0-1
16/06/2017:Défi manulatus(1890)-patau(1900):1-0
16/06/2017:Défi pierrejean(1390)-thewolf(1440):0-1
16/06/2017:Défi hebro(1820)-temistocles(1480):1-0
16/06/2017:Défi homer31(1690)-patau(1820):1-0
16/06/2017:Le vieux Roi 5 janolapin(1800)-qasar(1780):1-0
16/06/2017:Faites vos jeux ascensseur(1580)-leet(1720):1-0
16/06/2017:Tournoi n°16741 coyotov(1670)-tiounet(1680):0-1
16/06/2017:Tournoi n°16710 katastrofic(1520)-upsalin(1700):0-1
16/06/2017:Tournoi n°16737 barake(1620)-tiounet(1660):0-1
16/06/2017:Tournoi n°16610 artistepeintre(1490)-roxane(1510):1-0
16/06/2017:Tournoi n°16659 vb83(1520)-speedyfil(1540):0-1
16/06/2017:Tournoi n°16699 wenoketo(1600)-mayaapof(1670):0-1
16/06/2017:Tournoi n°16707 verson(1920)-dragon(1930):0-1
16/06/2017:Eq:les modestes-London : rvsinovitch(1980)-jetjet91330(2200):0-1
16/06/2017:Défi lens37(2210)-eagleatlas(2160):1-0
16/06/2017:Défi superman(1720)-lebarov(1750):0-1
16/06/2017:Défi wenoketo(1600)-superman(1800):0-1
16/06/2017:Défi patau(1820)-domenico(1820):1-0
16/06/2017:Défi johndoe(2120)-chedru2000(2190):0-1
16/06/2017:albatros 9 sylvainwb(1540)-titit1(1340):1-0
16/06/2017:albatros 9 lamagouille(1490)-thewolf(1500):1-0
16/06/2017:thewolf 2 lecevenol(1360)-thewolf(1460):0-1
16/06/2017:thewolf 2 tiounet(1620)-turbo(1510):1-0
16/06/2017:Faites vos jeux leet(1720)-kaspouille(2330):0-1
16/06/2017:Fête des pères coyotov(1660)-lecevenol(1380):0-1
16/06/2017:Tournoi échelle division 2 tifointer(1920)-zozo(1610):1-0
16/06/2017:Tournoi n°16745 simer(1750)-janul13(1740):1-0
16/06/2017:Tournoi n°16504 mathildedn(1380)-jlr(1420):0-1
16/06/2017:Tournoi n°16708 verson(1920)-defense(1850):1-0
16/06/2017:Tournoi n°16675 ffred(1510)-marieclaire(1360):1-0
16/06/2017:Tournoi n°16734 pgo(1760)-garlik(1990):0-1
16/06/2017:Tournoi n°16704 mojo(1810)-kala(1790):0-1
16/06/2017:Tournoi n°16671 tartu(1690)-ycar(1640):1-0
16/06/2017:Tournoi n°16707 cuda71(1950)-desaintfegor(1920):1-0
16/06/2017:Eq:les aquitains-les fous de bassans : undo(1809)-chomi64(1910):0-1
16/06/2017:Coupe Niveau 1 undo(1809)-jlr(1440):0-1
16/06/2017:Coupe Niveau 1 tipix(1699)-echecs76(1920):1/2-1/2
16/06/2017:Défi anumisme(1400)-antoinenono(1390):0-1
16/06/2017:Défi ramo(1670)-superman(1790):1-0
16/06/2017:Défi clooock(1570)-alain69009(1570):1-0
16/06/2017:Défi hackidoc(1870)-cortaz(1860):1-0
16/06/2017:Pour le plaisir 37 qsdmlk(1620)-thewolf(1500):1-0
16/06/2017:Symphonie n°1 leet(1740)-karkaskat(2120):1/2-1/2
16/06/2017:Symphonie n°1 leet(1740)-tartu(1650):0-1
16/06/2017:Tournoi échelle champions salut(1950)-domenico(1830):0-1
16/06/2017:Tournoi n°16704 leredoutable(1690)-arno(1710):0-1
16/06/2017:Tournoi n°16556 aramis(1730)-leredoutable(1750):1-0
16/06/2017:Tournoi n°16667 kawa750(1630)-legros(1730):0-1
16/06/2017:Tournoi n°16692 simer(1790)-clemm(1670):1-0
16/06/2017:Tournoi n°16723 leredoutable(1660)-verson(1900):1-0
16/06/2017:Tournoi n°16718 cicerond(1400)-angelcrab(1480):0-1
16/06/2017:Tournoi n°16736 kala(1810)-tiounet(1670):1-0
16/06/2017:Tournoi n°16750 thierry06(1790)-arno(1730):1-0
16/06/2017:Tournoi n°16750 thierry06(1790)-tartu(1710):1-0
16/06/2017:Eq:cotenstock-Les Seigneurs de l Atlantide : tjspret(1770)-mysteryman62(2020):1-0
16/06/2017:Eq:Les vaillants -Pirates du Mat : loulou14(2159)-rackam(1990):1-0
16/06/2017:Défi vic8t(2040)-bricekiller(1450):1-0
16/06/2017:Défi intrigue(1670)-loal(1620):1-0
16/06/2017:Défi pitchoune50(1070)-anumisme(1370):0-1
16/06/2017:Défi malvina(1270)-steflam(1510):0-1
16/06/2017:Défi apocalypce(1860)-regor(2090):0-1
16/06/2017:Défi woozie(2190)-tyakyx(2170):1-0
16/06/2017:Défi letsplay(1590)-wenoketo(1570):0-1
16/06/2017:Le vieux Roi 5 thewolf(1480)-qasar(1780):0-1
16/06/2017:Fête des pères lecevenol(1380)-tartu(1660):0-1
16/06/2017:Tournoi échelle division 3 feenschach(2030)-emmanuel(1960):1-0
16/06/2017:Tournoi échelle champions dragon(1930)-salut(1980):0-1
16/06/2017:Tournoi échelle champions salut(1970)-pgo(1780):0-1
16/06/2017:Tournoi n°16631 ghostdog(1710)-clemm(1680):1-0
16/06/2017:Tournoi n°16734 garlik(1990)-desaintfegor(1920):1/2-1/2
16/06/2017:Tournoi n°16675 marieclaire(1360)-bibi07(1420):0-1
16/06/2017:Tournoi n°16652 mathador93(1480)-panchoa(1580):1-0
16/06/2017:Tournoi n°16736 tiounet(1670)-arno(1750):1-0
16/06/2017:Tournoi n°16712 sampiero2a(1400)-bibi07(1450):1-0
16/06/2017:Tournoi n°16719 leredoutable(1680)-kiki(1840):1-0
16/06/2017:Eq:les modestes-les parias : avefenix17(2580)-aphatsum(2290):1-0
16/06/2017:Eq:Les Seigneurs de l Atlantide-Pirates du Mat : mrmatchnul(2320)-volatile(2400):0-1
16/06/2017:Défi bmwm3(1199)-deric(1650):0-1
16/06/2017:Défi renec(1720)-zozo(1610):1-0
16/06/2017:Défi lilith(1220)-aieto(999):1-0
16/06/2017:Défi pascalou50(1670)-pitchoune50(1070):1-0
16/06/2017:Défi tian(1370)-steflam(1500):0-1
16/06/2017:Défi koi34(1830)-jpjay(1810):1-0
16/06/2017:Défi ramo(1680)-cortaz(1890):1-0
16/06/2017:Défi loki51(1830)-alain84(1760):0-1
16/06/2017:Défi regor(2080)-ryba(1960):0-1
16/06/2017:Défi lillic(1920)-xxxx(1099):0-1
16/06/2017:Faites vos jeux leet(1720)-dragon(1940):0-1
16/06/2017:Symphonie n°1 karkaskat(2120)-ascensseur(1590):1-0
16/06/2017:Tournoi échelle division 2 ascensseur(1570)-tifointer(1910):0-1
17/06/2017:Tournoi n°16383 lepiton(2170)-mazdaroket(2040):0-1
17/06/2017:Défi cortaz(1890)-tiounet(1680):1-0
17/06/2017:Défi moi50(1800)-eltche(2400):0-1
17/06/2017:Défi flosuper(1990)-jimi50(1900):0-1
17/06/2017:Défi kaby771(2130)-ascensseur(1600):1-0
17/06/2017:Défi garlik(1970)-hargas(2000):1-0
17/06/2017:Défi jimi50(1900)-azur50(1670):1/2-1/2
17/06/2017:Défi mandragore(2239)-karim(1810):0-1
17/06/2017:Rapide loursdu07(1739)-kaspouille(1760):1-0
17/06/2017:Rapide moloch(1420)-bertelsen(1300):1-0
17/06/2017:Rapide degun(1540)-zodiac(1370):1-0
17/06/2017:Rapide verson(1510)-ryba(1610):0-1
17/06/2017:Rapide qasar(1380)-verson(1500):0-1
17/06/2017:Rapide degun(1530)-moloch(1500):0-1
17/06/2017:Rapide verson(1490)-bertelsen(1290):1-0
17/06/2017:Rapide degun(1530)-verson(1490):0-1
17/06/2017:Alekhine pour les Nuls ascensseur(1590)-ptitefrez(2070):0-1
17/06/2017:Faites vos jeux flmnh(1790)-ascensseur(1580):1-0
17/06/2017:Symphonie n°1 flmnh(1790)-ascensseur(1590):0-1
17/06/2017:Symphonie n°1 ascensseur(1590)-flmnh(1790):0-1
17/06/2017:Eq:les modestes-Les Corsaires de Lechiquier : phgrill(2790)-izemassalas(2690):1/2-1/2
17/06/2017:Défi hargas(1900)-payne42(1740):1-0
17/06/2017:Défi kleoj(2010)-woozie(2190):0-1
17/06/2017:Pour le plaisir de jouer fly(2010)-zakariaabdelaziz(1980):0-1
17/06/2017:Défi gilmade(1590)-superman(1790):1-0
17/06/2017:Eq:Les Corsaires de Lechiquier-les modestes : blitzman(2660)-mpatruyo(2340):1-0
17/06/2017:Eq:Pirates du Mat-LA CITE ARDENTE : eltche(2400)-bigbobo(2290):1-0
17/06/2017:Eq:Pirates du Mat-LA CITE ARDENTE : bigbobo(2290)-eltche(2400):0-1
17/06/2017:Défi bournivergne(2350)-kleoj(2100):1-0
17/06/2017:Tournoi n°16642 pionfou(1760)-tartu(1740):1-0
17/06/2017:Tournoi n°16722 leredoutable(1670)-arno(1710):1-0
17/06/2017:Eq:Les Quebecois-Les diplomates : bertelsen(1700)-carlsen10(1370):0-1
17/06/2017:Eq:Les Gens du Sud-Vikings : verson(1920)-mage(1810):0-1
17/06/2017:Coupe Niveau 3 verson(1940)-dragon(1910):0-1
17/06/2017:Défi marieclaire(1360)-choderlos69(1240):0-1
17/06/2017:Défi arno(1750)-sergiodevienne(1760):0-1
17/06/2017:Défi slipslapmonster(1809)-pournelle(2750):0-1
17/06/2017:Défi lecevenol(1380)-anumisme(1400):0-1
17/06/2017:Memorial Lara XIX fly(2000)-intrigue(1720):1-0
17/06/2017:Pour le plaisir 36 ascensseur(1620)-thewolf(1450):0-1
17/06/2017:Faites vos jeux intrigue(1700)-leet(1720):0-1
17/06/2017:Tournoi n°16717 verson(1930)-manulatus(1950):1-0
17/06/2017:Tournoi n°16723 verson(1900)-dragon(1900):1-0
17/06/2017:Tournoi n°16743 verson(1930)-garlik(1990):1-0
17/06/2017:Eq:O fou d hello-tin tin tin : hackidoc(1870)-mistralgagnant(1860):1-0
17/06/2017:Défi gilmade(1580)-chobi(1710):1-0
17/06/2017:Défi hberlioz(1600)-pgo(1790):1-0
17/06/2017:Le vieux Roi 5 ascensseur(1610)-intrigue(1720):1/2-1/2
17/06/2017:Cobra n° 5 fooy33(1880)-salut(1950):0-1
17/06/2017:Faites vos jeux ascensseur(1580)-karkaskat(2130):0-1
17/06/2017:Tournoi échelle division 2 ascensseur(1570)-zozo(1620):1-0
17/06/2017:Tournoi n°16513 chomi64(1950)-fly(2010):0-1
17/06/2017:Tournoi n°16425 thewolf(1560)-nicolasvh(1600):1-0
17/06/2017:Tournoi n°16585 fly(1980)-chomi64(1960):1-0
17/06/2017:Eq:Les Corsaires de Lechiquier-les parias : scroff(2690)-aphatsum(2290):0-1
17/06/2017:Eq:les grenades-Pirates du Mat : volatile(2380)-craghack(2420):1-0
17/06/2017:Pour le plaisir 36 thewolf(1450)-ascensseur(1620):1/2-1/2
17/06/2017:Alekhine pour les Nuls ascensseur(1590)-skalfa(1730):0-1
17/06/2017:Faites vos jeux puma1965(1180)-dragon(1940):0-1
17/06/2017:brin de foin qasar(1760)-tiounet(1690):1-0
17/06/2017:brin de foin intrigue(1670)-tiounet(1690):1-0
17/06/2017:Tournoi n°16438 mazdaroket(2040)-thierry7ardeche(2040):1-0
17/06/2017:Tournoi n°16513 chomi64(1930)-smetemko(1809):0-1
17/06/2017:Tournoi n°16513 patau(1800)-chomi64(1950):1-0
17/06/2017:Tournoi n°16711 gonzok67(1760)-ghostdog(1710):1-0
17/06/2017:Tournoi n°16628 neo59(1850)-chomi64(1910):1-0
17/06/2017:Tournoi n°16740 zodiac(1740)-tiounet(1670):0-1
17/06/2017:Tournoi n°16716 wendydydy(1650)-tiounet(1660):1-0
17/06/2017:Eq:Les vaillants -CHESS MASTER : jokotov(1860)-ben18(2099):0-1
17/06/2017:Coupe Niveau 6 tambour(2210)-piteau(2679):0-1
17/06/2017:Défi jokotov(1870)-genpolf(1870):0-1
17/06/2017:Défi fafamanga(2100)-flosuper(2000):1/2-1/2
17/06/2017:Défi steflam(1510)-roger72(1400):1-0
17/06/2017:Défi temistocles(1440)-bibisept(1890):0-1
17/06/2017:Défi yann56(1530)-temistocles(1440):1-0
17/06/2017:Défi titit1(1320)-choderlos69(1240):1-0
17/06/2017:Défi janolapin(1780)-zodiac(1780):1-0
17/06/2017:Défi chomi64(1910)-dexter47(1960):0-1
17/06/2017:Défi vb83(1520)-kiki(1870):0-1
17/06/2017:Défi artorg(2110)-caramanlisse(2080):1-0
17/06/2017:Défi morloch(1970)-dragon(1960):1-0
17/06/2017:Défi degun(1900)-zayka(1950):1-0
17/06/2017:Défi maskali(1790)-temistocles(1430):1-0
17/06/2017:Tournoi échelle division 1 gl1(2010)-tiounet(1640):1-0
17/06/2017:Tournoi n°16469 mazdaroket(2050)-thierry7ardeche(2030):1/2-1/2
17/06/2017:Tournoi n°16630 gasperzero(2050)-lepiton(2090):0-1
17/06/2017:Tournoi n°16623 jmjustice(1590)-jlr(1500):0-1
17/06/2017:Tournoi n°16745 baranowsky(1780)-simer(1750):0-1
17/06/2017:Tournoi n°16650 koi34(1830)-verson(1870):1-0
17/06/2017:Défi loal(1600)-asvel69(1730):1/2-1/2
17/06/2017:Défi tipix(1939)-morloch(1960):1-0
17/06/2017:Défi superman(1790)-gobois(1750):0-1
17/06/2017:Défi calcedoine(1980)-moi50(1750):0-1
17/06/2017:Défi maluel(1580)-aigle12(1430):1-0
17/06/2017:Défi loal(1590)-hugues(1480):0-1
17/06/2017:Défi zayka(1960)-morloch(1930):1/2-1/2
17/06/2017:Défi damotte(2020)-marieclaire(1360):1-0
17/06/2017:Défi matsonic(1720)-loursdu07(1699):0-1
17/06/2017:Pour le plaisir 37 thewolf(1500)-tiounet(1660):1/2-1/2
17/06/2017:thewolf 2 turbo(1510)-lecevenol(1360):1-0
17/06/2017:Fête des pères tiounet(1680)-lecevenol(1380):1-0
17/06/2017:Tournoi n°16690 alexei31(1920)-silveur(1910):1-0
17/06/2017:Tournoi n°16743 lad(1840)-verson(1960):1/2-1/2
17/06/2017:Tournoi n°16591 legrillon(1810)-jellel67(1770):1-0
17/06/2017:Tournoi n°16715 magyar(1580)-upsalin(1690):0-1
17/06/2017:Tournoi n°16726 tartu(1660)-nawy64(1420):1-0
17/06/2017:Tournoi n°16743 lad(1840)-garlik(1990):0-1
17/06/2017:Tournoi n°16749 verson(1940)-lad(1840):1-0
17/06/2017:Eq:Les Corsaires de Lechiquier-La Crim Team : arb(2890)-jmolla(2910):1/2-1/2
17/06/2017:Eq:les biquetoces-Mission Impossible : fabian67(2160)-morozevich(2560):0-1
17/06/2017:Eq:les fous de bassans-O fou d hello : damotte(1980)-hargas(1930):1-0
17/06/2017:Coupe Niveau 2 thewolf(1490)-elghribi(1920):0-1
17/06/2017:Coupe Niveau 1 jlr(1360)-noelleon(1809):0-1
17/06/2017:Défi epervier14(1560)-fly(2000):1/2-1/2
17/06/2017:Défi kerenor(1590)-penelope45(1340):1-0
17/06/2017:Défi burgman(2120)-kleoj(2100):1-0
17/06/2017:Défi roquefort(1910)-morloch(1970):1-0
17/06/2017:Défi tartu(1670)-turbo(1550):1-0
17/06/2017:Défi antoinenono(1400)-pitchoune50(1050):1-0
17/06/2017:Défi timeo35220(1000)-jacqcrom(1440):0-1
17/06/2017:Pour le plaisir 38 thewolf(1460)-intrigue(1690):0-1
17/06/2017:Faites vos jeux dragon(1940)-intrigue(1700):1-0
17/06/2017:brin de foin thewolf(1520)-intrigue(1670):0-1
17/06/2017:Tournoi n°16682 lad(1890)-echecs76(1920):1-0
17/06/2017:Tournoi n°16650 arno(1690)-koi34(1830):1-0
17/06/2017:Tournoi n°16606 ghostdog(1710)-spaghetti(1730):0-1
17/06/2017:Tournoi n°16661 manulatus(1920)-verson(1850):1/2-1/2
17/06/2017:Tournoi n°16662 cramsnellac(1800)-xercott(1710):1-0
17/06/2017:Tournoi n°16747 tifointer(1890)-simer(1750):0-1
17/06/2017:Tournoi n°16751 katastrofic(1570)-homer31(1700):1-0
17/06/2017:Défi janul13(1710)-arzbro(1570):1-0
17/06/2017:Défi eagleatlas(2130)-oscar(2330):0-1
17/06/2017:Défi arno(1710)-degun(1900):0-1
17/06/2017:Défi ghostdog(1700)-temistocles(1430):1-0
17/06/2017:Memorial Lara XXI neigemet(2300)-coxynelle(1900):1-0
17/06/2017:aquarev pioupiou22(1790)-elfe22600(1370):1-0
17/06/2017:brin de foin intrigue(1670)-thewolf(1520):1-0
17/06/2017:Tournoi n°16588 legrillon(1810)-gonzok67(1800):1-0
17/06/2017:Tournoi n°16711 leredoutable(1690)-gonzok67(1780):0-1
17/06/2017:Tournoi n°16592 louis67(1560)-bobbietje(1450):1-0
17/06/2017:Tournoi n°16678 arno(1690)-legrillon(1850):0-1
17/06/2017:Tournoi n°16674 panchoa(1580)-phlox(1550):0-1
17/06/2017:Tournoi n°16730 arno(1750)-leredoutable(1660):0-1
17/06/2017:Tournoi n°16686 bibi07(1420)-zed34(1450):0-1
17/06/2017:Défi tomislav(1730)-tunellavage(1790):1/2-1/2
17/06/2017:Défi azur50(1680)-wenoketo(1560):0-1
17/06/2017:Défi buzz84(1520)-thewolf(1440):0-1
17/06/2017:Défi sergio69(1600)-chevalice(1570):0-1
17/06/2017:Défi ryba(1960)-tunellavage(1810):1-0
17/06/2017:Défi perepeinard34(1440)-gambitor(1500):0-1
18/06/2017:Tournoi n°16726 ffred(1520)-nawy64(1420):1-0
18/06/2017:Défi eltche(2420)-eagleatlas(2110):1-0
18/06/2017:Défi jenaipeurderien(1600)-kaspy(1640):0-1
18/06/2017:Défi roka(2450)-morloch(1980):1-0
18/06/2017:Défi cricri57(1860)-trueman(1810):1-0
18/06/2017:Défi abc47(2040)-flosuper(2010):0-1
18/06/2017:Rapide crca(1570)-zodiac(1370):1-0
18/06/2017:Rapide verson(1460)-moloch(1490):1/2-1/2
18/06/2017:Faites vos jeux puma1965(1180)-ascensseur(1580):0-1
18/06/2017:Coupe Niveau 1 fly(1990)-qasar(1760):1-0
18/06/2017:Défi ycar(1650)-chobi(1710):1-0
18/06/2017:Pour le plaisir 38 pascalou50(1680)-thewolf(1460):1-0
18/06/2017:Tournoi n°16413 maldorox(1450)-jlr(1490):0-1
18/06/2017:Tournoi n°16686 jlr(1440)-marieclaire(1370):1-0
18/06/2017:Eq:cotenstock-Les Seigneurs de l Atlantide : alain64(2110)-mazdaroket(2050):1-0
18/06/2017:Tournoi n°16697 zozo(1630)-vvvv(1690):1-0
18/06/2017:Défi galaxys7(1169)-crca(1930):0-1
18/06/2017:Défi renec(1720)-zozo(1610):1-0
18/06/2017:albatros 9 lamagouille(1490)-ascensseur(1620):0-1
18/06/2017:Tournoi n°16678 legrillon(1850)-zodiac(1750):1-0
18/06/2017:Tournoi n°16726 tartu(1660)-thewolf(1550):1-0
18/06/2017:Tournoi n°16730 mandrak(1610)-kala(1800):0-1
18/06/2017:Tournoi n°16749 fredbauduret(1910)-verson(1930):0-1
18/06/2017:Eq:les grenades-Les diplomates : mainecoon(2480)-sebga(2240):0-1
18/06/2017:Eq:tin tin tin-LechiquierDesHurlus : orlane(1350)-jeanmarie(2260):0-1
18/06/2017:Coupe Niveau 1 thewolf(1520)-verson(1930):0-1
18/06/2017:Défi steflam(1510)-marieclaire(1360):0-1
18/06/2017:Défi hberlioz(1610)-upsalin(1690):0-1
18/06/2017:Défi capitaine(2150)-woozie(2140):0-1
18/06/2017:Défi mandragore(2239)-hargas(1930):0-1
18/06/2017:Défi fabio985(1890)-roger72(1410):1-0
18/06/2017:Défi fisher(1580)-pourquoipas(1490):1-0
18/06/2017:Défi hberlioz(1610)-azur50(1670):1-0
18/06/2017:thewolf 2 titit1(1300)-thewolf(1460):1-0
18/06/2017:aquarev elfe22600(1370)-aramis(1730):0-1
18/06/2017:Fête des pères tiounet(1680)-trebillig(1640):0-1
18/06/2017:Tournoi n°16500 mistralgagnant(1860)-silveur(1870):1-0
18/06/2017:Eq:les aquitains-les fous de bassans : salut(1970)-guig47(2200):0-1
18/06/2017:Eq:Royal Kids-London : nicodemouscron(2110)-petitboy(2240):0-1
18/06/2017:Eq:Les Seigneurs de l Atlantide-Pirates du Mat : volatile(2400)-mrmatchnul(2320):1/2-1/2
18/06/2017:Défi schnibble(2369)-eagleatlas(2170):1-0
18/06/2017:Défi xav(1520)-upsalin(1730):1/2-1/2
18/06/2017:Défi thewolf(1440)-fisher(1580):0-1
18/06/2017:Défi morloch(1980)-elghribi(1950):0-1
18/06/2017:Fête des pères xxxx(1099)-puma1965(1180):0-1
18/06/2017:Tournoi n°16592 bobbietje(1450)-cineyxp(1410):0-1
18/06/2017:Tournoi n°16648 bibi07(1350)-mousse22(1480):0-1
18/06/2017:Tournoi n°16523 mistralgagnant(1840)-simer(1720):1-0
18/06/2017:Tournoi n°16703 intrigue(1680)-mayaapof(1660):0-1
18/06/2017:Tournoi n°16552 xercott(1700)-leredoutable(1750):0-1
18/06/2017:Tournoi n°16747 simer(1750)-zodiac(1750):1-0
18/06/2017:Eq:tin tin tin-LechiquierDesHurlus : jeanmarie(2260)-orlane(1350):1-0
18/06/2017:Eq:les biquetoces-Pirates du Mat : karkaskat(2080)-volatile(2420):0-1
18/06/2017:Coupe Niveau 10 conde7(2850)-hogar(2850):1/2-1/2
18/06/2017:Défi 1bri(1840)-agamanevaceo(2110):0-1
18/06/2017:Défi jaco(1890)-youliyouli(1810):1-0
18/06/2017:Défi kleoj(2110)-eagleatlas(2120):1-0
18/06/2017:Défi upsalin(1710)-gambitmiau(1630):1-0
18/06/2017:Défi chessgaston(2020)-titit1(1270):1-0
18/06/2017:Défi caramanlisse(2060)-woozie(2190):0-1
18/06/2017:Défi kerenor(1590)-anumisme(1340):1-0
18/06/2017:Défi stephen(1560)-thewolf(1460):0-1
18/06/2017:brin de foin thewolf(1520)-tiounet(1690):1-0
18/06/2017:Tournoi n°16689 verson(1880)-clemm(1670):0-1
18/06/2017:Tournoi n°16547 hexahedron(2270)-thierry7ardeche(2010):1-0
18/06/2017:Tournoi n°16697 zozo(1610)-bobbietje(1430):1-0
18/06/2017:Tournoi n°16743 hargas(1960)-verson(1940):1-0
18/06/2017:Eq:Les Seigneurs de l Atlantide-les fous de bassans : bubblegum(1710)-albescab(1620):1-0
18/06/2017:Défi lugdunum(2250)-eagleatlas(2110):1-0
18/06/2017:Défi letsplay(1640)-deric(1650):0-1
18/06/2017:Défi vvvv(1690)-turbo(1520):1-0
18/06/2017:Défi turbo(1530)-nawy64(1420):1-0
18/06/2017:thewolf 2 tiounet(1620)-thewolf(1460):1-0
18/06/2017:Tournoi n°16423 alain64(2110)-chess287(2170):0-1
18/06/2017:Tournoi n°16539 mequinho(1810)-leet(1700):1-0
18/06/2017:Tournoi n°16628 loco11(1980)-verson(1830):1-0
18/06/2017:Tournoi n°16706 verson(1900)-brettsinclair(1750):0-1
18/06/2017:Tournoi n°16679 upsalin(1700)-tiounet(1630):0-1
18/06/2017:Tournoi n°16537 baranowsky(1810)-leredoutable(1740):1-0
18/06/2017:Tournoi n°16680 leet(1710)-intrigue(1700):1/2-1/2
18/06/2017:Eq:Les Corsaires de Lechiquier-Les Seigneurs de l Atlantide : burgman(2110)-blitzman(2670):0-1
18/06/2017:Eq:Pirates du Mat-les modestes : berniz(2230)-rackam(1980):1-0
18/06/2017:Eq:tin tin tin-LechiquierDesHurlus : debauchery(1220)-linselleschti(1590):0-1
18/06/2017:Défi niko(1199)-malvina(1260):1-0
18/06/2017:Défi malvina(1290)-sisters(1590):1-0
18/06/2017:Pour des joueurs cool qasar(1800)-janolapin(1760):0-1
18/06/2017:Tournoi n°16340 patau(1910)-fly(1980):1-0
18/06/2017:Tournoi n°16740 leredoutable(1670)-zodiac(1740):1-0
18/06/2017:Tournoi n°16730 arno(1750)-mandrak(1610):0-1
18/06/2017:Tournoi n°16696 dodogod(2060)-willkommen54(2080):1-0
18/06/2017:Tournoi n°16730 leredoutable(1660)-kala(1800):0-1
18/06/2017:Eq:Royal Kids-La Crim Team : pessoa(2090)-defense(1850):1-0
18/06/2017:Eq:tin tin tin-LechiquierDesHurlus : galaxyj5(1240)-gilberthellemans(1620):0-1
18/06/2017:Eq:tin tin tin-LechiquierDesHurlus : gilberthellemans(1620)-galaxyj5(1240):1-0
18/06/2017:Coupe Niveau 6 tyakyx(2180)-bigbobo(2290):1/2-1/2
18/06/2017:Défi carabas(2010)-fly(1900):1/2-1/2
18/06/2017:Défi patrick(1570)-alain69009(1560):0-1
18/06/2017:Défi riothamus(1840)-felin(1860):0-1
18/06/2017:Défi pgo(1760)-arno(1710):0-1
18/06/2017:Cobra n° 5 fooy33(1880)-neigemet(2320):0-1
18/06/2017:Tournoi n°16340 chomi64(1950)-emmanuel(1960):1-0
18/06/2017:Tournoi n°16735 raymar(1560)-tiounet(1660):1-0
18/06/2017:Tournoi n°16606 saruman(1710)-ghostdog(1700):1-0
18/06/2017:Eq:Danielsen City-les biquetoces : fuji972(1930)-vic8t(2050):1/2-1/2
18/06/2017:Eq:les modestes-les chics capons : fredelebouric12(2470)-sherezo(2760):0-1
18/06/2017:Défi kerenor(1600)-raymon(1330):1-0
18/06/2017:Défi jvv(2770)-tatar(2760):1-0
18/06/2017:Défi gilka(999)-anumisme(1360):0-1
18/06/2017:Défi titit1(1250)-antoinenono(1410):1-0
18/06/2017:Défi aigle12(1460)-cineyxp(1720):0-1
18/06/2017:Défi malvina(1260)-jojodu35(1070):1-0
18/06/2017:Défi janul13(1740)-fisher(1580):0-1
18/06/2017:Défi pierrejean(1360)-antoinenono(1410):1-0
18/06/2017:Pour le plaisir 37 ascensseur(1590)-petitlulu64(1690):1-0
18/06/2017:Memorial Lara XXI neigemet(2300)-emmanuel(1970):1-0
18/06/2017:Memorial Lara XXI emmanuel(1970)-neigemet(2300):0-1
18/06/2017:thewolf 2 ascensseur(1620)-titit1(1300):1-0
18/06/2017:Faites vos jeux ascensseur(1580)-flmnh(1790):1/2-1/2
18/06/2017:brin de foin tiounet(1690)-intrigue(1670):1/2-1/2
18/06/2017:Tournoi échelle division 2 coppola(1440)-trebillig(1620):0-1
18/06/2017:Tournoi n°16590 nicodemouscron(2110)-alain64(2180):0-1
18/06/2017:Tournoi n°16600 pgo(1800)-legrillon(1820):1/2-1/2
18/06/2017:Tournoi n°16384 mistralgagnant(1830)-connecticcut(1830):1-0
18/06/2017:Tournoi n°16623 wenoketo(1560)-jmjustice(1590):1-0
18/06/2017:Tournoi n°16735 tiounet(1680)-panchoa(1590):0-1
18/06/2017:Tournoi n°16603 paulcaresse(2490)-alain64(2210):1-0
18/06/2017:Tournoi n°16757 arno(1720)-kala(1840):0-1
18/06/2017:Eq:CHESS MASTER-LES CHATTERBOX : galaxys7(1369)-ephixe(1770):0-1
18/06/2017:Coupe Niveau 6 paulcaresse(2500)-vickort(2400):1-0
18/06/2017:Défi titit1(1320)-chessgaston(2020):0-1
18/06/2017:Défi alain84(1770)-trueman(1810):0-1
18/06/2017:Défi agapenor(2070)-zakariaabdelaziz(1850):0-1
18/06/2017:Défi stseb(1880)-jimi50(1900):1-0
18/06/2017:Défi morloch(1960)-mandragore(2239):1-0
18/06/2017:Défi tartu(1660)-vincentcoste(1720):1-0
18/06/2017:Faites vos jeux karkaskat(2130)-ascensseur(1580):1-0
19/06/2017:Eq:O fou d hello-Les Seigneurs de l Atlantide : yab414(1670)-petrus2000(1990):1-0
19/06/2017:Eq:Les Corsaires de Lechiquier-Royal Kids : apollon(2760)-tambour(2220):1-0
19/06/2017:Eq:Pirates du Mat-Les diplomates : totorov(2270)-bibisept(1870):1-0
19/06/2017:Défi seb13(1420)-fly(2000):0-1
19/06/2017:Défi lecavaliernoir(1410)-katastrofic(1480):0-1
19/06/2017:Défi gasperzero(2060)-moi50(1780):1-0
19/06/2017:Défi moi50(1800)-flo71(1860):0-1
19/06/2017:Rapide crca(1540)-cricri57(1430):0-1
19/06/2017:Rapide blackrider(1169)-zodiac(1360):1-0
19/06/2017:Rapide foxie519(1300)-bertelsen(1270):1/2-1/2
19/06/2017:Tournoi échelle division 2 gaspard83(1650)-gasperzero(2050):0-1
19/06/2017:Tournoi n°16364 bricekiller(1320)-jlr(1460):0-1
19/06/2017:Tournoi n°16489 bricekiller(1430)-jlr(1430):0-1
19/06/2017:Tournoi n°16501 bricekiller(1440)-jlr(1430):0-1
19/06/2017:Tournoi n°16596 jlr(1430)-bricekiller(1480):1-0
19/06/2017:Défi rocketman(2020)-jimi50(1900):0-1
19/06/2017:Tournoi n°16726 nawy64(1420)-thewolf(1550):0-1
19/06/2017:Défi burgman(2110)-tonton77(1860):1-0
19/06/2017:Tournoi n°16482 ephixe(1720)-verson(1880):0-1
19/06/2017:Tournoi n°16704 qasar(1770)-mojo(1810):0-1
19/06/2017:Tournoi n°16681 zodiac(1740)-kawa750(1610):1-0
19/06/2017:Tournoi n°16726 nawy64(1420)-upsalin(1680):0-1
19/06/2017:Tournoi n°16735 raymar(1560)-panchoa(1590):1-0
19/06/2017:Eq:tin tin tin-Les vaillants : bournivergne(2370)-warriorette(1960):1-0
19/06/2017:Eq:Pirates du Mat-Danielsen City : volatile(2410)-hilts(2160):1-0
19/06/2017:Coupe Niveau 1 fly(1970)-piteau(1789):0-1
19/06/2017:Coupe Niveau 2 senegaulois(2020)-verson(1900):1-0
19/06/2017:Défi tyakyx(2210)-eagleatlas(2120):1-0
19/06/2017:Défi epervier14(1540)-tunellavage(1810):0-1
19/06/2017:Défi anumisme(1390)-vb83(1520):0-1
19/06/2017:Défi christie(1230)-nanaluce(1000):1-0
19/06/2017:Défi aramis(1740)-alphatauri(1590):1-0
19/06/2017:Défi marieclaire(1370)-tian(1350):0-1
19/06/2017:Défi padomi85(1940)-carlsen10(1360):0-1
19/06/2017:Défi luc20(1770)-patau(1790):1-0
19/06/2017:Défi cortaz(1920)-pgo(1780):1-0
19/06/2017:Alekhine pour les Nuls flmnh(1780)-intrigue(1720):0-1
19/06/2017:Memorial Lara XXI emmanuel(1970)-coxynelle(1900):0-1
19/06/2017:Faites vos jeux flmnh(1790)-karkaskat(2130):0-1
19/06/2017:Tournoi échelle champions fly(1970)-johndoe(2030):1/2-1/2
19/06/2017:Tournoi n°16287 selmoun(1480)-coppola(1400):0-1
19/06/2017:Tournoi n°16739 nicodemouscron(2110)-tolt(2010):0-1
19/06/2017:Coupe Niveau 1 jlr(1370)-tipix(1730):0-1
19/06/2017:Coupe Niveau 8 jvv(2770)-phgrill(2810):1-0
19/06/2017:Défi loloth77(1830)-pgo(1810):1-0
19/06/2017:Défi antoinenono(1390)-titit1(1310):0-1
19/06/2017:Défi cortaz(1790)-pheno(1590):1-0
19/06/2017:Défi mandragore(2239)-morloch(1960):0-1
19/06/2017:Défi azur(1590)-thewolf(1460):1-0
19/06/2017:Défi azur(1590)-doudou(1640):0-1
19/06/2017:Pour le plaisir 35 thewolf(1560)-dragonchess(1690):1-0
19/06/2017:Tournoi n°16645 plaisance(1930)-lad(1910):1-0
19/06/2017:Tournoi n°16627 legrillon(1790)-arno(1650):1-0
19/06/2017:Tournoi n°16561 coyotov(1590)-thierry22(1600):0-1
19/06/2017:Tournoi n°16709 joel(1370)-petitpion(1260):1-0
19/06/2017:Coupe Niveau 3 senegaulois(2030)-abc47(2060):1/2-1/2
19/06/2017:Défi pheno(1590)-gilberthellemans(1590):1-0
19/06/2017:Défi katastrofic(1500)-epervier14(1520):0-1
19/06/2017:Défi echecs76(1940)-moi50(1770):1-0
19/06/2017:Défi echecs76(1960)-morloch(1980):1-0
19/06/2017:Défi anumisme(1380)-lhommedefer(1020):1-0
19/06/2017:Défi zayka(1950)-elghribi(1920):1/2-1/2
19/06/2017:Tournoi n°16652 panchoa(1580)-artistepeintre(1470):1-0
19/06/2017:Tournoi n°16659 buzz84(1520)-clisson44(1530):1-0
19/06/2017:Tournoi n°16659 buzz84(1520)-vb83(1520):0-1
19/06/2017:Tournoi n°16712 joel(1390)-fanch2pic(1360):0-1
19/06/2017:Eq:Vikings-les modestes : tombelaine(2130)-mpatruyo(2330):1-0
19/06/2017:Défi gobois(1740)-roschecx(1690):1/2-1/2
19/06/2017:Défi slipslapmonster(1809)-chaloupe(2500):0-1
19/06/2017:Défi roschecx(1680)-cortaz(1870):0-1
19/06/2017:Défi pitchoune50(1050)-pascalou50(1660):0-1
19/06/2017:Défi patau(1800)-pgo(1770):1/2-1/2
19/06/2017:Défi moi50(1770)-deric(1650):1-0
19/06/2017:Défi lad(1860)-patau(1820):1-0
19/06/2017:Défi lad(1860)-patau(1820):1-0
19/06/2017:Défi chevalice(1590)-redqueen(1250):0-1
19/06/2017:Tournoi échelle champions chronik(2050)-domenico(1840):1/2-1/2
19/06/2017:Tournoi échelle champions pgo(1780)-patau(1780):0-1
19/06/2017:Tournoi échelle élite verson(1930)-danton68(2040):1/2-1/2
19/06/2017:Tournoi n°16684 tartu(1690)-kaiser69(1550):1-0
19/06/2017:Tournoi n°16684 pilouface(1520)-tartu(1690):0-1
19/06/2017:Tournoi n°16684 upsalin(1700)-tartu(1690):0-1
19/06/2017:Tournoi n°16734 desaintfegor(1920)-verson(1950):1/2-1/2
19/06/2017:Tournoi n°16577 loco11(1990)-patau(1820):1-0
19/06/2017:Tournoi n°16688 wenoketo(1590)-upsalin(1700):0-1
19/06/2017:Tournoi n°16720 tiounet(1690)-magyar(1580):1-0
19/06/2017:Tournoi n°16725 coyotov(1660)-upsalin(1680):1-0
19/06/2017:Eq:les grenades-Pirates du Mat : frantz90(2810)-pgcbies(2750):1/2-1/2
19/06/2017:Défi superman(1790)-doudou(1630):1-0
19/06/2017:Défi superman(1820)-chobi(1720):1-0
19/06/2017:Défi morloch(1930)-carabas(2070):0-1
19/06/2017:Défi fly(2000)-lecevenol(1320):1-0
19/06/2017:Défi lecevenol(1370)-titit1(1250):0-1
19/06/2017:Défi patau(1820)-danton68(2040):1-0
19/06/2017:Défi thewolf(1440)-malvina(1300):1-0
19/06/2017:Défi alain69009(1560)-letsplay(1590):1-0
19/06/2017:Défi patau(1820)-tartu(1720):1-0
19/06/2017:Défi pierre1(1770)-superman(1800):0-1
19/06/2017:Défi bassdark(2070)-artorg(2080):0-1
19/06/2017:Défi chevalice(1570)-fanch2pic(1360):1-0
19/06/2017:Défi antoinenono(1390)-lecevenol(1380):1-0
19/06/2017:Défi anumisme(1370)-pierrejean(1350):0-1
19/06/2017:Défi anumisme(1390)-titit1(1300):1-0
19/06/2017:Défi chevalice(1580)-pourquoipas(1500):1-0
19/06/2017:Défi danton68(2030)-patau(1830):1-0
19/06/2017:Memorial Lara XXI tartu(1750)-coxynelle(1900):0-1
19/06/2017:Pour le plaisir 38 intrigue(1690)-thewolf(1460):0-1
19/06/2017:Tournoi échelle division 2 dragonchess(1710)-leet(1690):1-0
19/06/2017:Tournoi n°16640 fooy33(1880)-bnj(1830):1-0
19/06/2017:Tournoi n°16680 jmjustice(1610)-intrigue(1700):0-1
19/06/2017:Tournoi n°16504 supernono(1390)-jlr(1420):1-0
19/06/2017:Tournoi n°16674 upsalin(1700)-panchoa(1580):1/2-1/2
19/06/2017:Tournoi n°16606 verson(1810)-spaghetti(1730):1-0
19/06/2017:Tournoi n°16665 tonton77(1870)-tifointer(1950):1-0
19/06/2017:Tournoi n°16710 wenoketo(1580)-upsalin(1700):1/2-1/2
19/06/2017:Tournoi n°16688 buzz84(1530)-wenoketo(1610):0-1
19/06/2017:Tournoi n°16725 upsalin(1690)-vb83(1530):0-1
19/06/2017:Tournoi n°16726 upsalin(1680)-tartu(1660):0-1
19/06/2017:Eq:les grenades-Les Rebelles : valentinov(2660)-thebigchief(2100):1-0
19/06/2017:Eq:Mission Impossible-Pirates du Mat : eldiablo90(2750)-volatile(2390):1-0
19/06/2017:Eq:Les Seigneurs de l Atlantide-Pirates du Mat : johan1977(2160)-chronik(2040):1-0
19/06/2017:Coupe Niveau 3 verson(1860)-virus(1820):1-0
19/06/2017:Coupe Niveau 4 mudra(2190)-alain64(2190):0-1
19/06/2017:Défi jlgu(1630)-bubblegum(1740):1/2-1/2
19/06/2017:Défi maluel(1580)-epervier14(1520):1-0
19/06/2017:Défi missmich(1550)-temistocles(1530):1/2-1/2
19/06/2017:Défi wenoketo(1560)-jipepe(1640):0-1
19/06/2017:Défi baloo(1460)-katastrofic(1530):1-0
19/06/2017:Défi antoinenono(1420)-xav(1480):1-0
19/06/2017:Défi moloch(1920)-biquet(1840):1-0
19/06/2017:Défi nawy64(1420)-mokanne(1540):0-1
19/06/2017:Défi roger72(1390)-flo71(1860):0-1
19/06/2017:La French moutarde18(1890)-fly(1910):1/2-1/2
19/06/2017:Symphonie n°1 flmnh(1790)-tartu(1650):0-1
19/06/2017:Tournoi n°16596 bricekiller(1480)-pierrejean(1400):0-1
19/06/2017:Tournoi n°16759 verson(1900)-lad(1830):0-1
19/06/2017:Tournoi n°16673 arno(1690)-legrillon(1840):0-1
19/06/2017:Tournoi n°16548 chomi64(1960)-patau(1820):0-1
19/06/2017:Eq:les aquitains-les fous de bassans : chomi64(1910)-undo(1809):1-0
19/06/2017:Eq:tin tin tin-LechiquierDesHurlus : linselleschti(1590)-debauchery(1220):1-0
19/06/2017:Coupe Niveau 3 echecs76(1920)-hilts(2150):1/2-1/2
19/06/2017:Défi eagleatlas(2180)-kaby771(2190):0-1
19/06/2017:Défi anumisme(1360)-tropa(1240):1-0
19/06/2017:Défi moi50(1770)-encore1fois(1930):0-1
19/06/2017:Défi pascalou50(1670)-titit1(1310):1-0
19/06/2017:Défi vb83(1450)-toutattente(1330):1-0
19/06/2017:Défi jmr(1570)-wenoketo(1580):1-0
19/06/2017:Défi garlik(1990)-alexei31(1950):1-0
19/06/2017:Défi jyf(1810)-bilitis(1800):1-0
19/06/2017:Défi steflam(1500)-damotte(2020):0-1
19/06/2017:Défi alain69009(1530)-marco(1540):1-0
19/06/2017:Défi marieclaire(1360)-geld108(1410):0-1
19/06/2017:Défi vic8t(2040)-roger72(1400):1-0
19/06/2017:Défi thewolf(1520)-anumisme(1390):0-1
19/06/2017:Défi bibisept(1880)-coppola(1410):0-1
19/06/2017:Défi anumisme(1390)-pitchoune50(1050):0-1
19/06/2017:Faites vos jeux dragon(1940)-karkaskat(2130):1/2-1/2
19/06/2017:Tournoi n°16729 legionnaire(1610)-tiounet(1680):0-1
19/06/2017:Tournoi n°16642 verson(1830)-pionfou(1760):1-0
19/06/2017:Tournoi n°16666 chrispga(1320)-fasb(1450):1-0
19/06/2017:Tournoi n°16695 donjon(1650)-vulcain14(1590):1-0
19/06/2017:Eq:les grenades-Pirates du Mat : herakles(2040)-totorov(2230):0-1
19/06/2017:Défi venaline(2180)-jipix(2010):1/2-1/2
19/06/2017:Défi cortaz(1900)-papymiche(1730):0-1
19/06/2017:Défi cricri57(1860)-moi50(1800):1-0
19/06/2017:Défi eagleatlas(2110)-bournivergne(2360):0-1
19/06/2017:Défi wenoketo(1610)-turbo(1550):0-1
19/06/2017:Défi ramo(1680)-wenoketo(1610):1-0
19/06/2017:Défi redqueen(1260)-anumisme(1390):1-0
19/06/2017:Défi campa(1730)-pierre1(1800):0-1
19/06/2017:Défi salut(1970)-lugdunum(2230):1-0
19/06/2017:Le clan des Siciliennes legrillon(1770)-intrigue(1730):0-1
19/06/2017:Le vieux Roi 5 ascensseur(1610)-thewolf(1480):0-1
19/06/2017:thewolf 2 thewolf(1460)-ascensseur(1620):0-1
19/06/2017:brin de foin ascensseur(1550)-tiounet(1690):0-1
19/06/2017:Leffet Larsen bertelsen(1740)-tiounet(1740):1/2-1/2
20/06/2017:Coupe Niveau 2 daniel1(1720)-elghribi(1920):0-1
20/06/2017:Défi pitchoune50(1030)-pascalou50(1670):0-1
20/06/2017:Défi pascalou50(1670)-pitchoune50(1110):1-0
20/06/2017:Défi cathy17(1030)-pascalou50(1680):0-1
20/06/2017:Défi toucco67(1710)-ghostdog(1700):0-1
20/06/2017:Défi mrjim(999)-deric(1650):0-1
20/06/2017:Rapide pherce(1660)-gl1(1820):1-0
20/06/2017:Rapide moloch(1510)-moutarde18(1590):0-1
20/06/2017:Rapide moloch(1510)-verson(1480):0-1
20/06/2017:Rapide verson(1480)-degun(1520):0-1
20/06/2017:Memorial Lara XXI ascensseur(1580)-coxynelle(1900):0-1
20/06/2017:Tournoi n°16679 azur(1600)-zukchess(1570):1-0
20/06/2017:Tournoi n°16706 brettsinclair(1750)-leredoutable(1690):1-0
20/06/2017:Tournoi n°16723 leredoutable(1660)-pionfou(1750):0-1
20/06/2017:Eq:Mission Impossible-O fou d hello : sanvic76(1980)-apage(2120):0-1
20/06/2017:Défi fasb(1199)-pionfou(1470):0-1
20/06/2017:Défi steflam(1510)-gervaise(1110):0-1
20/06/2017:Défi sisters(1590)-gervaise(1110):0-1
20/06/2017:Défi tongiukep(1720)-alphatauri(1600):1-0
20/06/2017:Tournoi n°16720 bistro1(1690)-tiounet(1680):0-1
20/06/2017:Eq:Pirates du Mat-les grenades : johan1977(2160)-thebigchief(2100):1-0
20/06/2017:Tournoi n°16292 patau(1830)-fly(1950):1/2-1/2
20/06/2017:Tournoi n°16281 anderssen(2230)-tambour(2200):1-0
20/06/2017:Tournoi n°16723 dragon(1900)-leredoutable(1660):1-0
20/06/2017:Coupe Niveau 1 estrafolis(1410)-qasar(1780):0-1
20/06/2017:Coupe Niveau 1 blackbishop(1910)-jlr(1360):1-0
20/06/2017:Défi ascensseur(1600)-zozo(1610):0-1
20/06/2017:Défi hugues(1480)-selfcontrol(1520):0-1
20/06/2017:Défi patau(1870)-intrigue(1750):0-1
20/06/2017:Défi azur(1570)-cortaz(1900):1-0
20/06/2017:Défi patau(1840)-tiounet(1680):0-1
20/06/2017:Pour le plaisir 37 ascensseur(1590)-thewolf(1500):0-1
20/06/2017:brin de foin tiounet(1690)-thewolf(1520):1-0
20/06/2017:Tournoi n°16712 bibi07(1450)-jlr(1350):0-1
20/06/2017:Tournoi n°16573 mathador93(1450)-upsalin(1670):0-1
20/06/2017:Tournoi n°16759 flo71(1880)-verson(1900):0-1
20/06/2017:Défi fanch2pic(1350)-redqueen(1250):0-1
20/06/2017:Défi intrigue(1700)-aigle12(1460):1-0
20/06/2017:Défi anumisme(1400)-cyberdogbert(1170):1-0
20/06/2017:Défi zozo(1640)-mrjim(999):1-0
20/06/2017:Défi katastrofic(1550)-antoinenono(1390):0-1
20/06/2017:Tournoi échelle élite danton68(2030)-johndoe(2100):1-0
20/06/2017:Tournoi n°16524 mazdaroket(2030)-willkommen54(2080):1/2-1/2
20/06/2017:Tournoi n°16355 mistralgagnant(1850)-tartu(1720):1-0
20/06/2017:Tournoi n°16764 verson(1900)-simer(1790):1/2-1/2
20/06/2017:Tournoi n°16479 louis67(1590)-bricekiller(1410):1-0
20/06/2017:Tournoi n°16686 jlr(1380)-zed34(1450):0-1
20/06/2017:Tournoi n°16754 ghostdog(1670)-tiounet(1740):1-0
20/06/2017:Eq:les modestes-tin tin tin : mohamedramdane(2710)-gulliver(2220):1-0
20/06/2017:Eq:Vikings-Pirates du Mat : tombelaine(2130)-johan1977(2230):1-0
20/06/2017:Eq:les grenades-Les pousseur de bois : craghack(2450)-pilinapolgar(2510):1/2-1/2
20/06/2017:Défi fisher(1620)-rambonov(1570):1-0
20/06/2017:Défi antoinenono(1380)-titit1(1330):0-1
20/06/2017:brin de foin intrigue(1670)-ascensseur(1550):0-1
20/06/2017:Tournoi n°16704 arno(1710)-mojo(1810):1-0
20/06/2017:Tournoi n°16701 nicodemouscron(2130)-oranmore(1990):0-1
20/06/2017:Tournoi n°16500 connecticcut(1820)-mistralgagnant(1870):0-1
20/06/2017:Coupe Niveau 1 choucki11(1680)-loal(1610):1-0
20/06/2017:Défi michel(1280)-anumisme(1390):0-1
20/06/2017:Défi michel(1250)-antoinenono(1380):0-1
20/06/2017:Défi perepeinard34(1430)-jipepe(1640):0-1
20/06/2017:Défi jeanluc88(2029)-mick(1930):1-0
20/06/2017:Défi azur50(1680)-angerpat(1560):0-1
20/06/2017:Défi volatile(2420)-moi50(1830):1-0
20/06/2017:Leffet Larsen tartu(1740)-tiounet(1740):1-0
20/06/2017:Leffet Larsen tiounet(1740)-bertelsen(1740):1-0
20/06/2017:Tournoi n°16500 verson(1900)-mistralgagnant(1870):0-1
20/06/2017:Tournoi n°16703 angerpat(1510)-magyar(1560):1-0
20/06/2017:Tournoi n°16440 tambour(2210)-oscar(2330):1/2-1/2
20/06/2017:Tournoi n°16679 zukchess(1570)-upsalin(1700):1-0
20/06/2017:Eq:Les Gens du Sud-O fou d hello : emmanuel69(1730)-dragonchess(1710):0-1
20/06/2017:Eq:Les diplomates-les parias : bertelsen(1730)-bidoche(1690):1/2-1/2
20/06/2017:Défi asvel69(1710)-pgo(1790):0-1
20/06/2017:Défi maluel(1640)-puma1965(1180):1-0
20/06/2017:Défi cocodou(1940)-bilitis(1840):1-0
20/06/2017:Défi chocotov(2070)-lens37(2290):0-1
20/06/2017:Défi tiounet(1640)-alain34(2170):0-1
20/06/2017:Défi bertelsen(1720)-patau(1880):0-1
20/06/2017:Défi jenaipeurderien(1630)-deric(1640):0-1
20/06/2017:Défi antoinenono(1390)-titit1(1320):1-0
20/06/2017:Défi pourquoipas(1500)-doudou(1640):1/2-1/2
20/06/2017:Défi hargas(1970)-elghribi(1960):0-1
20/06/2017:Défi roquefort(1920)-hargas(1980):1-0
20/06/2017:Défi cramsnellac(1810)-pgo(1800):1-0
20/06/2017:Défi gobois(1710)-gilberthellemans(1610):1-0
20/06/2017:Défi fr7d(1410)-malvina(1290):0-1
20/06/2017:Défi mequinho(1830)-titit1(1310):1-0
20/06/2017:Le vieux Roi 5 janolapin(1800)-tiounet(1640):0-1
20/06/2017:Faites vos jeux tiounet(1640)-leet(1720):1-0
20/06/2017:Fête des pères coyotov(1660)-puma1965(1180):1-0
20/06/2017:Leffet Larsen tiounet(1740)-tartu(1740):0-1
20/06/2017:Leffet Larsen bertelsen(1740)-tartu(1740):0-1
20/06/2017:Tournoi n°16410 emmanuel(1900)-chomi64(1950):1-0
20/06/2017:Tournoi n°16682 oranmore(1990)-karim(1820):1-0
20/06/2017:Tournoi n°16684 wenoketo(1610)-kaiser69(1550):1-0
20/06/2017:Tournoi n°16518 bobbietje(1480)-zozo(1670):1/2-1/2
20/06/2017:Tournoi n°16745 leredoutable(1650)-janul13(1740):1-0
20/06/2017:Tournoi n°16524 willkommen54(2080)-dodogod(2130):1/2-1/2
20/06/2017:Tournoi n°16545 terrifiant(2260)-bulleur(2260):0-1
20/06/2017:Tournoi n°16545 terrifiant(2260)-fly(1970):0-1
20/06/2017:Tournoi n°16599 estrafolis(1370)-mathildedn(1340):0-1
20/06/2017:Tournoi n°16619 chomi64(1910)-moloch(1960):1-0
20/06/2017:Tournoi n°16620 afeyte(1750)-intrigue(1740):1/2-1/2
20/06/2017:Tournoi n°16572 thierry7ardeche(2030)-willkommen54(2100):1-0
20/06/2017:Tournoi n°16739 nicodemouscron(2110)-willkommen54(2050):1-0
20/06/2017:Eq:O fou d hello-les champions : hackidoc(1890)-ngeorget(2360):0-1
20/06/2017:Défi lugdunum(2240)-koblenz(2160):1-0
20/06/2017:Défi loco11(1990)-burgman(2120):0-1
20/06/2017:Défi tetene(1640)-temistocles(1480):1-0
20/06/2017:Défi maluel(1580)-gambitmiau(1660):1-0
20/06/2017:Défi wenoketo(1610)-mayaapof(1710):0-1
20/06/2017:Défi turbo(1550)-tryphon(1540):1-0
20/06/2017:Défi wenoketo(1580)-tartu(1660):0-1
20/06/2017:Défi megagoku(1860)-max2007(1250):0-1
20/06/2017:Défi roquefort(1930)-doupol(1780):1-0
20/06/2017:Défi feenschach(2070)-patau(1840):0-1
20/06/2017:Défi anumisme(1380)-titit1(1330):1-0
20/06/2017:Tournoi échelle élite johndoe(2100)-rvsinovitch(1990):0-1
20/06/2017:Tournoi n°16739 jdb(2000)-willkommen54(2050):1-0
20/06/2017:Tournoi n°16703 magyar(1560)-intrigue(1680):0-1
20/06/2017:Tournoi n°16718 cicerond(1420)-kiki37(1430):0-1
20/06/2017:Tournoi n°16739 jdb(2000)-nicodemouscron(2110):1-0
20/06/2017:Coupe Niveau 1 verson(1950)-choucki11(1670):1-0
20/06/2017:Coupe Niveau 3 kowabounga(1810)-elghribi(1970):0-1
20/06/2017:Défi vb83(1490)-lancov(2000):1-0
20/06/2017:Défi moi50(1700)-jyf(1830):0-1
20/06/2017:Défi kiki38(1540)-chess54(1470):1-0
20/06/2017:Défi nawy64(1420)-anumisme(1390):0-1
20/06/2017:un petit tour en espagne dragon(1950)-fly(1950):0-1
20/06/2017:Tournoi n°16507 silveur(1860)-mistralgagnant(1840):0-1
20/06/2017:Tournoi n°16601 lepiton(2060)-tifointer(1940):1-0
20/06/2017:Tournoi n°16573 loal(1610)-mathador93(1450):0-1
20/06/2017:Tournoi n°16734 desaintfegor(1920)-pgo(1790):1-0
20/06/2017:Tournoi n°16609 pgo(1800)-pitouwb(1800):1-0
20/06/2017:Tournoi n°16691 desaintfegor(1910)-plaisance(1930):0-1
20/06/2017:Tournoi n°16739 tolt(2010)-jdb(2000):1/2-1/2
20/06/2017:Tournoi n°16749 verson(1940)-echecs76(1970):1-0
20/06/2017:Eq:tours et detours-La Crim Team : laronix(2310)-zeusuez(2180):1-0
20/06/2017:Eq:Les Quebecois-Les pousseur de bois : buggle(2040)-roschecx(1680):1-0
20/06/2017:Eq:Les Seigneurs de l Atlantide-Les Gens du Sud : emmanuel69(1730)-tjspret(1800):1-0
20/06/2017:Eq:Vikings-Danielsen City : ratzi(1940)-azerty1(2230):0-1
20/06/2017:Coupe Niveau 2 echecs76(1960)-elghribi(1970):0-1
20/06/2017:Défi gfcyoupi(2110)-david969(2000):0-1
20/06/2017:Défi berjay(1790)-jyf(1830):0-1
20/06/2017:Défi elghribi(1980)-moi50(1800):1-0
20/06/2017:Défi joel(1400)-pierrejean(1360):1-0
20/06/2017:Défi kawa750(1600)-superman(1810):0-1
20/06/2017:Défi flosuper(1990)-vb83(1550):1-0
20/06/2017:Défi jlouism(1530)-alain69009(1530):0-1
20/06/2017:Défi jipepe(1640)-kawa750(1610):1-0
20/06/2017:Défi deric(1660)-azur(1590):1-0
20/06/2017:Défi deric(1660)-wenoketo(1610):1-0
20/06/2017:Défi tonio14(1320)-anumisme(1400):0-1
20/06/2017:Défi alain69009(1570)-azur(1580):1-0
20/06/2017:Défi antoinenono(1400)-pascalou50(1660):0-1
20/06/2017:Défi wenoketo(1580)-choucki11(1690):1-0
21/06/2017:Tournoi n°16740 leredoutable(1670)-tiounet(1670):1-0
21/06/2017:Tournoi n°16734 manulatus(1910)-desaintfegor(1920):1-0
21/06/2017:Tournoi n°16699 yann56(1530)-wenoketo(1590):1-0
21/06/2017:Tournoi n°16757 leredoutable(1660)-kala(1840):0-1
21/06/2017:Eq:Les pousseur de bois-La Crim Team : buggle(2040)-vladtepes(2340):0-1
21/06/2017:Défi blackbishop(1910)-carlsen10(1340):1-0
21/06/2017:Défi morloch(1980)-silv(2180):1-0
21/06/2017:Défi azur(1590)-kaspy(1660):1-0
21/06/2017:Rapide gl1(1820)-loursdu07(1739):0-1
21/06/2017:Rapide bertelsen(1260)-blackrider(1249):1/2-1/2
21/06/2017:Rapide johndoe(1619)-verson(1460):1-0
21/06/2017:Rapide nodilo(1599)-moloch(1490):1-0
21/06/2017:Tous avec Goering fly(2010)-ascensseur(1620):1-0
21/06/2017:Tournoi n°16482 yannygator(1690)-ephixe(1720):0-1
21/06/2017:Défi ravanh(2240)-morloch(1980):1-0
21/06/2017:allez y doucement leet(1690)-fly(1980):0-1
21/06/2017:Faites vos jeux kaspouille(2330)-leet(1720):1-0
21/06/2017:Tournoi n°16745 simer(1750)-leredoutable(1650):1-0
21/06/2017:Eq:Les diplomates-Les Corsaires de Lechiquier : ychiduodlatour(2660)-slipslapmonster(1929):0-1
21/06/2017:Défi thewolf(1450)-christie(1220):1-0
21/06/2017:Tournoi n°16686 zed34(1450)-marieclaire(1360):1-0
21/06/2017:Tournoi n°16628 verson(1830)-chomi64(1910):0-1
21/06/2017:Tournoi n°16640 fooy33(1880)-patau(1850):0-1
21/06/2017:Tournoi n°16712 fanch2pic(1360)-sampiero2a(1380):1-0
21/06/2017:Eq:les biquetoces-LES CHATTERBOX : ephixe(1790)-bazart(1980):1-0
21/06/2017:Eq:La Crim Team-les biquetoces : zeusuez(2190)-bazart(1970):1-0
21/06/2017:Défi lilith(1230)-anumisme(1370):1-0
21/06/2017:Défi patau(1820)-silveur(1940):0-1
21/06/2017:Défi diagonel(1149)-tristan(1430):0-1
21/06/2017:Défi turbo(1570)-diagonel(1149):1-0
21/06/2017:Défi manulatus(1890)-patau(1900):1-0
21/06/2017:Défi arzbro(1570)-wenoketo(1610):0-1
21/06/2017:Défi jipepe(1640)-azur(1590):0-1
21/06/2017:Défi nawy64(1420)-kiki38(1480):0-1
21/06/2017:Bg1 zorglub42(1960)-crca(1930):0-1
21/06/2017:un petit tour en espagne fly(1950)-dragon(1950):0-1
21/06/2017:thewolf 2 turbo(1510)-tiounet(1620):0-1
21/06/2017:Cobra n° 5 emmanuel(1970)-karkaskat(2130):1/2-1/2
21/06/2017:Symphonie n°1 leet(1740)-flmnh(1790):1-0
21/06/2017:Symphonie n°1 karkaskat(2120)-flmnh(1790):1-0
21/06/2017:Tournoi n°16684 kaiser69(1550)-pilouface(1520):0-1
21/06/2017:Tournoi n°16595 mojo(1830)-mistralgagnant(1860):1-0
21/06/2017:Tournoi n°16684 kaiser69(1550)-upsalin(1690):0-1
21/06/2017:Tournoi n°16523 verson(1880)-mistralgagnant(1840):1/2-1/2
21/06/2017:Tournoi n°16709 jlr(1360)-joel(1380):0-1
21/06/2017:Tournoi n°16661 desaintfegor(1910)-karim(1810):1-0
21/06/2017:Eq:tin tin tin-LES CHATTERBOX : warriorette(1970)-patau(1850):1-0
21/06/2017:Eq:Les Gens du Sud-Pirates du Mat : philou(1920)-emmanuel69(1770):1-0
21/06/2017:Eq:Les Gens du Sud-Vikings : babie(1460)-emmanuel69(1790):0-1
21/06/2017:Coupe Niveau 2 blackbishop(1910)-mayaapof(1660):1-0
21/06/2017:Défi xercott(1710)-tipix(2019):0-1
21/06/2017:Défi zozo(1630)-tiounet(1720):1-0
21/06/2017:Défi dragon(1940)-patau(1810):1-0
21/06/2017:Défi roka(2440)-slipslapmonster(1809):1-0
21/06/2017:Défi patau(1820)-pascalou50(1670):0-1
21/06/2017:Défi thewolf(1440)-gambitor(1500):0-1
21/06/2017:Défi thomas(1280)-thewolf(1440):0-1
21/06/2017:Défi fisher(1580)-longjohn(1580):0-1
21/06/2017:Défi kerenor(1610)-pierrejean(1350):0-1
21/06/2017:Défi chess54(1460)-mokanne(1520):1-0
21/06/2017:Défi serjo(1300)-kerenor(1590):0-1
21/06/2017:Défi patau(1780)-otrigo3(1870):1-0
21/06/2017:Tous avec Goering tiounet(1680)-fly(2010):0-1
21/06/2017:Le vieux Roi 5 legrillon(1810)-intrigue(1720):1-0
21/06/2017:Faites vos jeux ascensseur(1580)-puma1965(1180):1-0
21/06/2017:Tournoi échelle élite danton68(1960)-slaughter(2220):1-0
21/06/2017:Tournoi échelle élite hilts(2190)-ptitefrez(2060):1-0
21/06/2017:Tournoi n°16545 fuji972(2030)-terrifiant(2260):1-0
21/06/2017:Tournoi n°16680 jmjustice(1610)-leet(1710):0-1
21/06/2017:Eq:les modestes-Les diplomates : jetjet91330(2160)-roxane(1470):1-0
21/06/2017:Coupe Niveau 2 patau(1900)-cebva(2020):1-0
21/06/2017:Coupe Niveau 1 tiounet(1740)-jlr(1430):0-1
21/06/2017:Défi morloch(1890)-jyf(1840):0-1
21/06/2017:Défi anderssen(2250)-patau(1820):1-0
21/06/2017:Défi tartu(1660)-mayaapof(1660):1-0
21/06/2017:Défi marieclaire(1310)-thewolf(1550):0-1
21/06/2017:Tournoi n°16590 thierry7ardeche(2050)-carotor(2270):0-1
21/06/2017:Tournoi n°16759 flo71(1880)-thierry06(1830):1-0
21/06/2017:Tournoi n°16524 mazdaroket(2030)-scacchi1301200(2040):0-1
21/06/2017:Tournoi n°16728 bibi07(1450)-joel(1390):0-1
21/06/2017:Tournoi n°16670 verson(1850)-loco11(1980):0-1
21/06/2017:Tournoi n°16692 simer(1780)-daniel1(1710):1-0
21/06/2017:Tournoi n°16719 leredoutable(1680)-intrigue(1700):0-1
21/06/2017:Eq:les grenades-Les Rebelles : craghack(2390)-hogar(2800):0-1
21/06/2017:Eq:Mission Impossible-O fou d hello : yab414(1620)-joel(1370):1-0
21/06/2017:Eq:Les Seigneurs de l Atlantide-Les Corsaires de Lechiquier : tjspret(1770)-scroff(2650):0-1
21/06/2017:Eq:LES CHATTERBOX-O fou d hello : flo71(1880)-uji40(1640):1-0
21/06/2017:Défi gordito(1640)-galaxys7(1169):1-0
21/06/2017:Défi damotte(2020)-hachevitch(2020):0-1
21/06/2017:Défi diagonel(1069)-anumisme(1370):0-1
21/06/2017:Défi jlouism(1540)-perepeinard34(1440):1-0
21/06/2017:Défi cortaz(1890)-vincentcoste(1770):1-0
21/06/2017:Défi ghostdog(1700)-toucco67(1730):1-0
21/06/2017:Gisèle 30 fly(2000)-tiounet(1670):1-0
21/06/2017:Tournoi n°16520 hackidoc(1870)-mistralgagnant(1840):1/2-1/2
21/06/2017:Tournoi n°16759 desaintfegor(1910)-verson(1900):0-1
21/06/2017:Tournoi n°16641 loursdu07(1699)-nogean(1640):1-0
21/06/2017:Tournoi n°16717 u27940(1910)-hargas(1990):1/2-1/2
21/06/2017:Tournoi n°16759 lad(1830)-desaintfegor(1910):1/2-1/2
21/06/2017:Eq:Les Gens du Sud-Les Quebecois : janolapin(1820)-swallow(2000):1-0
21/06/2017:Eq:Les Gens du Sud-les grenades : silveur(1940)-zax(2050):1/2-1/2
21/06/2017:Eq:London-Les Quebecois : nicodemouscron(2110)-janolapin(1800):1-0
21/06/2017:Eq:Danielsen City-Les vaillants : pournelle(2770)-azerty1(2270):1-0
21/06/2017:Défi jimi50(1900)-moi50(1770):1-0
21/06/2017:Défi vvvv(1690)-ramo(1670):1-0
21/06/2017:Défi azur50(1670)-pascalou50(1670):1-0
21/06/2017:Défi gilberthellemans(1630)-ramo(1670):0-1
21/06/2017:Défi nanaluce(1040)-anumisme(1330):0-1
21/06/2017:Défi hargas(1980)-pgo(1760):1-0
21/06/2017:Défi flo71(1880)-hargas(1930):0-1
21/06/2017:Défi zayka(1950)-den(1890):0-1
21/06/2017:Défi sisters(1590)-gina(1290):0-1
21/06/2017:Défi zayka(1940)-alexei31(1930):1-0
21/06/2017:Défi mrjim(999)-jellel67(1740):0-1
21/06/2017:Le vieux Roi 5 ascensseur(1610)-roschecx(1700):1/2-1/2
21/06/2017:Le vieux Roi 5 tiounet(1640)-janolapin(1800):0-1
21/06/2017:Tournoi n°16658 kiki24(1850)-moloch(1930):1/2-1/2
21/06/2017:Tournoi n°16744 upsalin(1690)-coyotov(1650):1-0
21/06/2017:Tournoi n°16675 marieclaire(1360)-katastrofic(1510):0-1
21/06/2017:Tournoi n°16664 thewolf(1450)-raymar(1530):0-1
21/06/2017:Tournoi n°16751 katastrofic(1570)-pilouface(1540):0-1
21/06/2017:Eq:Les Gens du Sud-Vikings : emmanuel69(1790)-babie(1460):1-0
21/06/2017:Défi papapoul(1199)-roidechecs(1260):0-1
21/06/2017:Défi tristan(1470)-thewolf(1440):1-0
21/06/2017:Défi roka(2410)-hargas(1960):1-0
21/06/2017:Défi malvina(1300)-katastrofic(1490):0-1
21/06/2017:Défi vincentcoste(1720)-matsonic(1750):1-0
21/06/2017:Défi pierrejean(1370)-joel(1420):1-0
21/06/2017:Défi anumisme(1390)-roidechecs(1300):1-0
21/06/2017:Pour le plaisir 36 turbo(1550)-thewolf(1450):1/2-1/2
21/06/2017:Pour le plaisir 37 turbo(1530)-thewolf(1500):0-1
21/06/2017:Tournoi échelle élite ptitefrez(2050)-danton68(2030):0-1
21/06/2017:Tournoi n°16744 magyar(1560)-coyotov(1650):0-1
21/06/2017:Tournoi n°16547 pessoa(2120)-hexahedron(2270):0-1
21/06/2017:Tournoi n°16553 banaw(1620)-onetwoyve(1780):0-1
21/06/2017:Tournoi n°16719 intrigue(1690)-kiki(1840):0-1
21/06/2017:Tournoi n°16743 hargas(1960)-lad(1840):0-1
21/06/2017:Défi superman(1820)-xav(1510):1-0
21/06/2017:Défi hugues(1470)-anibalou(1540):0-1
21/06/2017:Défi moi50(1770)-alain34(2180):0-1
21/06/2017:Défi chessgaston(2020)-tichaton(1490):1-0
21/06/2017:Défi janul13(1720)-ramo(1680):1-0
21/06/2017:Memorial Lara XIX intrigue(1720)-fly(2000):0-1
21/06/2017:ça part à l ouest leet(1700)-fly(1980):1-0
21/06/2017:allez y doucement emmanuel(1940)-jyf(1850):1-0
21/06/2017:Tournoi échelle division 2 tifointer(1890)-leet(1810):1-0
21/06/2017:Tournoi n°16504 mathildedn(1390)-katastrofic(1400):0-1
21/06/2017:Tournoi n°16680 zodiac(1740)-legrillon(1850):1-0
21/06/2017:Eq:Atomic Chess-Pirates du Mat : samchess(1840)-sp52(2460):1/2-1/2
21/06/2017:Eq:les biquetoces-Fair play : bechtoune(2280)-adrian(2410):0-1
21/06/2017:Eq:Les Seigneurs de l Atlantide-Danielsen City : e2e4(2070)-nodilo(2120):0-1
21/06/2017:Eq:Les Gens du Sud-les grenades : dragon(1950)-caspalov(2140):0-1
21/06/2017:Eq:Vikings-tin tin tin : doudou(1650)-bb7553(1750):0-1
21/06/2017:Eq:Les Gens du Sud-les parias : cebva(2030)-dragon(1930):1-0
21/06/2017:Défi anumisme(1390)-vb83(1550):0-1
21/06/2017:Défi darktiti(1570)-temistocles(1470):0-1
21/06/2017:Défi papymiche(1760)-cineyxp(1720):1-0
21/06/2017:Défi garlik(2000)-moi50(1830):0-1
21/06/2017:Défi cortaz(1860)-tunellavage(1770):1-0
21/06/2017:Bg1 bertelsen(1690)-crca(1930):1-0
21/06/2017:Faites vos jeux intrigue(1700)-dragon(1940):0-1
21/06/2017:Tournoi échelle champions gonzok67(1780)-bertelsen(1740):1-0
22/06/2017:Tournoi n°16697 vvvv(1690)-bobbietje(1430):1-0
22/06/2017:Tournoi n°16663 vickort(2410)-eltche(2400):0-1
22/06/2017:Tournoi n°16644 ragg(1490)-bezug66(1610):0-1
22/06/2017:Tournoi n°16717 manulatus(1950)-u27940(1910):0-1
22/06/2017:Tournoi n°16753 ghostdog(1670)-tifointer(1890):0-1
22/06/2017:Tournoi n°16748 garlik(2000)-nicodemouscron(2100):0-1
22/06/2017:Eq:Les Corsaires de Lechiquier-LA CITE ARDENTE : didierd(2670)-jmolla(2970):0-1
22/06/2017:Eq:Les Quebecois-Les pousseur de bois : roschecx(1680)-buggle(2040):0-1
22/06/2017:Eq:Vikings-Danielsen City : e2e4(2070)-mage(1830):1-0
22/06/2017:Défi jlcrepin(1360)-carlsen10(1609):1-0
22/06/2017:Défi doudou(1640)-janul13(1730):1-0
22/06/2017:Défi fabio985(1890)-moi50(1780):0-1
22/06/2017:Défi elghribi(1970)-alexei31(1950):0-1
22/06/2017:Défi jyf(1850)-cramsnellac(1790):1-0
22/06/2017:Rapide cricri57(1430)-fly(1570):0-1
22/06/2017:Rapide cricri57(1420)-moloch(1470):0-1
22/06/2017:Rapide bertelsen(1290)-cricri57(1420):1/2-1/2
22/06/2017:Rapide moloch(1500)-qasar(1380):1-0
22/06/2017:Rapide verson(1460)-feenschach(1599):1/2-1/2
22/06/2017:Bg1 crca(1930)-fly(1960):0-1
22/06/2017:Symphonie n°1 legrillon(1850)-karkaskat(2120):0-1
22/06/2017:Tournoi n°16433 leredoutable(1750)-karim(1680):1-0
22/06/2017:Tournoi n°16556 leredoutable(1750)-karim(1760):1-0
22/06/2017:Tournoi n°16578 karim(1770)-leredoutable(1750):0-1
22/06/2017:Eq:Les Corsaires de Lechiquier-les modestes : mohamedramdane(2710)-jmolla(2940):1/2-1/2
22/06/2017:Eq:Les Quebecois-cotenstock : bmwm3(1350)-hinnol(1860):0-1
22/06/2017:Eq:Les Quebecois-cotenstock : hinnol(1860)-bmwm3(1350):1-0
22/06/2017:Eq:La X Familly-Les Quebecois : mimioko(1990)-hexahedron(2300):0-1
22/06/2017:Défi vvvv(1690)-youliyouli(1810):0-1
22/06/2017:Défi zozo(1600)-gilberthellemans(1620):0-1
22/06/2017:Défi berjay(1830)-zozo(1610):1-0
22/06/2017:Défi wenoketo(1580)-zozo(1630):1-0
22/06/2017:Leffet Larsen leet(1790)-mefi61(1699):1-0
22/06/2017:Tournoi n°16658 karim(1820)-u27940(1930):0-1
22/06/2017:Tournoi n°16686 marieclaire(1370)-bibi07(1400):0-1
22/06/2017:Tournoi n°16729 tiounet(1680)-upsalin(1670):0-1
22/06/2017:Tournoi n°16394 leredoutable(1740)-karim(1690):1-0
22/06/2017:Tournoi n°16699 thewolf(1510)-coyotov(1660):0-1
22/06/2017:Tournoi n°16720 upsalin(1680)-tiounet(1670):0-1
22/06/2017:Eq:LA CITE ARDENTE-les biquetoces : bazart(1990)-maxhabran(1920):1-0
22/06/2017:Eq:les modestes-LA CITE ARDENTE : avefenix17(2690)-bigbobo(2280):1-0
22/06/2017:Eq:Les vaillants -LA CITE ARDENTE : carottc(2480)-bigbobo(2290):1-0
22/06/2017:Défi dragon(1940)-patau(1820):1-0
22/06/2017:Défi vb83(1530)-bertelsen(1740):1-0
22/06/2017:Défi nimzoindien(1880)-jajaf1959(1890):1/2-1/2
22/06/2017:Défi roidechecs(1300)-kawa750(1620):0-1
22/06/2017:turtle2 kaspouille(2300)-fly(1950):1-0
22/06/2017:Symphonie n°1 tiounet(1640)-laetitia67(1440):0-1
22/06/2017:Leffet Larsen tiounet(1740)-mefi61(1699):1-0
22/06/2017:Leffet Larsen ptitefrez(2070)-mefi61(1699):1-0
22/06/2017:Tournoi n°16529 alexleblanc(2230)-kaspouille(2300):1-0
22/06/2017:Tournoi n°16608 legrillon(1820)-pgo(1800):1/2-1/2
22/06/2017:Tournoi n°16595 arno(1710)-mistralgagnant(1860):1-0
22/06/2017:Tournoi n°16759 verson(1910)-thierry06(1830):1/2-1/2
22/06/2017:Tournoi n°16764 verson(1910)-arno(1710):1-0
22/06/2017:Tournoi n°16735 upsalin(1670)-raymar(1560):1-0
22/06/2017:Tournoi n°16592 louis67(1560)-cineyxp(1410):0-1
22/06/2017:Tournoi n°16659 vb83(1520)-clisson44(1530):0-1
22/06/2017:Tournoi n°16735 tiounet(1660)-upsalin(1670):0-1
22/06/2017:Tournoi n°16713 upsalin(1680)-zozo(1630):1/2-1/2
22/06/2017:Tournoi n°16754 ghostdog(1670)-arno(1750):1-0
22/06/2017:Tournoi n°16754 tiounet(1730)-arno(1750):1-0
22/06/2017:Eq:les fous de bassans-La X Familly : mimioko(1990)-salut(1960):0-1
22/06/2017:Défi lancov(1980)-zayka(1950):0-1
22/06/2017:Défi zozo(1640)-cortaz(1890):0-1
22/06/2017:Défi jpjay(1760)-den(1880):1-0
22/06/2017:Défi hachevitch(1910)-rvsinovitch(1990):1-0
22/06/2017:Défi agapenor(2090)-minon(2020):0-1
22/06/2017:Défi patau(1810)-pgo(1750):0-1
22/06/2017:Défi chocotov(2080)-steflam(1510):1-0
22/06/2017:Défi jpjay(1760)-pierre1(1810):1-0
22/06/2017:Le vieux roi 2 thewolf(1440)-yannygator(1710):1-0
22/06/2017:Leffet Larsen bertelsen(1740)-mefi61(1699):1-0
22/06/2017:Tournoi n°16590 alain64(2180)-thierry7ardeche(2050):1-0
22/06/2017:Tournoi n°16694 karim(1830)-bim(2030):0-1
22/06/2017:Tournoi n°16563 karim(1760)-simer(1730):0-1
22/06/2017:Tournoi n°16396 lasker(2400)-piteau(2699):1/2-1/2
22/06/2017:Tournoi n°16721 karim(1800)-verson(1940):0-1
22/06/2017:Eq:les champions-Les Quebecois : hub(1820)-ngeorget(2370):0-1
22/06/2017:Eq:Les Gens du Sud-CHESS MASTER : verson(1870)-mgb2(1660):1/2-1/2
22/06/2017:Coupe Niveau 1 thewolf(1450)-patau(1850):0-1
22/06/2017:Coupe Niveau 3 patau(1820)-elghribi(1960):1-0
22/06/2017:Défi lecevenol(1370)-katastrofic(1530):1/2-1/2
22/06/2017:Défi luc20(1790)-patau(1770):1-0
22/06/2017:Défi pgo(1800)-nono1950(1290):1-0
22/06/2017:Défi gambitor(1510)-roger72(1410):1-0
22/06/2017:Défi fabio985(1890)-steflam(1510):1-0
22/06/2017:Défi patau(1820)-domenico(1830):0-1
22/06/2017:Défi patau(1840)-flosuper(1990):1/2-1/2
22/06/2017:Défi fanch2pic(1360)-anumisme(1380):1-0
22/06/2017:Défi patau(1780)-domenico(1840):0-1
22/06/2017:Défi tetene(1680)-pourquoipas(1530):1-0
22/06/2017:Défi aigle12(1460)-cortaz(1860):0-1
22/06/2017:Le vieux Roi 5 legrillon(1810)-thewolf(1480):1-0
22/06/2017:Tournoi n°16741 lamagouille(1500)-tiounet(1680):1-0
22/06/2017:Tournoi n°16384 karim(1680)-connecticcut(1830):0-1
22/06/2017:Tournoi n°16653 connecticcut(1850)-karim(1810):1-0
22/06/2017:Tournoi n°16732 roka(2450)-paulcaresse(2500):1/2-1/2
22/06/2017:Tournoi n°16637 papillon22(1730)-tiounet(1660):0-1
22/06/2017:Eq:les fous de bassans-La X Familly : salut(1960)-mimioko(1990):1-0
22/06/2017:Défi onetwoyve(1790)-karim(1770):1-0
22/06/2017:Défi cineyxp(1720)-marieclaire(1270):1-0
22/06/2017:Défi ascensseur(1560)-kaspouille(2350):0-1
22/06/2017:Défi gervaise(1110)-titit1(1250):0-1
22/06/2017:Eté 2017 n°2 bertelsen(1710)-verson(1910):1-0
22/06/2017:brin de foin tiounet(1690)-ascensseur(1550):1-0
22/06/2017:Leffet Larsen flmnh(1770)-mefi61(1699):1-0
22/06/2017:Tournoi échelle élite johndoe(2090)-verson(1900):1-0
22/06/2017:Tournoi n°16653 verson(1840)-karim(1810):1-0
22/06/2017:Tournoi n°16741 coyotov(1670)-lamagouille(1500):1-0
22/06/2017:Tournoi n°16737 doudou(1670)-barake(1620):0-1
22/06/2017:Tournoi n°16741 tiounet(1670)-artistepeintre(1490):1-0
22/06/2017:Tournoi n°16717 loco11(2000)-verson(1930):1-0
22/06/2017:Eq:Pirates du Mat-CHESS MASTER : zayka(1950)-johan1977(2160):0-1
22/06/2017:Coupe Niveau 6 laronix(2370)-mudra(2200):1-0
22/06/2017:Défi rambonov(1570)-doudou(1640):1-0
22/06/2017:Défi burgman(2110)-tonton77(1870):1-0
22/06/2017:Défi thewolf(1440)-dan84(1500):0-1
22/06/2017:Défi upsalin(1730)-thierry22(1580):0-1
22/06/2017:Défi pierre1(1810)-moi50(1830):0-1
22/06/2017:Défi retinolls(1870)-moi50(1700):0-1
22/06/2017:Défi chevalice(1570)-youliyouli(1800):0-1
22/06/2017:atteindrelessommets ratzi(1990)-fly(1970):1/2-1/2
22/06/2017:TournoiRebelles1B akkullanu(2620)-fredelebouric12(2520):1-0
22/06/2017:Memorial Lara XXI bertelsen(1700)-coxynelle(1900):0-1
22/06/2017:Pour le plaisir 38 tiounet(1630)-thewolf(1460):1-0
22/06/2017:Pour le plaisir 38 thewolf(1460)-tiounet(1630):0-1
22/06/2017:La Défense Grunfeld fly(2000)-galaxyj5(1370):1-0
22/06/2017:brin de foin ascensseur(1550)-thewolf(1520):0-1
22/06/2017:Leffet Larsen skalfa(1760)-mefi61(1699):1-0
22/06/2017:Tournoi échelle division 1 ephixe(1710)-daniel1(1700):1-0
22/06/2017:Tournoi n°16529 vincent(2230)-alexleblanc(2230):1/2-1/2
22/06/2017:Tournoi n°16656 manulatus(1900)-pgo(1810):1/2-1/2
22/06/2017:Tournoi n°16759 thierry06(1830)-desaintfegor(1910):0-1
22/06/2017:Tournoi n°16664 panchoa(1570)-thewolf(1430):1-0
22/06/2017:Tournoi n°16720 panchoa(1580)-upsalin(1680):0-1
22/06/2017:Tournoi n°16768 simer(1800)-tiounet(1720):1-0
22/06/2017:Eq:Les Corsaires de Lechiquier-les modestes : scroff(2710)-sherezo(2680):1/2-1/2
22/06/2017:Eq:Les diplomates-Les Corsaires de Lechiquier : slipslapmonster(1929)-ychiduodlatour(2660):1-0
22/06/2017:Défi titia13(1330)-kerenor(1590):0-1
22/06/2017:Défi patau(1810)-mayaapof(1660):1-0
22/06/2017:Défi mayaapof(1630)-jenaipeurderien(1600):1-0
22/06/2017:Défi mayaapof(1660)-perepeinard34(1440):1-0
22/06/2017:Défi pgo(1790)-maya24(1540):1-0
22/06/2017:Défi ascensseur(1580)-thewolf(1530):0-1
22/06/2017:Le vieux Roi 5 roschecx(1700)-thewolf(1480):1-0
22/06/2017:Le vieux Roi 5 qasar(1780)-thewolf(1480):1-0
22/06/2017:Le vieux Roi 5 thewolf(1480)-mathador93(1480):0-1
22/06/2017:thewolf 2 mathador93(1480)-ascensseur(1620):0-1
22/06/2017:brin de foin thewolf(1520)-ascensseur(1550):0-1
22/06/2017:Tournoi n°16664 thewolf(1430)-wenoketo(1610):0-1
22/06/2017:Tournoi n°16718 angelcrab(1480)-kiki37(1430):1-0
22/06/2017:Tournoi n°16726 thewolf(1550)-upsalin(1680):1-0
22/06/2017:Eq:les modestes-les grenades : jetjet91330(2220)-caspalov(2140):0-1
22/06/2017:Eq:Les Seigneurs de l Atlantide-Les Gens du Sud : dragon(1930)-petrus2000(2000):0-1
22/06/2017:Eq:Les vaillants -Vikings : ratzi(1920)-loulou14(2149):0-1
22/06/2017:Eq:Danielsen City-Les vaillants : ben18(2230)-eanouis(2020):1-0
22/06/2017:Défi kaby771(2130)-tonton77(1860):1-0
22/06/2017:Défi patau(1830)-leredoutable(1740):1-0
22/06/2017:Défi thewolf(1540)-maximax(1210):1-0
22/06/2017:Défi kleoj(2100)-gfcyoupi(2130):0-1
22/06/2017:Défi cineyxp(1720)-gobois(1710):1-0
22/06/2017:Défi silv(2180)-salut(1970):0-1
22/06/2017:Défi wenoketo(1590)-azur50(1670):1/2-1/2
22/06/2017:Connaissez vous la Caro laetitia67(1520)-ascensseur(1610):1/2-1/2
22/06/2017:Pour le plaisir 37 thewolf(1500)-turbo(1530):0-1
22/06/2017:thewolf 2 titit1(1300)-turbo(1510):0-1
22/06/2017:Leffet Larsen tartu(1740)-mefi61(1699):1-0
22/06/2017:Tournoi échelle champions jajaf1959(1890)-dragon(1920):1-0
22/06/2017:Tournoi n°16765 panchoa(1590)-upsalin(1690):0-1
22/06/2017:Tournoi n°16723 baranowsky(1780)-dragon(1900):1-0
22/06/2017:Eq:Les Gens du Sud-Les Quebecois : swallow(2000)-janolapin(1820):1-0
22/06/2017:Eq:Les vaillants -Vikings : loulou14(2149)-ratzi(1920):1-0
22/06/2017:Eq:Pirates du Mat-Royal Kids : volatile(2400)-tambour(2200):1-0
22/06/2017:Eq:Les Gens du Sud-Vikings : dragon(1920)-moutarde18(1890):0-1
22/06/2017:Eq:Les vaillants -Pirates du Mat : rackam(1990)-loulou14(2159):0-1
22/06/2017:Coupe Niveau 3 elghribi(1970)-mayaapof(1680):1-0
22/06/2017:Défi asvel69(1720)-mayaapof(1650):0-1
22/06/2017:Défi framar(1630)-mayaapof(1650):0-1
22/06/2017:Défi gasperzero(2050)-tonton77(1860):0-1
22/06/2017:Défi tian(1360)-thewolf(1440):0-1
22/06/2017:Défi jpjay(1810)-bonamur(1940):1-0
22/06/2017:Défi regor(2080)-tonton77(1870):1-0
22/06/2017:Défi den(1880)-roger72(1410):1-0
22/06/2017:Défi temistocles(1430)-tiounet(1690):0-1
22/06/2017:Défi swallow(1980)-tunellavage(1760):1-0
22/06/2017:Défi flosuper(1990)-padomi85(1950):1-0
22/06/2017:Symphonie n°1 laetitia67(1440)-leet(1740):1-0
22/06/2017:Tournoi échelle division 1 bistro1(1690)-jdb(1960):0-1
23/06/2017:Tournoi n°16751 pilouface(1540)-upsalin(1710):0-1
23/06/2017:Eq:Les Corsaires de Lechiquier-LA CITE ARDENTE : jmolla(2970)-didierd(2670):1-0
23/06/2017:Eq:Les Gens du Sud-LA CITE ARDENTE : silveur(1900)-quasar999(1990):0-1
23/06/2017:Eq:CHESS MASTER-LES CHATTERBOX : ephixe(1770)-galaxys7(1369):1-0
23/06/2017:Coupe Niveau 3 choucki11(1670)-onetwoyve(1770):1-0
23/06/2017:Défi fly(1980)-monia(2380):0-1
23/06/2017:Défi carotor(2270)-artorg(2110):0-1
23/06/2017:Défi mayaapof(1650)-gambitmiau(1650):1-0
23/06/2017:Défi vulcain14(1510)-hugues(1490):0-1
23/06/2017:Défi mauro(1790)-berjay(1840):0-1
23/06/2017:Défi pionroi(2039)-flosuper(2000):1-0
23/06/2017:Défi yannygator(1680)-anumisme(1400):0-1
23/06/2017:Défi cortaz(1860)-bibisept(1870):1-0
23/06/2017:Défi vb83(1530)-wenoketo(1580):1-0
23/06/2017:Défi antoinenono(1400)-lecevenol(1370):1-0
23/06/2017:Rapide yab414(1200)-thewolf(1000):1-0
23/06/2017:Rapide foxie519(1300)-yab414(1190):0-1
23/06/2017:Rapide verson(1510)-crca(1560):1-0
23/06/2017:Rapide verson(1500)-ralexus2008(1599):1-0
23/06/2017:Rapide bertelsen(1260)-thewolf(1090):1-0
23/06/2017:Rapide johndoe(1619)-moloch(1490):1-0
23/06/2017:Rapide qasar(1380)-verson(1480):1/2-1/2
23/06/2017:Rapide verson(1490)-degun(1520):1-0
23/06/2017:Rapide bertelsen(1250)-foxie519(1300):0-1
23/06/2017:Rapide verson(1490)-moloch(1490):0-1
23/06/2017:Pour le plaisir de jouer salut(2010)-fly(2010):0-1
23/06/2017:Alekhine pour les Nuls skalfa(1730)-ascensseur(1590):1/2-1/2
23/06/2017:Tournoi n°16607 skyfall(2180)-vincent(2150):1/2-1/2
23/06/2017:Tournoi n°16603 aphatsum(2460)-paulcaresse(2490):1/2-1/2
23/06/2017:Tournoi n°16716 leredoutable(1680)-wendydydy(1650):1-0
23/06/2017:Eq:les modestes-Les Corsaires de Lechiquier : phgrill(2790)-sherezo(2750):1/2-1/2
23/06/2017:Tournoi n°16386 donjon(1640)-jlr(1470):1-0
23/06/2017:Tournoi n°16450 zodiac(1770)-karim(1740):1-0
23/06/2017:Coupe Niveau 1 jlr(1430)-karim(1750):1-0
23/06/2017:Défi kaspy(1660)-anglais(1610):0-1
23/06/2017:Défi tonio14(1340)-thewolf(1540):0-1
23/06/2017:Défi roschecx(1650)-anglais(1600):1-0
23/06/2017:Défi schnibble(2399)-roger72(1390):1-0
23/06/2017:Défi tetene(1640)-daktari(1619):0-1
23/06/2017:Défi titia13(1350)-thewolf(1520):1-0
23/06/2017:Défi hberlioz(1600)-minon(2020):0-1
23/06/2017:Tournoi n°16658 u27940(1930)-kiki24(1840):1-0
23/06/2017:Tournoi n°16658 karim(1820)-kiki24(1850):0-1
23/06/2017:Tournoi n°16568 karim(1770)-upsalin(1690):0-1
23/06/2017:Tournoi n°16530 tartu(1720)-karim(1790):1-0
23/06/2017:Tournoi n°16453 tartu(1770)-karim(1740):1-0
23/06/2017:Tournoi n°16728 bibi07(1450)-sampiero2a(1390):0-1
23/06/2017:Tournoi n°16578 arno(1760)-karim(1770):1-0
23/06/2017:Tournoi n°16643 karim(1820)-desaintfegor(1890):0-1
23/06/2017:Tournoi n°16754 arno(1750)-mojo(1790):1-0
23/06/2017:Eq:CHESS MASTER-les fous de bassans : albescab(1620)-kiki51(1690):1-0
23/06/2017:Coupe Niveau 3 karim(1720)-fly(1970):0-1
23/06/2017:Coupe Niveau 3 mudra(2180)-superlolo83(1790):1-0
23/06/2017:Défi burgman(2120)-loloth77(1920):1-0
23/06/2017:Défi bidoche(1710)-doudou(1630):1-0
23/06/2017:Défi chedru2000(2200)-karim(1820):1-0
23/06/2017:Défi xav(1490)-maluel(1580):0-1
23/06/2017:Défi azur50(1670)-jimi50(1900):0-1
23/06/2017:Défi degun(1900)-patau(1830):1-0
23/06/2017:Défi janul13(1730)-xav(1470):1-0
23/06/2017:Défi pourquoipas(1490)-zozo(1620):1/2-1/2
23/06/2017:Leffet Larsen ptitefrez(2070)-tartu(1740):1-0
23/06/2017:Tournoi n°16752 dragon(1930)-karim(1810):1-0
23/06/2017:Tournoi n°16765 vb83(1550)-panchoa(1590):0-1
23/06/2017:Tournoi n°16727 cramsnellac(1790)-kala(1840):1/2-1/2
23/06/2017:Eq:les chics capons-Les Quebecois : fredelebouric12(2520)-hub(1820):1-0
23/06/2017:Eq:CHESS MASTER-LES CHATTERBOX : patau(1810)-bassdark(2080):0-1
23/06/2017:Coupe Niveau 1 verson(1910)-jlr(1380):1-0
23/06/2017:Défi quasar999(1990)-karhu(1499):1-0
23/06/2017:Défi philou(1910)-patau(1850):1-0
23/06/2017:Défi patau(1820)-thewolf(1450):1-0
23/06/2017:Défi patau(1820)-ptitefrez(2040):0-1
23/06/2017:Défi patau(1840)-artistepeintre(1500):1-0
23/06/2017:Défi azur(1580)-zozo(1640):0-1
23/06/2017:Défi zozo(1640)-ralexus2008(1000):1-0
23/06/2017:Fête des pères tiounet(1680)-petitlulu64(1690):0-1
23/06/2017:Hémorroïdes tartu(1780)-intrigue(1700):1/2-1/2
23/06/2017:Hémorroïdes intrigue(1700)-tartu(1780):1/2-1/2
23/06/2017:Tournoi n°16653 karim(1810)-pgo(1810):0-1
23/06/2017:Tournoi n°16520 mistralgagnant(1840)-lad(1870):1-0
23/06/2017:Tournoi n°16597 karim(1810)-pgo(1800):0-1
23/06/2017:Eq:Danielsen City-les biquetoces : bazart(1970)-ypap(1940):1-0
23/06/2017:Défi silv(2110)-gfcyoupi(2100):1/2-1/2
23/06/2017:Défi gonzok67(1800)-patau(1800):1-0
23/06/2017:Défi genpolf(1840)-janolapin(1850):0-1
23/06/2017:Défi patau(1810)-elritone(1820):1/2-1/2
23/06/2017:Défi anumisme(1330)-marcol(1060):1-0
23/06/2017:Défi janul13(1710)-orejas(1510):1-0
23/06/2017:Défi patau(1820)-dragon(1950):1-0
23/06/2017:Défi patau(1820)-legros(1770):0-1
23/06/2017:Défi kowabounga(1780)-bidoche(1720):1-0
23/06/2017:Défi alexei31(1950)-flosuper(1990):0-1
23/06/2017:brin de foin puma1965(1170)-ascensseur(1550):0-1
23/06/2017:Tournoi échelle division 1 jlouism(1550)-dragonchess(1720):0-1
23/06/2017:Tournoi échelle division 1 jlr(1480)-yab414(1620):1-0
23/06/2017:Tournoi échelle champions dragon(1920)-zincou75(2040):0-1
23/06/2017:Tournoi échelle champions verson(1940)-salut(1980):1-0
23/06/2017:Tournoi n°16744 coyotov(1650)-loal(1630):1-0
23/06/2017:Tournoi n°16736 legrillon(1800)-tiounet(1670):1-0
23/06/2017:Tournoi n°16766 kala(1850)-tiounet(1710):1/2-1/2
23/06/2017:Tournoi n°16658 pgo(1820)-karim(1820):1-0
23/06/2017:Tournoi n°16759 thierry06(1830)-lad(1850):0-1
23/06/2017:Tournoi n°16613 karim(1840)-pgo(1810):0-1
23/06/2017:Tournoi n°16643 pgo(1800)-karim(1820):1-0
23/06/2017:Tournoi n°16661 karim(1830)-pgo(1800):0-1
23/06/2017:Tournoi n°16698 tiounet(1630)-legrillon(1840):0-1
23/06/2017:Tournoi n°16720 magyar(1580)-panchoa(1590):0-1
23/06/2017:Tournoi n°16753 leredoutable(1640)-ghostdog(1670):1-0
23/06/2017:Eq:Les diplomates-les parias : bidoche(1690)-bertelsen(1730):0-1
23/06/2017:Défi tryphon(1580)-clooock(1570):0-1
23/06/2017:Défi gervaise(1120)-petitpion(1260):1-0
23/06/2017:Défi maximeg(1320)-kerenor(1600):0-1
23/06/2017:Défi burgman(2110)-tonton77(1860):1-0
23/06/2017:Défi burgman(2110)-tonton77(1860):1-0
23/06/2017:Défi katastrofic(1540)-pierrejean(1360):1-0
23/06/2017:Défi panchoa(1600)-hberlioz(1600):0-1
23/06/2017:Défi cineyxp(1720)-zozo(1630):1-0
23/06/2017:Défi hberlioz(1640)-azur(1580):0-1
23/06/2017:Défi cortaz(1870)-arno(1750):1-0
23/06/2017:Défi tiounet(1720)-zozo(1630):0-1
23/06/2017:Défi tiounet(1720)-zozo(1630):0-1
23/06/2017:Défi hberlioz(1630)-bertelsen(1710):1-0
23/06/2017:Le vieux Roi 5 roschecx(1700)-ascensseur(1610):0-1
23/06/2017:Tournoi n°16741 artistepeintre(1490)-coyotov(1670):0-1
23/06/2017:Tournoi n°16597 karim(1800)-bonamur(1920):0-1
23/06/2017:Tournoi n°16759 lad(1830)-flo71(1880):1-0
23/06/2017:Tournoi n°16519 verson(1900)-karim(1760):1-0
23/06/2017:Tournoi n°16752 dragon(1930)-verson(1930):1-0
23/06/2017:Tournoi n°16747 simer(1740)-tinenfant(1800):0-1
23/06/2017:Tournoi n°16714 ralexus2008(1000)-thomas(1280):0-1
23/06/2017:Tournoi n°16755 thewolf(1520)-qsdmlk(1620):0-1
23/06/2017:Tournoi n°16774 verson(1910)-u27940(1930):0-1
23/06/2017:Eq:les modestes-Pirates du Mat : izemassalas(2700)-volatile(2390):1/2-1/2
23/06/2017:Eq:Royal Kids-Les Rebelles : kaspouille(2350)-pgo(1760):1-0
23/06/2017:Coupe Niveau 8 conde7(2850)-cibox(2560):1-0
23/06/2017:Coupe Niveau 2 kowabounga(1810)-noelleon(2189):0-1
23/06/2017:Défi cyrano(2399)-karhu(1499):1/2-1/2
23/06/2017:Défi mathildedn(1340)-kerenor(1610):0-1
23/06/2017:Défi thewolf(1530)-anumisme(1380):0-1
23/06/2017:Défi pgo(1760)-cortaz(1870):1-0
23/06/2017:Défi jpjay(1760)-algors(1800):1-0
23/06/2017:Défi bnj(1800)-zatopek(1730):1-0
23/06/2017:Défi gobois(1720)-chloridrix(1550):0-1
23/06/2017:Défi azur50(1680)-hberlioz(1630):1-0
23/06/2017:Défi flosuper(1990)-alexei31(1950):1-0
23/06/2017:Défi hberlioz(1630)-pgo(1770):0-1
23/06/2017:Eté 2017 n°5 bazart(1950)-kaspouille(2360):0-1
23/06/2017:Tournoi n°16636 karim(1820)-verson(1820):0-1
23/06/2017:Tournoi n°16744 coyotov(1650)-thewolf(1520):0-1
23/06/2017:Tournoi n°16765 panchoa(1590)-angerpat(1580):0-1
23/06/2017:Tournoi n°16703 mayaapof(1660)-magyar(1560):1-0
23/06/2017:Tournoi n°16628 verson(1830)-karim(1830):1-0
23/06/2017:Tournoi n°16759 desaintfegor(1910)-flo71(1880):0-1
23/06/2017:Tournoi n°16647 magyar(1520)-albescab(1630):1-0
23/06/2017:Tournoi n°16764 intrigue(1700)-verson(1900):0-1
23/06/2017:Tournoi n°16665 tonton77(1870)-karim(1820):1-0
23/06/2017:Eq:Les Gens du Sud-Danielsen City : verson(1830)-ypap(1910):1-0
23/06/2017:Eq:tin tin tin-LechiquierDesHurlus : gortax(2260)-bubbly(1250):1-0
23/06/2017:Coupe Niveau 1 baranowsky(1780)-verson(1930):0-1
23/06/2017:Défi antoinenono(1400)-pitchoune50(1040):1-0
23/06/2017:Défi antoinenono(1400)-titit1(1340):0-1
23/06/2017:Défi tartu(1710)-jpjay(1770):0-1
23/06/2017:Défi tonio14(1340)-anumisme(1370):0-1
23/06/2017:Défi jeanphy(1060)-roger72(1410):0-1
23/06/2017:Défi wenoketo(1590)-pheno(1610):1-0
23/06/2017:Défi degun(1870)-superman(1800):1-0
23/06/2017:Défi berjay(1840)-retinolls(1850):1-0
23/06/2017:Défi choucki11(1670)-titit1(1300):1-0
23/06/2017:Défi roidechecs(1260)-maximax(1180):1-0
23/06/2017:Tournoi n°16710 wenoketo(1570)-nogean(1650):0-1
23/06/2017:Tournoi n°16691 manu32(1950)-desaintfegor(1910):0-1
23/06/2017:Eq:les grenades-tin tin tin : ecjc(1970)-mistralgagnant(1870):0-1
23/06/2017:Eq:les chics capons-Les Oiseaux d Amsterdam : choucki11(1680)-titit1(1310):1-0
23/06/2017:Eq:les chics capons-Les Oiseaux d Amsterdam : titit1(1310)-choucki11(1680):0-1
23/06/2017:Coupe Niveau 1 choucki11(1680)-lad(1840):0-1
23/06/2017:Coupe Niveau 1 choucki11(1690)-thewolf(1510):0-1
23/06/2017:Défi youliyouli(1800)-coxynelle(1880):1-0
23/06/2017:Défi katastrofic(1530)-turbo(1520):0-1
23/06/2017:Défi janul13(1730)-vincentcoste(1720):1-0
23/06/2017:Défi soso69(1430)-anumisme(1400):0-1
23/06/2017:Défi maskali(1790)-hberlioz(1620):1-0
23/06/2017:Défi jmr(1590)-mefi61(1699):1-0
23/06/2017:Memorial Lara XXI coxynelle(1900)-neigemet(2300):0-1
23/06/2017:Leffet Larsen mefi61(1699)-tiounet(1740):0-1
23/06/2017:Tournoi n°16292 philou(1870)-fly(1950):1/2-1/2
23/06/2017:Tournoi n°16497 karim(1750)-zodiac(1740):0-1
23/06/2017:Tournoi n°16730 jazzzz(1780)-leredoutable(1660):0-1
23/06/2017:Tournoi n°16628 chomi64(1910)-karim(1830):1-0
23/06/2017:Tournoi n°16731 legrillon(1830)-tiounet(1670):1-0
23/06/2017:Tournoi n°16715 mayaapof(1660)-magyar(1580):1-0
23/06/2017:Tournoi n°16737 tiounet(1660)-doudou(1670):1/2-1/2
23/06/2017:Eq:Les pousseur de bois-O fou d hello : yab414(1650)-legrillon(1810):0-1
23/06/2017:Eq:Les vaillants -Vikings : piteau(2740)-tombelaine(2190):1-0
23/06/2017:Défi gina(1290)-antoinenono(1390):0-1
23/06/2017:Défi titit1(1330)-anumisme(1380):0-1
23/06/2017:Défi morloch(1960)-agamanevaceo(2140):1-0
23/06/2017:Défi loki51(1800)-comte57(1580):1-0
23/06/2017:Défi matsonic(1740)-pourquoipas(1500):1-0
23/06/2017:Défi ralexus2008(1000)-pitchoune50(1050):0-1
23/06/2017:brin de foin ascensseur(1550)-puma1965(1170):1-0
23/06/2017:Leffet Larsen mefi61(1699)-bertelsen(1740):0-1
23/06/2017:Hémorroïdes ascensseur(1580)-connecticcut(1840):1/2-1/2
24/06/2017:Tournoi n°16340 chomi64(1950)-patau(1880):0-1
24/06/2017:Tournoi n°16685 connecticcut(1860)-bnj(1840):0-1
24/06/2017:Coupe Niveau 6 alain64(2160)-didierd(2660):1-0
24/06/2017:Défi kawa750(1630)-cortaz(1920):0-1
24/06/2017:Rapide gl1(1850)-kaspouille(1690):1-0
24/06/2017:Rapide foxie519(1300)-verson(1490):0-1
24/06/2017:Tournoi échelle champions daniel1(1700)-gonzok67(1770):0-1
24/06/2017:Tournoi n°16731 leredoutable(1660)-tiounet(1680):0-1
24/06/2017:Tournoi n°16718 angelcrab(1480)-jlr(1400):0-1
24/06/2017:Défi letsplay(1640)-temistocles(1500):1-0
24/06/2017:Hémorroïdes connecticcut(1840)-ascensseur(1580):0-1
24/06/2017:Défi crca(1950)-vb83(1480):0-1
24/06/2017:Tournoi n°16600 verson(1830)-karim(1810):1-0
24/06/2017:Tournoi n°16471 vvvv(1680)-olivierprio(1620):1-0
24/06/2017:Tournoi n°16568 karim(1770)-verson(1910):0-1
24/06/2017:Tournoi n°16530 verson(1860)-karim(1790):1-0
24/06/2017:Tournoi n°16594 karim(1800)-verson(1840):0-1
24/06/2017:Tournoi n°16578 verson(1860)-karim(1770):1-0
24/06/2017:Tournoi n°16613 karim(1840)-verson(1820):0-1
24/06/2017:Tournoi n°16643 karim(1820)-verson(1840):0-1
24/06/2017:Coupe Niveau 2 karim(1850)-verson(1840):0-1
24/06/2017:Tournoi n°16494 aramis(1740)-karim(1750):1-0
24/06/2017:Tournoi n°16721 pgo(1800)-karim(1790):1-0
24/06/2017:Tournoi n°16712 fanch2pic(1360)-jlr(1360):1-0
24/06/2017:Eq:Vikings-tin tin tin : jc76870(1330)-thewolf(1550):0-1
24/06/2017:Eq:Vikings-tin tin tin : thewolf(1550)-jc76870(1330):1-0
24/06/2017:Défi felin(1820)-arno(1710):1-0
24/06/2017:Défi malvina(1290)-roger72(1410):0-1
24/06/2017:Défi albescab(1630)-zed34(1460):1-0
24/06/2017:Le vieux Roi 5 intrigue(1720)-roschecx(1700):0-1
24/06/2017:thewolf 2 turbo(1510)-thewolf(1460):0-1
24/06/2017:Faites vos jeux kaspouille(2330)-flmnh(1790):1-0
24/06/2017:Leffet Larsen mefi61(1699)-flmnh(1770):0-1
24/06/2017:Leffet Larsen mefi61(1699)-tartu(1740):0-1
24/06/2017:Tournoi n°16690 verson(1890)-silveur(1910):1-0
24/06/2017:Tournoi n°16499 kiki37(1390)-jlr(1420):0-1
24/06/2017:Tournoi n°16728 jlr(1410)-sampiero2a(1390):1-0
24/06/2017:Tournoi n°16641 marco(1540)-loursdu07(1699):0-1
24/06/2017:Coupe Niveau 2 dragonchess(1670)-yannygator(1750):1-0
24/06/2017:Coupe Niveau 3 emmanuel(1940)-olivyeah(1910):1-0
24/06/2017:Coupe Niveau 4 elghribi(1990)-verson(1910):1-0
24/06/2017:Défi rocketman(2020)-apocalypce(1810):1-0
24/06/2017:Défi steflam(1510)-kaby771(2130):0-1
24/06/2017:Défi cloclo(1750)-cramsnellac(1780):1/2-1/2
24/06/2017:Défi asvel69(1710)-cortaz(1930):1-0
24/06/2017:Leffet Larsen mefi61(1699)-leet(1790):0-1
24/06/2017:Tournoi n°16567 maxhabran(1870)-zax(2010):1/2-1/2
24/06/2017:Tournoi n°16619 karim(1850)-garlik(1960):0-1
24/06/2017:Tournoi n°16726 upsalin(1680)-ffred(1520):1-0
24/06/2017:Tournoi n°16750 zodiac(1720)-thierry06(1790):1-0
24/06/2017:Coupe Niveau 1 choucki11(1670)-o0o(1499):0-1
24/06/2017:Défi hackidoc(1860)-apocalypce(1830):0-1
24/06/2017:Défi coyotov(1620)-asvel69(1710):0-1
24/06/2017:Défi superman(1810)-jpjay(1820):0-1
24/06/2017:Défi bidoche(1720)-kowabounga(1780):0-1
24/06/2017:Défi sylvaingrenoble(1160)-becquetolivier(1320):1-0
24/06/2017:Leffet Larsen mefi61(1699)-skalfa(1760):0-1
24/06/2017:Tournoi n°16633 nexus38(1630)-vvvv(1660):0-1
24/06/2017:Tournoi n°16613 loco11(1990)-karim(1840):1-0
24/06/2017:Tournoi n°16713 zozo(1630)-ascensseur(1570):1-0
24/06/2017:Eq:les chics capons-les grenades : upsalin(1750)-caspalov(2150):0-1
24/06/2017:Eq:Les Corsaires de Lechiquier-Les vaillants : ben18(2099)-blitzman(2670):1-0
24/06/2017:Eq:Les Gens du Sud-les parias : dragon(1930)-cebva(2030):0-1
24/06/2017:Eq:les biquetoces-Pirates du Mat : volatile(2420)-karkaskat(2080):1-0
24/06/2017:Coupe Niveau 2 kowabounga(1790)-intrigue(1670):1-0
24/06/2017:Défi lilou(1359)-alphatauri(1570):1-0
24/06/2017:Défi cocodou(1900)-david969(1970):1-0
24/06/2017:Défi damotte(2020)-loco11(2010):1-0
24/06/2017:Défi flosuper(1990)-moi50(1830):1/2-1/2
24/06/2017:Défi anumisme(1390)-camilg(1150):1-0
24/06/2017:Défi gina(1320)-kerenor(1580):0-1
24/06/2017:Défi cathy17(1030)-anumisme(1360):0-1
24/06/2017:Défi loe123(1930)-roquefort(1930):0-1
24/06/2017:Défi hberlioz(1630)-minon(2030):0-1
24/06/2017:Faites vos jeux ascensseur(1580)-intrigue(1700):0-1
24/06/2017:Symphonie n°1 karkaskat(2120)-laetitia67(1440):1-0
24/06/2017:Symphonie n°1 laetitia67(1440)-karkaskat(2120):0-1
24/06/2017:Symphonie n°1 laetitia67(1440)-tartu(1650):1-0
24/06/2017:Tournoi échelle champions verson(1900)-chronik(2020):1/2-1/2
24/06/2017:Tournoi n°16538 nicodemouscron(2110)-cobraxx10(2030):1-0
24/06/2017:Tournoi n°16506 karim(1750)-gonzok67(1770):0-1
24/06/2017:Tournoi n°16402 petitlulu64(1640)-selmoun(1470):0-1
24/06/2017:Tournoi n°16770 verson(1910)-alexei31(1950):0-1
24/06/2017:Tournoi n°16775 simer(1810)-verson(1900):0-1
24/06/2017:Tournoi n°16775 tiounet(1680)-verson(1900):1/2-1/2
24/06/2017:Tournoi n°16774 flo71(1880)-verson(1920):1-0
24/06/2017:Eq:Les diplomates-O fou d hello : junior1966(1430)-roxane(1500):0-1
24/06/2017:Eq:O fou d hello-les chics capons : gasperzero(2050)-upsalin(1720):1-0
24/06/2017:Eq:O fou d hello-les chics capons : upsalin(1720)-gasperzero(2050):0-1
24/06/2017:Eq:les fous de bassans-La X Familly : karim(1810)-jellel67(1730):0-1
24/06/2017:Défi gervaise(1110)-jeanphy(1060):0-1
24/06/2017:Défi jenaipeurderien(1689)-marine(1560):1-0
24/06/2017:Défi kaspi007(2080)-kaby771(2140):1-0
24/06/2017:Défi jonasvh05(1209)-tonio14(1280):0-1
24/06/2017:Défi lugdunum(2220)-pionroi(2189):0-1
24/06/2017:Défi degun(1900)-kaspadesbrik(1860):0-1
24/06/2017:Défi defre(1870)-temistocles(1430):1-0
24/06/2017:Défi ghostdog(1690)-pgo(1750):0-1
24/06/2017:Faites vos jeux intrigue(1700)-ascensseur(1580):0-1
24/06/2017:brin de foin puma1965(1170)-legrillon(1800):0-1
24/06/2017:Hémorroïdes tiounet(1690)-tartu(1780):0-1
24/06/2017:Hémorroïdes connecticcut(1840)-tiounet(1690):1-0
24/06/2017:Tournoi n°16597 desaintfegor(1900)-karim(1800):1-0
24/06/2017:Tournoi n°16765 upsalin(1700)-angerpat(1580):1-0
24/06/2017:Tournoi n°16670 verson(1890)-silveur(1910):0-1
24/06/2017:Tournoi n°16675 katastrofic(1490)-ffred(1490):0-1
24/06/2017:Eq:Les Gens du Sud-Atomic Chess : verson(1880)-gerard54(1810):1-0
24/06/2017:Défi anumisme(1370)-labelette77(999):1-0
24/06/2017:Défi coxynelle(1930)-flosuper(1990):1-0
24/06/2017:Défi regor(2090)-tonton77(1890):1-0
24/06/2017:Défi hberlioz(1640)-azur50(1670):1-0
24/06/2017:Défi hberlioz(1640)-azur50(1670):1-0
24/06/2017:Défi antoinenono(1400)-pitchoune50(1090):1-0
24/06/2017:Pâques gonzok67(1770)-laetitia67(1520):1-0
24/06/2017:Memorial Lara XXI bertelsen(1700)-emmanuel(1970):0-1
24/06/2017:Tournoi échelle champions ephixe(1780)-verson(1840):0-1
24/06/2017:Tournoi n°16741 upsalin(1690)-coyotov(1670):1/2-1/2
24/06/2017:Tournoi n°16594 karim(1800)-plaisance(1940):0-1
24/06/2017:Tournoi n°16626 jacks(2680)-letyjo(2860):1/2-1/2
24/06/2017:Tournoi n°16627 tiounet(1630)-janolapin(1760):0-1
24/06/2017:Tournoi n°16699 coyotov(1660)-yann56(1530):1-0
24/06/2017:Eq:Pirates du Mat-Les pousseur de bois : totorov(2270)-kichmat(1970):1-0
24/06/2017:Eq:les grenades-Pirates du Mat : frantz90(2770)-craghack(2390):1-0
24/06/2017:Eq:Les Corsaires de Lechiquier-Pirates du Mat : ychiduodlatour(2660)-daiwen(2290):0-1
24/06/2017:Coupe Niveau 1 labelette77(999)-thewolf(1450):0-1
24/06/2017:Coupe Niveau 2 legrillon(1840)-elghribi(1970):0-1
24/06/2017:Défi bricekiller(1480)-anumisme(1320):0-1
24/06/2017:Défi max2007(1250)-tonio14(1290):1-0
24/06/2017:Défi anumisme(1390)-michel(1230):1-0
24/06/2017:Défi chessgaston(2020)-titit1(1320):1-0
24/06/2017:Défi zorglub42(1960)-morloch(1920):0-1
24/06/2017:Défi roidechecs(1250)-max2007(1270):1-0
24/06/2017:Défi malvina(1260)-perepeinard34(1450):1-0
24/06/2017:Défi hugues(1480)-ycar(1620):0-1
24/06/2017:Défi perepeinard34(1430)-thewolf(1450):0-1
24/06/2017:Défi albescab(1620)-temistocles(1430):1-0
24/06/2017:Défi anumisme(1380)-yann34(1410):1-0
24/06/2017:Faites vos jeux dragon(1940)-ascensseur(1580):0-1
24/06/2017:Faites vos jeux ascensseur(1580)-dragon(1940):1-0
24/06/2017:Hémorroïdes tiounet(1690)-ascensseur(1580):1-0
24/06/2017:Hémorroïdes ascensseur(1580)-tiounet(1690):1-0
24/06/2017:Tournoi n°16619 karim(1850)-manulatus(1890):0-1
24/06/2017:Tournoi n°16728 tichaton(1480)-jlr(1410):1-0
24/06/2017:Tournoi n°16756 coyotov(1630)-panchoa(1590):0-1
24/06/2017:Tournoi n°16661 karim(1820)-manulatus(1920):0-1
24/06/2017:Tournoi n°16756 yann56(1590)-coyotov(1630):1-0
24/06/2017:Eq:La X Familly-Les Quebecois : hexahedron(2300)-mimioko(1990):1-0
24/06/2017:Eq:CHESS MASTER-Les diplomates : slipslapmonster(1929)-sampiero2a(1390):0-1
24/06/2017:Défi roschecx(1680)-tetene(1640):0-1
24/06/2017:Défi grognasse(1180)-antoinenono(1410):0-1
24/06/2017:Eté 2017 n°6 coyotov(1630)-thomas(1270):0-1
24/06/2017:brin de foin ascensseur(1550)-qasar(1760):1/2-1/2
24/06/2017:Tournoi échelle division 1 legrillon(1810)-daniel1(1720):1-0
25/06/2017:Tournoi n°16482 ephixe(1720)-leredoutable(1750):0-1
25/06/2017:Tournoi n°16777 panchoa(1600)-coyotov(1640):0-1
25/06/2017:Eq:Pirates du Mat-Royal Kids : uliczny(2060)-johan1977(2170):0-1
25/06/2017:Défi warriorette(1940)-chessgaston(2020):0-1
25/06/2017:Défi brettsinclair(1800)-vb83(1550):1/2-1/2
25/06/2017:Défi mokanne(1540)-jenaipeurderien(1630):1-0
25/06/2017:Rapide crca(1550)-ryba(1600):1-0
25/06/2017:Rapide blackrider(1349)-verson(1480):0-1
25/06/2017:Le vieux Roi 5 ascensseur(1610)-legrillon(1810):0-1
25/06/2017:Eq:les chics capons-Les Quebecois : bmwm3(1260)-upsalin(1670):0-1
25/06/2017:Tournoi échelle division 2 tifointer(1910)-jlr(1390):1-0
25/06/2017:Tournoi n°16765 angerpat(1580)-vb83(1550):1-0
25/06/2017:Tournoi n°16628 karim(1830)-loco11(1980):0-1
25/06/2017:Tournoi n°16606 verson(1810)-saruman(1710):0-1
25/06/2017:Tournoi n°16713 madal222(1610)-zozo(1640):1-0
25/06/2017:Tournoi n°16752 verson(1940)-karim(1800):1-0
25/06/2017:Tournoi n°16773 arno(1710)-tiounet(1690):0-1
25/06/2017:Tournoi n°16778 arno(1710)-verson(1920):1-0
25/06/2017:Défi jpjay(1760)-flo71(1880):1-0
25/06/2017:Symphonie n°1 tiounet(1640)-legrillon(1850):0-1
25/06/2017:brin de foin thewolf(1520)-puma1965(1170):1-0
25/06/2017:Memorial Lara XX dragon(1930)-fly(2000):0-1
25/06/2017:brin de foin legrillon(1800)-puma1965(1170):1-0
25/06/2017:Tournoi n°16544 karim(1780)-qasar(1750):0-1
25/06/2017:Tournoi n°16628 karim(1830)-neo59(1850):0-1
25/06/2017:Tournoi n°16712 jlr(1350)-sampiero2a(1400):1-0
25/06/2017:Tournoi n°16764 simer(1790)-intrigue(1700):1-0
25/06/2017:Tournoi n°16706 verson(1890)-stef78800(1890):1/2-1/2
25/06/2017:Tournoi n°16738 sampiero2a(1390)-thewolf(1500):0-1
25/06/2017:Tournoi n°16666 jlr(1480)-chrispga(1320):0-1
25/06/2017:Tournoi n°16689 stef78800(1829)-verson(1900):1/2-1/2
25/06/2017:Tournoi n°16663 eltche(2400)-alain64(2200):1-0
25/06/2017:Eq:les chics capons-Les Quebecois : upsalin(1670)-bmwm3(1260):1-0
25/06/2017:Eq:CHESS MASTER-Les diplomates : sampiero2a(1390)-slipslapmonster(1929):1-0
25/06/2017:Coupe Niveau 1 jlr(1440)-tartu(1730):1-0
25/06/2017:Coupe Niveau 2 verson(1930)-jlr(1450):0-1
25/06/2017:Défi marcol(1050)-julia(1370):0-1
25/06/2017:Défi burgman(2120)-tonton77(1890):1-0
25/06/2017:Défi morloch(1970)-calcedoine(1990):1-0
25/06/2017:Défi kaspy(1670)-tartu(1660):0-1
25/06/2017:Eté 2017 n°6 sampiero2a(1380)-coyotov(1630):1-0
25/06/2017:brin de foin puma1965(1170)-qasar(1760):0-1
25/06/2017:brin de foin puma1965(1170)-thewolf(1520):0-1
25/06/2017:Tournoi n°16397 fly(2020)-emmanuel(1940):0-1
25/06/2017:Tournoi n°16594 lad(1890)-karim(1800):1-0
25/06/2017:Tournoi n°16735 panchoa(1590)-wendydydy(1660):0-1
25/06/2017:Tournoi n°16738 joel(1420)-sampiero2a(1390):0-1
25/06/2017:Tournoi n°16613 lad(1900)-karim(1840):1-0
25/06/2017:Tournoi n°16636 karim(1820)-lad(1900):0-1
25/06/2017:Tournoi n°16712 bibi07(1420)-fanch2pic(1360):0-1
25/06/2017:Tournoi n°16770 plaisance(1960)-verson(1920):0-1
25/06/2017:Eq:Danielsen City-LES CHATTERBOX : uji40(1650)-ypap(1940):1-0
25/06/2017:Eq:les grenades-les modestes : cibox(2580)-sherezo(2740):0-1
25/06/2017:Eq:Les diplomates-Ardeche terre d audace : slipslapmonster(1929)-lecevenol(1380):0-1
25/06/2017:Eq:Vikings-tin tin tin : bb7553(1750)-doudou(1650):1-0
25/06/2017:Défi pivoine78(1080)-antoinenono(1390):0-1
25/06/2017:Défi giselda(1570)-temistocles(1490):1-0
25/06/2017:Défi fanch2pic(1340)-kerenor(1580):0-1
25/06/2017:Défi wenoketo(1580)-doudou(1660):0-1
25/06/2017:Défi lebarov(1670)-kaspy(1670):1-0
25/06/2017:Défi antoinenono(1390)-wendydydy(1670):0-1
25/06/2017:Memorial Lara XXI karkaskat(2150)-fly(1980):1-0
25/06/2017:Cobra n° 5 neigemet(2320)-salut(1950):1-0
25/06/2017:Tournoi n°16518 lamagouille(1490)-bobbietje(1480):1-0
25/06/2017:Tournoi n°16748 berniz(2230)-nicodemouscron(2100):1-0
25/06/2017:Tournoi n°16764 leredoutable(1680)-verson(1900):0-1
25/06/2017:Tournoi n°16721 manulatus(1930)-verson(1930):0-1
25/06/2017:Tournoi n°16721 pgo(1800)-manulatus(1930):0-1
25/06/2017:Tournoi n°16781 garlik(1990)-verson(1920):1-0
25/06/2017:Tournoi n°16668 leredoutable(1680)-fooy33(1890):0-1
25/06/2017:Eq:Les Quebecois-Mission Impossible : pionfou(1760)-karpov(2310):0-1
25/06/2017:Eq:Vikings-Les Quebecois : mage(1810)-fasb(1320):1-0
25/06/2017:Eq:Vikings-Les Quebecois : fasb(1320)-mage(1810):0-1
25/06/2017:Coupe Niveau 2 karim(1840)-qasar(1760):0-1
25/06/2017:Coupe Niveau 1 pionfou(1750)-verson(1850):0-1
25/06/2017:Défi wenoketo(1570)-tetene(1660):0-1
25/06/2017:Défi leredoutable(1680)-moi50(1770):0-1
25/06/2017:Défi pgo(1770)-cineyxp(1720):0-1
25/06/2017:Défi pourquoipas(1510)-doudou(1660):1-0
25/06/2017:Défi pionroi(2149)-kaspi007(2090):1-0
25/06/2017:Défi zozo(1620)-wenoketo(1590):1-0
25/06/2017:allez y doucement emmanuel(1940)-uliczny(2050):1-0
25/06/2017:Alekhine pour les Nuls tiounet(1660)-fly(1990):1-0
25/06/2017:brin de foin qasar(1760)-puma1965(1170):1-0
25/06/2017:Lapin estival tiounet(1660)-verson(1920):0-1
25/06/2017:Tournoi n°16507 karim(1760)-mistralgagnant(1840):0-1
25/06/2017:Tournoi n°16506 mistralgagnant(1860)-karim(1750):1-0
25/06/2017:Tournoi n°16594 legrillon(1810)-karim(1800):1-0
25/06/2017:Tournoi n°16697 petitlulu64(1680)-zozo(1610):0-1
25/06/2017:Tournoi n°16549 zodiac(1760)-mistralgagnant(1860):1-0
25/06/2017:Tournoi n°16698 legrillon(1840)-domenico(1830):0-1
25/06/2017:Tournoi n°16774 verson(1900)-lad(1860):1-0
25/06/2017:Eq:les chics capons-Les diplomates : fcbbryan(2030)-lapino(2550):0-1
25/06/2017:Eq:les modestes-London : air-3-bud(1750)-thierry7ardeche(2020):0-1
25/06/2017:Eq:Pirates du Mat-Royal Kids : johan1977(2170)-uliczny(2060):1-0
25/06/2017:Coupe Niveau 3 elghribi(1980)-alain64(2210):0-1
25/06/2017:Défi bilitis(1870)-verson(1910):1/2-1/2
25/06/2017:Défi moi50(1830)-regor(2090):0-1
25/06/2017:Défi temistocles(1490)-banaw(1620):0-1
25/06/2017:Défi karim(1830)-schnibble(2379):0-1
25/06/2017:Défi temistocles(1430)-jipepe(1640):0-1
25/06/2017:Pour des joueurs cool janolapin(1760)-legrillon(1780):0-1
25/06/2017:Leffet Larsen leet(1790)-puma1965(1170):1-0
25/06/2017:Tournoi échelle division 2 jlr(1410)-leet(1800):0-1
25/06/2017:Tournoi n°16600 kiki24(1850)-karim(1810):1-0
25/06/2017:Tournoi n°16626 jacks(2740)-hallon(2420):1-0
25/06/2017:Tournoi n°16641 nogean(1640)-marco(1540):0-1
25/06/2017:Tournoi n°16721 karim(1780)-manulatus(1930):0-1
25/06/2017:Tournoi n°16743 verson(1940)-nico(1960):1-0
25/06/2017:Défi azur(1600)-clemm(1670):1-0
25/06/2017:Défi epervier14(1520)-thewolf(1440):0-1
25/06/2017:Défi azur(1590)-kawa750(1610):1-0
25/06/2017:Défi julia(1400)-thewolf(1550):1-0
25/06/2017:Tournoi n°16636 legrillon(1800)-karim(1820):1-0
25/06/2017:Tournoi n°16600 karim(1810)-legrillon(1820):0-1
25/06/2017:Tournoi n°16608 karim(1840)-legrillon(1820):0-1
25/06/2017:Tournoi n°16734 verson(1960)-manulatus(1920):1/2-1/2
25/06/2017:Tournoi n°16729 wenoketo(1580)-legionnaire(1610):0-1
25/06/2017:Tournoi n°16694 tifointer(1920)-karim(1830):1-0
25/06/2017:Tournoi n°16698 legrillon(1840)-simer(1770):0-1
25/06/2017:Tournoi n°16714 xxxx(1099)-ralexus2008(1000):1-0
25/06/2017:Tournoi n°16774 lad(1870)-flo71(1880):0-1
25/06/2017:Eq:Les Gens du Sud-Pirates du Mat : verson(1840)-totorov(2270):0-1
25/06/2017:Eq:Les Gens du Sud-Pirates du Mat : totorov(2270)-verson(1840):1-0
25/06/2017:Eq:Royal Kids-Les Rebelles : pgo(1760)-kaspouille(2350):0-1
25/06/2017:Défi fly(2000)-sergiodevienne(1810):1-0
25/06/2017:Défi sergiodevienne(1770)-cortaz(1920):0-1
25/06/2017:Défi zayka(1950)-cocodou(1950):1-0
25/06/2017:Défi pitchoune50(1030)-anumisme(1380):0-1
25/06/2017:Défi michel(1260)-antoinenono(1390):0-1
25/06/2017:Défi mauro(1760)-albescab(1620):0-1
25/06/2017:Défi mequinho(1840)-titit1(1330):1-0
25/06/2017:thewolf 2 turbo(1510)-bigoudi(1050):1-0
25/06/2017:Faites vos jeux flmnh(1790)-leet(1720):0-1
25/06/2017:brin de foin ascensseur(1550)-intrigue(1670):0-1
25/06/2017:brin de foin xxxx(1099)-puma1965(1170):1-0
25/06/2017:Hémorroïdes tiounet(1690)-connecticcut(1840):0-1
25/06/2017:Hémorroïdes intrigue(1700)-ascensseur(1580):1-0
25/06/2017:Tournoi échelle division 1 blackbishop(1910)-nico(1930):1/2-1/2
25/06/2017:Tournoi n°16585 silveur(1940)-gege24(2090):0-1
25/06/2017:Tournoi n°16419 dragonchess(1660)-mogica(1760):1/2-1/2
25/06/2017:Tournoi n°16613 lad(1910)-loco11(1990):1-0
25/06/2017:Tournoi n°16755 wenoketo(1580)-qsdmlk(1620):1-0
25/06/2017:Eq:Les Quebecois-O fou d hello : sanvic76(2010)-hexahedron(2250):0-1
25/06/2017:Coupe Niveau 4 grouik(2300)-elghribi(1910):1-0
25/06/2017:Défi deric(1640)-cortaz(1800):1-0
25/06/2017:Défi rocketman(2020)-regis08(1920):1-0
25/06/2017:Défi titit1(1320)-choderlos69(1250):0-1
25/06/2017:Défi nono1950(1290)-kerenor(1620):0-1
25/06/2017:Défi minon(2030)-tichaton(1470):1-0
25/06/2017:Défi antoinenono(1390)-choderlos69(1230):0-1
25/06/2017:Défi jimi50(1910)-hulk76(1240):1-0
25/06/2017:Défi cortaz(1890)-luz(1720):1-0
25/06/2017:Défi swallow2(2120)-swallow(1990):1/2-1/2
25/06/2017:Défi sergiodevienne(1770)-temistocles(1430):1-0
25/06/2017:Défi pitchoune50(1110)-pascalou50(1670):0-1
25/06/2017:brin de foin puma1965(1170)-yab414(1600):0-1
26/06/2017:Tournoi n°16766 kala(1850)-leredoutable(1670):1-0
26/06/2017:Tournoi n°16503 oranmore(1970)-crca(1930):1-0
26/06/2017:Tournoi n°16760 leredoutable(1680)-cineyxp(1720):0-1
26/06/2017:Tournoi n°16597 manulatus(1900)-karim(1810):1-0
26/06/2017:Eq:les fous de bassans-La X Familly : jellel67(1730)-karim(1810):1-0
26/06/2017:Coupe Niveau 2 verson(1920)-abc47(2020):1-0
26/06/2017:Défi roger72(1410)-grognasse(1180):1-0
26/06/2017:Défi hulk76(1280)-pascalou50(1670):0-1
26/06/2017:Défi antoinenono(1400)-pitchoune50(1090):1-0
26/06/2017:Défi ascensseur(1570)-damotte(2020):0-1
26/06/2017:Défi anumisme(1400)-lhommedefer(1020):1-0
26/06/2017:Défi pierre1(1810)-cineyxp(1720):0-1
26/06/2017:Défi pascalou50(1670)-choderlos69(1230):1-0
26/06/2017:Rapide ryba(1600)-loursdu07(1739):0-1
26/06/2017:Rapide moutarde18(1580)-qasar(1380):0-1
26/06/2017:Rapide moloch(1490)-salut(1510):1/2-1/2
26/06/2017:Rapide degun(1520)-cricri57(1450):0-1
26/06/2017:atteindrelessommets fly(1970)-crca(1920):1-0
26/06/2017:Leffet Larsen tartu(1740)-bertelsen(1740):1/2-1/2
26/06/2017:Eq:les modestes-Pirates du Mat : frantz90(2820)-sherezo(2730):0-1
26/06/2017:Eq:les grenades-les modestes : sherezo(2740)-cibox(2580):1-0
26/06/2017:Défi boxit(1920)-morloch(1970):0-1
26/06/2017:Tournoi n°16548 patau(1820)-fly(2010):1-0
26/06/2017:Tournoi n°16643 patau(1840)-karim(1820):1-0
26/06/2017:Eq:Les Gens du Sud-les parias : philo58200(2030)-verson(1960):0-1
26/06/2017:Eq:Les Gens du Sud-les parias : poireau(1740)-emmanuel69(1810):0-1
26/06/2017:Défi karim(1820)-patau(1880):0-1
26/06/2017:Défi thewolf(1440)-fanch2pic(1330):1-0
26/06/2017:Défi geantvert06(1360)-thewolf(1440):0-1
26/06/2017:Défi thewolf(1540)-puma1965(1170):1-0
26/06/2017:Défi ycar(1660)-kala(1850):1-0
26/06/2017:Caro sur la Kann 2 tiounet(1670)-karkaskat(2080):0-1
26/06/2017:Tournoi n°16647 panchoa(1570)-linselleschti(1560):1-0
26/06/2017:Tournoi n°16709 jlr(1360)-petitpion(1260):1-0
26/06/2017:Tournoi n°16614 wendydydy(1650)-timeck(1650):1/2-1/2
26/06/2017:Tournoi n°16665 karim(1820)-tifointer(1950):0-1
26/06/2017:Tournoi n°16694 bim(2030)-tifointer(1930):1-0
26/06/2017:Eq:Pirates du Mat-Les Rebelles : hogar(2800)-frantz90(2770):1-0
26/06/2017:Eq:Les diplomates-Ardeche terre d audace : lecevenol(1380)-slipslapmonster(1929):1-0
26/06/2017:Coupe Niveau 3 emmanuel(1960)-echecs76(1910):0-1
26/06/2017:Défi monia(2270)-karim(1850):1-0
26/06/2017:Défi tonio14(1280)-katastrofic(1530):0-1
26/06/2017:Défi janul13(1730)-matsonic(1740):1-0
26/06/2017:Défi patau(1820)-bidoche(1720):1-0
26/06/2017:Défi gilberthellemans(1630)-perepeinard34(1430):1-0
26/06/2017:Défi hachevitch(2050)-caramanlisse(2080):1-0
26/06/2017:Tournoi échelle champions verson(1960)-uliczny(1910):0-1
26/06/2017:Tournoi échelle champions patau(1780)-domenico(1830):0-1
26/06/2017:Tournoi n°16513 fly(2010)-smetemko(1809):1-0
26/06/2017:Tournoi n°16709 bibi07(1450)-jlr(1360):0-1
26/06/2017:Tournoi n°16664 coppola(1450)-thewolf(1450):0-1
26/06/2017:Tournoi n°16728 jlr(1390)-bibi07(1470):1-0
26/06/2017:Eq:Les Gens du Sud-les parias : verson(1960)-philo58200(2030):1-0
26/06/2017:Défi daniel1(1700)-patau(1880):1-0
26/06/2017:Défi chobi(1690)-cortaz(1890):0-1
26/06/2017:Défi thewolf(1440)-marcol(1040):1-0
26/06/2017:Défi turbo(1530)-nono1950(1290):1-0
26/06/2017:Défi patau(1820)-dragon(1940):0-1
26/06/2017:Défi patau(1860)-mayaapof(1660):0-1
26/06/2017:Défi verson(1900)-zayka(1930):1-0
26/06/2017:Défi fanch2pic(1360)-redqueen(1300):0-1
26/06/2017:Défi bertelsen(1710)-hberlioz(1630):0-1
26/06/2017:Défi lecevenol(1340)-antoinenono(1410):0-1
26/06/2017:Défi asvel69(1700)-coyotov(1640):1-0
26/06/2017:thewolf 2 thewolf(1460)-turbo(1510):1-0
26/06/2017:Tournoi échelle champions chronik(2030)-pgo(1770):1-0
26/06/2017:Tournoi n°16281 anderssen(2240)-burgman(2130):1-0
26/06/2017:Tournoi n°16595 mistralgagnant(1860)-verson(1830):0-1
26/06/2017:Tournoi n°16748 terrifiant(2260)-garlik(2000):1-0
26/06/2017:Tournoi n°16549 qasar(1760)-mistralgagnant(1860):1/2-1/2
26/06/2017:Tournoi n°16772 raymar(1580)-tiounet(1680):0-1
26/06/2017:Eq:les modestes-Les pousseur de bois : pilinapolgar(2510)-breitenbach(2300):1/2-1/2
26/06/2017:Eq:les modestes-Les diplomates : roxane(1470)-jetjet91330(2160):0-1
26/06/2017:Coupe Niveau 3 karim(1810)-elghribi(1900):0-1
26/06/2017:Défi ecjc(1980)-carotor(2210):1/2-1/2
26/06/2017:Défi anumisme(1310)-pivoine78(1050):1-0
26/06/2017:Défi slipslapmonster(1809)-lugdunum(2240):0-1
26/06/2017:Défi anumisme(1340)-chrispga(1370):1/2-1/2
26/06/2017:Défi loloth77(1910)-burgman(2130):0-1
26/06/2017:Défi moi50(1750)-kaby771(2130):1/2-1/2
26/06/2017:Défi chevalice(1570)-sergiodevienne(1770):1-0
26/06/2017:Le clan des Siciliennes 2 galaxyj5(1549)-alexleblanc(2230):0-1
26/06/2017:Le vieux Roi 5 mathador93(1480)-tiounet(1640):0-1
26/06/2017:Tournoi n°16608 tifointer(1940)-karim(1840):1-0
26/06/2017:Tournoi n°16556 bidoche(1730)-karim(1750):1-0
26/06/2017:Tournoi n°16685 connecticcut(1860)-patau(1840):1-0
26/06/2017:Tournoi n°16774 lad(1860)-u27940(1940):0-1
26/06/2017:Eq:Les Gens du Sud-les parias : emmanuel69(1810)-poireau(1740):1-0
26/06/2017:Eq:LES CHATTERBOX-O fou d hello : uji40(1640)-flo71(1880):0-1
26/06/2017:Coupe Niveau 1 jlr(1390)-patau(1810):0-1
26/06/2017:Coupe Niveau 3 elghribi(1970)-loursdu07(2050):0-1
26/06/2017:Défi pascalou50(1670)-titit1(1310):1-0
26/06/2017:Défi anumisme(1380)-redqueen(1300):1-0
26/06/2017:Défi azur50(1670)-vb83(1550):1/2-1/2
26/06/2017:Défi antoinenono(1380)-pierrejean(1370):1-0
26/06/2017:Défi castor(1370)-geantvert06(1360):0-1
26/06/2017:Défi jaco(1880)-bilitis(1790):1-0
26/06/2017:Défi tambour(2200)-flosuper(2010):1-0
26/06/2017:Défi thewolf(1450)-patau(1820):0-1
26/06/2017:Défi tropa(1240)-thewolf(1460):0-1
26/06/2017:Défi thewolf(1480)-patrick(1580):0-1
26/06/2017:Défi lad(1860)-patau(1820):1-0
26/06/2017:Défi antoinenono(1390)-maximax(1250):0-1
26/06/2017:Défi bibisept(1880)-lebarov(1670):1-0
26/06/2017:Défi tonton77(1890)-regor(2090):0-1
26/06/2017:Memorial Lara XXI coxynelle(1900)-bertelsen(1700):1/2-1/2
26/06/2017:Le vieux Roi 5 mathador93(1480)-thewolf(1480):0-1
26/06/2017:thewolf 2 mathador93(1480)-thewolf(1460):1-0
26/06/2017:thewolf 2 titit1(1300)-mathador93(1480):0-1
26/06/2017:thewolf 2 mathador93(1480)-tiounet(1620):1-0
26/06/2017:Pour le plaisir 38 petitlulu64(1710)-thewolf(1460):1-0
26/06/2017:brin de foin yab414(1600)-puma1965(1170):1-0
26/06/2017:Leffet Larsen mefi61(1699)-ptitefrez(2070):0-1
26/06/2017:Hémorroïdes connecticcut(1840)-intrigue(1700):1-0
26/06/2017:Tournoi n°16637 papillon22(1730)-intrigue(1730):0-1
26/06/2017:Tournoi n°16433 karim(1710)-clemm(1670):0-1
26/06/2017:Tournoi n°16494 karim(1750)-leet(1700):0-1
26/06/2017:Tournoi n°16705 bibi07(1420)-maldorox(1350):1-0
26/06/2017:Tournoi n°16699 mayaapof(1670)-thewolf(1510):1-0
26/06/2017:Tournoi n°16754 mojo(1790)-ghostdog(1670):1-0
26/06/2017:Tournoi n°16777 coyotov(1640)-vb83(1570):1-0
26/06/2017:Eq:les modestes-Mission Impossible : avefenix17(2670)-akhaline(2340):1-0
26/06/2017:Eq:LES CHATTERBOX-O fou d hello : olivyeah(1960)-patau(1740):0-1
26/06/2017:Eq:O fou d hello-tours et detours : nesles(1760)-sanvic76(1940):0-1
26/06/2017:Eq:Les Quebecois-Les Gens du Sud : dragon(1950)-mayaapof(1710):1-0
26/06/2017:Défi pascalou50(1670)-pitchoune50(1070):1-0
26/06/2017:Défi challenger2015(1390)-thewolf(1440):1/2-1/2
26/06/2017:Défi fly(2000)-chevalice(1600):1-0
26/06/2017:Défi pgo(1770)-patau(1840):1/2-1/2
26/06/2017:Défi tartu(1730)-pierrejean(1360):1-0
26/06/2017:Défi loloth77(1810)-calcedoine(1980):0-1
26/06/2017:Défi gambitmiau(1680)-superman(1820):0-1
26/06/2017:Défi tonton77(1860)-burgman(2110):0-1
26/06/2017:Défi patau(1780)-tartu(1720):1-0
26/06/2017:Défi vb83(1560)-antoinenono(1400):0-1
26/06/2017:Défi pitchoune50(1070)-pascalou50(1670):0-1
26/06/2017:Memorial Lara XXI emmanuel(1970)-bertelsen(1700):0-1
26/06/2017:Pour le plaisir 38 thewolf(1460)-pascalou50(1680):0-1
26/06/2017:Pour le plaisir 38 intrigue(1690)-pascalou50(1680):1/2-1/2
26/06/2017:Cobra n° 5 karkaskat(2130)-ficherre(1990):1-0
26/06/2017:Lapin estival petitlulu64(1690)-verson(1920):0-1
26/06/2017:Tournoi échelle division 2 yab414(1600)-qasar(1780):0-1
26/06/2017:Tournoi échelle champions uliczny(1910)-jajaf1959(1890):1/2-1/2
26/06/2017:Tournoi n°16670 silveur(1910)-karim(1810):1-0
26/06/2017:Tournoi n°16396 jacks(2730)-pgcbies(2760):1/2-1/2
26/06/2017:Tournoi n°16694 tolt(1990)-bim(2030):1-0
26/06/2017:Tournoi n°16699 wenoketo(1610)-thewolf(1510):1-0
26/06/2017:Tournoi n°16700 leredoutable(1690)-aramis(1730):1-0
26/06/2017:Tournoi n°16753 tifointer(1890)-leredoutable(1640):1-0
26/06/2017:Tournoi n°16750 leet(1800)-thierry06(1790):0-1
26/06/2017:Tournoi n°16750 tartu(1710)-leet(1800):1-0
26/06/2017:Tournoi n°16755 thewolf(1510)-wenoketo(1580):0-1
26/06/2017:Tournoi n°16727 kala(1860)-tartu(1780):1-0
26/06/2017:Tournoi n°16777 wenoketo(1590)-coyotov(1640):0-1
26/06/2017:Eq:Les vaillants -LA CITE ARDENTE : micmoun(2030)-ben18(2230):0-1
26/06/2017:Coupe Niveau 2 verson(1900)-thewolf(1520):1-0
26/06/2017:Défi tartu(1730)-tbeau44(1650):1-0
26/06/2017:Défi pitchoune50(1080)-anumisme(1440):0-1
26/06/2017:Défi alexei31(1940)-morloch(1980):1-0
26/06/2017:Défi bed2bed(1760)-vb83(1530):1-0
26/06/2017:Défi intrigue(1700)-bibisept(1870):0-1
26/06/2017:Défi sergiodevienne(1770)-tartu(1730):1-0
26/06/2017:Défi maluel(1580)-mayaapof(1630):1-0
26/06/2017:Défi genpolf(1840)-cricri57(1840):0-1
26/06/2017:Défi bibisept(1850)-mick(1930):0-1
26/06/2017:Défi vb83(1570)-coyotov(1630):1-0
26/06/2017:Défi antoinenono(1410)-titit1(1330):1-0
26/06/2017:Défi arno(1710)-sergiodevienne(1770):0-1
26/06/2017:Eté 2017 n°5 joel(1420)-qasar(1670):0-1
26/06/2017:Eté 2017 n°6 leet(1780)-tinou(2060):0-1
26/06/2017:Tournoi n°16411 mistralgagnant(1820)-legrillon(1770):1/2-1/2
26/06/2017:Tournoi n°16705 benson(1470)-maldorox(1350):1-0
26/06/2017:Tournoi n°16736 legrillon(1830)-kala(1810):0-1
26/06/2017:Tournoi n°16588 legrillon(1810)-qasar(1750):0-1
26/06/2017:Tournoi n°16688 upsalin(1710)-buzz84(1530):1-0
26/06/2017:Tournoi n°16752 karim(1810)-manulatus(1910):0-1
26/06/2017:Tournoi n°16768 arno(1710)-simer(1800):0-1
26/06/2017:Coupe Niveau 1 echecs76(1910)-slipslapmonster(1809):1-0
26/06/2017:Coupe Niveau 2 karim(1830)-choucki11(1680):0-1
26/06/2017:Défi zax(2060)-karim(1820):1-0
26/06/2017:Défi roquefort(1900)-rvsinovitch(1990):1-0
26/06/2017:Défi zatopek(1730)-asburon(1760):0-1
26/06/2017:Défi malvina(1300)-titit1(1300):0-1
26/06/2017:Défi bilitis(1860)-elghribi(1950):1/2-1/2
26/06/2017:Défi slipslapmonster(1809)-ngeorget(2400):0-1
26/06/2017:Défi cortaz(1910)-jpjay(1790):0-1
26/06/2017:Défi kaspadesbrik(1890)-kaby771(2140):1/2-1/2
26/06/2017:Défi azur50(1690)-lecouz(1580):1/2-1/2
26/06/2017:Défi mick(1930)-roquefort(1950):1-0
26/06/2017:Défi antoinenono(1400)-pitchoune50(1060):1-0
26/06/2017:Défi noelleon(2189)-flosuper(1990):1-0
26/06/2017:un petit tour en espagne fly(1950)-ptitefrez(2060):0-1
26/06/2017:Gisèle 30 coxynelle(1810)-fly(2000):1-0
26/06/2017:Gisèle 30 dragon(1930)-fly(2000):0-1
26/06/2017:Alekhine pour les Nuls fly(1990)-tiounet(1660):1-0
26/06/2017:Cobra n° 5 neigemet(2320)-emmanuel(1970):1-0
26/06/2017:Faites vos jeux karkaskat(2130)-leet(1720):0-1
26/06/2017:Symphonie n°1 leet(1740)-laetitia67(1440):1-0
26/06/2017:Fête des pères petitlulu64(1690)-coyotov(1660):1-0
26/06/2017:Tournoi n°16768 arno(1710)-tiounet(1730):1-0
26/06/2017:Tournoi n°16740 zodiac(1740)-qasar(1770):0-1
26/06/2017:Tournoi n°16766 leredoutable(1670)-tiounet(1710):1-0
26/06/2017:Tournoi n°16619 chomi64(1910)-karim(1850):1-0
26/06/2017:Tournoi n°16735 wendydydy(1660)-tiounet(1660):0-1
26/06/2017:Tournoi n°16659 yann56(1550)-vb83(1520):1-0
26/06/2017:Tournoi n°16743 garlik(1990)-nico(1960):1-0
26/06/2017:Eq:Pirates du Mat-Les Quebecois : bezug66(1630)-totorov(2210):0-1
26/06/2017:Eq:Vikings-Pirates du Mat : totorov(2220)-mage(1830):1-0
26/06/2017:Eq:les chics capons-Vikings : pascalou50(1660)-ratzi(1930):0-1
26/06/2017:Défi zax(2060)-karim(1820):1-0
26/06/2017:Défi tropa(1240)-bubbly(1280):0-1
26/06/2017:Défi maximax(1210)-anumisme(1390):0-1
26/06/2017:Défi wenoketo(1560)-mvagusta(1660):0-1
26/06/2017:Défi campa(1720)-pierre1(1800):1-0
26/06/2017:Défi antoinenono(1400)-pitchoune50(1060):1-0
26/06/2017:Défi cortaz(1900)-matsonic(1770):1-0
26/06/2017:Défi chevalice(1570)-pourquoipas(1520):1-0
26/06/2017:Défi youliyouli(1800)-superman(1820):1-0
26/06/2017:Défi jeanluc88(2029)-minon(2010):1-0
26/06/2017:Défi xxxx(1099)-tonio14(1290):1-0
26/06/2017:Défi ramo(1680)-albescab(1630):1-0
26/06/2017:Défi zodiac(1740)-bertelsen(1740):0-1
26/06/2017:Défi calcedoine(1980)-elghribi(1970):1-0
26/06/2017:Défi cortaz(1860)-elghribi(1980):1-0
26/06/2017:Tous avec Goering fly(2010)-flmnh(1810):1-0
26/06/2017:Cobra n° 5 bertelsen(1750)-karkaskat(2130):0-1
26/06/2017:Symphonie n°1 legrillon(1850)-tiounet(1640):0-1
26/06/2017:Symphonie n°1 ascensseur(1590)-laetitia67(1440):1/2-1/2
26/06/2017:brin de foin puma1965(1170)-xxxx(1099):0-1
26/06/2017:Leffet Larsen ptitefrez(2070)-tiounet(1740):1-0
27/06/2017:Eq:les modestes-Pirates du Mat : volatile(2390)-izemassalas(2700):1/2-1/2
27/06/2017:Défi chedru2000(2190)-loco11(1980):1-0
27/06/2017:Rapide yab414(1200)-qasar(1330):1/2-1/2
27/06/2017:Rapide moloch(1440)-zodiac(1370):1-0
27/06/2017:Rapide verson(1480)-cricri57(1450):1-0
27/06/2017:Rapide verson(1510)-tinou(1580):0-1
27/06/2017:Rapide hachevitch(1609)-verson(1510):0-1
27/06/2017:Tournoi échelle division 1 tambour(2210)-bistro1(1690):1-0
27/06/2017:Défi alexei31(1950)-damotte(2020):1-0
27/06/2017:Saint-Valentin 2017 n°1 frantz90(2810)-jmolla(2890):0-1
27/06/2017:thewolf 2 ascensseur(1620)-turbo(1510):0-1
27/06/2017:Tournoi n°16706 brettsinclair(1750)-zodiac(1740):1-0